     2              OBSERVATION DATA    GPS                 RINEX VERSION / TYPE
teqc 1997Jun30 19970702                                     PGM / RUN BY / DATE
                                                            COMMENT
Original Marker Name: DMAS                                  COMMENT
Campaign Name: HMC San Gabriel Valley 1993-1996             COMMENT
4-Character Station Name: DMAS                              COMMENT
6-Character Antenna Code: DMRCHT                            COMMENT
Vertical Measurement Point: BPA                             COMMENT
Vertical Offset to Rinex Ref. Point: 0.0000                 COMMENT
Radial Measurement Point: RRP                               COMMENT
Radial Offset to Rinex Ref. Point: 0.0000                   COMMENT
Antenna Height from Field Measurement: 0.0813 m             COMMENT
Additional Antenna Identification Info.:                    COMMENT
Turborogue and Ashtech Choke Ring                           COMMENT
Original XYZ: -2464950.8656 -4674154.4963 3561239.1194      COMMENT
New XYZ position is based on association with SCEC monument COMMENT
E1D0Q9Y9+0011. Position of that monument is believed to be  COMMENT
valid to within 1 m horizontally; vertical accuracy         COMMENT
should be no worse than 3-times this value.                 COMMENT
                                                            COMMENT
Revised Rinex header created by UCSD GPS archive for        COMMENT
GSAC on 13-Apr-1999 (1999:103) 16:25:34 GMT                 COMMENT
For assistance contact dagnew@ucsd.edu or hjohnson@ucsd.edu COMMENT
                                                            COMMENT
SAN DIMAS                                                   MARKER NAME
GAL HARVEY MUDD COLLEGE                                     OBSERVER / AGENCY
263 TURBOROGUE SNR-8000 94.10.09                            REC # / TYPE / VERS
260 DORNE-MARGOL. TYPE T                                    ANT # / TYPE
 -2464950.0000 -4674152.0000  3561237.0000                  APPROX POSITION XYZ
        0.0813        0.0000        0.0000                  ANTENNA: DELTA H/E/N
     1     1     0                                          WAVELENGTH FACT L1/2
     5    L1    L2    C1    P2    P1                        # / TYPES OF OBSERV
     0                                                      INTERVAL
  1995     2     8     0     0    0.000000                  TIME OF FIRST OBS
  1995     2     8    23    59   30.000000                  TIME OF LAST OBS
     0                                                      # OF SATELLITES
                                                            END OF HEADER
 95  2  8  0  0  0.0000000  0  7G 7G19G26G16G15G 2G27
 -20351846.76544 -15858562.56544  21248822.2584   21248824.0154
  -2962289.89644  -2308273.08844  22419265.6384   22419266.4964
 -10821885.07144  -8432630.57544  23432866.5364   23432867.6494
    588055.30444                  25467372.4684
  -1759593.03644  -1371109.50344  23880930.3174   23880934.6674
 -23827950.36044 -18567209.86644  20957408.2934   20957410.0544
 -28268338.90044 -22027262.97344  20205397.3564   20205398.3524
 95  2  8  0  0 30.0000000  0  7G 7G19G26G16G15G 2G27
 -20423366.58844 -15914292.28444  21235212.3764   21235214.1544
  -2889059.64244  -2251210.57544  22433201.1064   22433202.6244
 -10884784.58344  -8481643.16244  23420896.7994   23420898.9624
    653597.29144                  25479844.0124
  -1795174.17744  -1398835.05444  23874159.5554   23874161.2274
 -23832018.02944 -18570379.48144  20956634.2644   20956635.8814
 -28249496.80544 -22012580.82744  20208982.8994   20208983.7174
 95  2  8  0  1  0.0000000  0  7G 7G19G26G15G16G 2G27
 -20494523.52144 -15969739.23044  21221671.8194   21221673.7524
  -2815597.53244  -2193967.41344  22447180.3944   22447182.7134
 -10947310.03744  -8530364.27444  23408998.5494   23409000.1894
  -1830336.68744  -1426234.37744  23867468.3234   23867468.1644
    719100.92844                  25492309.0384
 -23835950.98544 -18573444.12444  20955885.8864   20955887.6864
 -28230252.69044 -21997585.42144  20212644.9744   20212645.8824
 95  2  8  0  1 30.0000000  0  7G 7G19G26G15G16G 2G27
 -20565145.79944 -16024769.56544  21208232.8424   21208234.7924
  -2741708.07744  -2136391.24644  22461241.2064   22461243.0374
 -11009281.27944  -8578653.54644  23397206.0694   23397209.0104
  -1864893.69744  -1453161.88444  23860892.6744   23860895.4724
    784726.78944    611474.31644  25504797.5274
 -23839575.73344 -18576268.60644  20955196.1054   20955197.8274
 -28210441.98144 -21982148.51144  20216414.6974   20216415.7514
 95  2  8  0  2  0.0000000  0  7G 7G19G26G15G16G 2G27
 -20635351.44444 -16079475.24944  21194873.1564   21194875.1104
  -2667493.95744  -2078562.09444  22475363.6144   22475365.6434
 -11070788.21344  -8626580.98244  23385501.4074   23385503.7984
  -1898952.91044  -1479701.53544  23854411.4424   23854413.6624
    850377.12444                  25517290.7154
 -23842999.49344 -18578936.47444  20954544.5034   20954546.2174
 -28190175.68944 -21966356.60644  20220271.3354   20220272.2944
 95  2  8  0  2 30.0000000  0  7G 7G19G26G16G15G 2G27
 -20704868.70844 -16133644.53144  21181644.3134   21181646.2984
  -2592672.57644  -2020259.75544  22489601.6124   22489604.2854
 -11131525.09744  -8673908.42344  23373943.8274   23373945.1284
    916346.06944                  25529843.9694
  -1932231.78544  -1505633.15844  23848078.5704   23848081.3214
 -23845920.25644 -18581212.39644  20953988.7634   20953990.3904
 -28169166.03544 -21949985.45744  20224269.3284   20224270.2614
 95  2  8  0  3  0.0000000  0  7G19G16G26G15G 2G 7G27
  -2516900.77644  -1961216.83344  22504020.5824   22504022.9924
    982982.46444                  25542524.6954
 -11191156.59544  -8720374.50244  23362596.1394   23362598.4704
  -1964389.47944  -1530691.12244  23841959.0724   23841963.6784
 -23847994.90244 -18582829.00644  20953593.8914   20953595.5864
 -20773350.27044 -16187006.77244  21168612.7754   21168614.5974
 -28147068.76544 -21932766.81744  20228474.3694   20228475.2004
 95  2  8  0  3 30.0000000  0  7G 7G19G26G16G15G 2G27
 -20841334.90544 -16239981.79544  21155675.7444   21155677.6454
  -2440735.17044  -1901867.04544  22518514.3944   22518517.4064
 -11250230.90244  -8766406.41844  23351354.5734   23351356.5424
   1049742.68544                  25555228.7294
  -1995986.18244  -1555311.89344  23835946.4444   23835949.4794
 -23849772.48644 -18584214.13744  20953255.6834   20953257.4124
 -28124425.07844 -21915122.39544  20232783.3744   20232784.5564
 95  2  8  0  4  0.0000000  0  7G 7G19G26G16G15G 2G27
 -20909491.10444 -16293090.50844  21142706.0184   21142707.9354
  -2364886.76244  -1842764.41644  22532947.9514   22532949.6084
 -11309429.52844  -8812535.20244  23340089.4494   23340090.7974
   1115942.94244    869564.54544  25567826.2004
  -2027717.16444  -1580037.36044  23829908.3194   23829908.2314
 -23851932.95044 -18585897.61344  20952844.5744   20952846.2924
 -28101916.20444 -21897583.02244  20237066.5314   20237067.6294
 95  2  8  0  4 30.0000000  0  7G 7G19G26G16G15G 2G27
 -20977689.52444 -16346232.11644  21129728.1694   21129730.0894
  -2289257.24444  -1783832.35944  22547339.7954   22547342.0604
 -11368666.33544  -8858693.73444  23328817.0354   23328818.8724
   1181677.77944                  25580335.1524
  -2059483.73944  -1604790.53144  23823863.1624   23823863.8434
 -23854376.83944 -18587801.94144  20952379.5444   20952381.3574
 -28079445.26644 -21880073.21144  20241342.6934   20241343.7384
 95  2  8  0  5  0.0000000  0  7G 7G19G26G15G16G 2G27
 -21045603.96944 -16399152.44944  21116804.4064   21116806.4814
  -2213544.34844  -1724835.33844  22561747.3694   22561750.4304
 -11427651.85144  -8904656.44744  23317592.4114   23317594.4364
  -2090980.64044  -1629333.58944  23817869.5914   23817872.1314
   1247241.99344                  25592811.6224
 -23856818.43144 -18589704.47844  20951914.8634   20951916.7234
 -28056707.48944 -21862355.46944  20245669.6184   20245670.6814
 95  2  8  0  5 30.0000000  0  7G19G16G26G15G 2G 7G27
  -2138102.58844  -1666049.57844  22576103.3094   22576105.4834
   1312279.94044                  25605187.6114
 -11486726.37544  -8950688.53344  23306351.1754   23306353.3364
  -2122556.30944  -1653937.98244  23811861.0254   23811864.8064
 -23859604.96744 -18591875.80144  20951384.5594   20951386.2734
 -21113581.37944 -16452121.84144  21103868.7794   21103870.7324
 -28034060.96844 -21844708.83944  20249979.0254   20249980.2874
 95  2  8  0  6  0.0000000  0  7G 7G19G26G16G15G 2G27
 -21181484.75444 -16505033.54444  21090947.1384   21090949.5154
  -2062791.49144  -1607365.65144  22590434.6464   22590437.1924
 -11545753.97644  -8996684.05344  23295118.3954   23295121.6064
   1376927.72344                  25617489.8484
  -2154067.62344  -1678492.24944  23805864.3084   23805864.8504
 -23862594.69844 -18594205.46044  20950815.7184   20950817.6294
 -28011377.82244 -21827033.67144  20254295.5104   20254296.6714
 95  2  8  0  6 30.0000000  0  7G 7G19G16G26G15G 2G27
 -21248825.10244 -16557506.52644  21078132.7484   21078134.8304
  -1987096.75044  -1548382.78844  22604839.0214   22604840.6114
   1441689.38944                  25629813.7514
 -11604235.02444  -9042253.69944  23283989.8294   23283991.6924
  -2184999.99444  -1702595.34444  23799978.0974   23799981.2844
 -23865293.48944 -18596308.41144  20950302.0844   20950303.8754
 -27988143.62144 -21808929.10944  20258716.8714   20258717.9524
 95  2  8  0  7  0.0000000  0  8G 7G19G16G26G15G 2G12G27
 -21315506.69144 -16609466.19244  21065443.6864   21065445.7394
  -1910893.68344  -1489003.80944  22619340.1114   22619342.3754
   1506689.31444   1174041.93944  25642182.9364
 -11662036.04144  -9087293.43544  23272990.7644   23272993.5994
  -2215214.07744  -1726138.74544  23794228.5784   23794232.8354
 -23867574.99644 -18598086.20744  20949867.9284   20949869.7744
         0.17714         0.32314  25139089.976    25139084.720
 -27964216.25644 -21790284.42044  20263270.1584   20263271.1954
 95  2  8  0  7 30.0000000  0  8G 7G19G16G26G15G 2G12G27
 -21382339.67144 -16661543.82344  21052725.7424   21052727.9114
  -1834965.22144  -1429838.80244  22633788.9694   22633790.6344
   1571150.75644                  25654449.4654
 -11719943.29544  -9132415.95644  23261971.4164   23261972.8324
  -2245492.02644  -1749731.89644  23788466.8914   23788472.6154
 -23870212.72444 -18600141.58044  20949366.0354   20949367.8304
    -75389.816 4    -58745.034 4  25124743.628    25124738.452
 -27940375.87044 -21771707.50744  20267806.8304   20267807.9764
 95  2  8  0  8  0.0000000  0  8G 7G19G16G26G15G 2G12G27
 -21449529.97944 -16713899.89044  21039939.8294   21039941.8534
  -1759513.80444  -1371045.52044  22648146.9054   22648149.4024
   1634863.69444                  25666573.7004
 -11778179.29944  -9177794.64644  23250889.4454   23250891.5554
  -2276036.50144  -1773532.78244  23782654.5754   23782655.9914
 -23873427.24344 -18602646.39944  20948754.2284   20948755.9434
   -151571.226 4   -118107.091 4  25110246.655    25110241.482
 -27916806.97444 -21753342.14344  20272291.7884   20272292.8954
 95  2  8  0  8 30.0000000  0  8G 7G19G16G26G15G 2G12G27
 -21516481.44044 -16766069.84344  21027199.4434   21027201.4174
  -1683940.45644  -1312157.23744  22662528.1694   22662531.2034
   1698421.62344                  25678668.3844
 -11836125.89644  -9222947.82844  23239862.5224   23239865.2714
  -2306239.54744  -1797067.50444  23776906.9534   23776909.2414
 -23876626.21044 -18605139.10344  20948145.5574   20948147.3984
   -227937.866 4   -177613.496 4  25095714.571    25095709.330
 -27892898.29444 -21734712.01444  20276841.4964   20276842.3594
 95  2  8  0  9  0.0000000  0  8G 7G19G16G26G15G 2G12G27
 -21583124.63244 -16817999.58744  21014517.6164   21014519.6854
  -1608173.09044  -1253117.76444  22676946.2744   22676948.8034
   1761881.45144                  25690744.5684
 -11893711.27444  -9267819.52944  23228904.1874   23228906.4294
  -2336039.95244  -1820288.57444  23771236.2964   23771239.9244
 -23879739.04744 -18607564.69144  20947553.2484   20947555.0954
   -304430.596 4   -237218.167 4  25081158.393    25081153.214
 -27868605.87144 -21715782.86644  20281464.2314   20281465.4294
 95  2  8  0  9 30.0000000  0  8G 7G19G16G26G15G 2G12G27
 -21649251.41744 -16869526.93744  21001934.0984   21001936.0634
  -1532021.49544  -1193778.89144  22691437.2354   22691440.1944
   1825426.99744                  25702837.4824
 -11950732.28244  -9312251.46544  23218053.7374   23218055.5104
  -2365250.50444  -1843049.98544  23765677.5994   23765680.2574
 -23882578.54944 -18609777.29444  20947012.9464   20947014.7604
   -380863.900 4   -296776.545 4  25066613.503    25066608.388
 -27843753.73944 -21696417.58044  20286193.3824   20286194.6004
 95  2  8  0 10  0.0000000  0  8G19G16G26G15G 2G12G 7G27
  -1455791.98244  -1134379.30844  22705943.2874   22705946.3284
   1888737.48544                  25714884.5754
 -12007472.63744  -9356464.71044  23207256.1554   23207256.9444
  -2394172.78244  -1865586.80744  23760173.7874   23760176.4794
 -23885458.96144 -18612021.77544  20946464.7034   20946466.3034
   -457541.286 4   -356525.119 4  25052022.350    25052017.084
 -21715152.16044 -16920878.14944  20989393.6954   20989395.8324
 -27818656.86244 -21676861.58244  20290969.1744   20290970.1614
 95  2  8  0 10 30.0000000  0  8G19G16G26G15G 2G12G 7G27
  -1379297.23844  -1074773.05344  22720499.7644   22720502.0104
   1952007.05744                  25726924.2164
 -12063731.29344  -9400302.61244  23196550.4944   23196552.5044
  -2422614.42344  -1887749.07344  23754761.4324   23754763.7534
 -23888180.48844 -18614142.45344  20945946.8864   20945948.4154
   -534272.288 4   -416315.486 4  25037420.944    25037415.751
 -21780625.60344 -16971896.40244  20976934.3134   20976936.5244
 -27793143.56244 -21656981.09944  20295824.2584   20295825.3144
 95  2  8  0 11  0.0000000  0  8G19G16G26G15G 2G12G 7G27
  -1302690.03644  -1015079.16844  22735077.8054   22735079.6634
   2015080.51844                  25738927.0474
 -12119683.85044  -9443901.99144  23185903.1504   23185906.3484
  -2450730.95644  -1909658.06444  23749410.9734
 -23890899.38944 -18616261.08144  20945429.5284   20945431.2254
   -611214.149 4   -476270.166 4  25022779.346    25022773.953
 -21845810.63544 -17022689.91844  20964530.2134   20964532.3054
 -27767356.70544 -21636887.45744  20300731.3364   20300732.4044
 95  2  8  0 11 30.0000000  0  8G19G16G26G15G 2G12G 7G27
  -1225839.98044   -955196.05044  22749702.1134   22749705.1974
   2078102.82544                  25750919.5664
 -12175176.38144  -9487142.91944  23175343.1154   23175344.3144
  -2478370.54444  -1931195.37244  23744151.3194
 -23893479.17244 -18618271.30444  20944938.6104   20944940.3214
   -688216.943 4   -536272.322 4  25008126.260    25008120.900
 -21910554.73444 -17073139.85244  20952209.6304   20952211.4394
 -27741126.61044 -21616448.43144  20305722.6724   20305723.7064
 95  2  8  0 12  0.0000000  0  8G19G16G26G15G 2G12G 7G27
  -1148589.89744   -895001.21744  22764402.0414   22764405.3644
   2141227.61244                  25762932.0544
 -12230072.18844  -9529918.84444  23164896.9454   23164899.1004
  -2505375.98744                  23739012.1544
 -23895758.37644 -18620047.31344  20944504.8974   20944506.6794
   -765125.121 4   -596200.757 4  24993491.002    24993485.679
 -21974696.53444 -17123120.46044  20940003.9474   20940005.8084
 -27714283.61944 -21595531.82344  20310830.8304   20310831.7704
 95  2  8  0 12 30.0000000  0  8G19G16G26G15G 2G12G 7G27
  -1071273.91744   -834755.03444  22779114.6034   22779117.5794
   2204117.90444                  25774899.9664
 -12284717.01944  -9572499.22544  23154498.4164   23154500.1544
  -2532076.73444                  23733931.2274
 -23898058.74344 -18621839.81144  20944067.0974   20944068.8284
   -842269.933 4   -656313.585 4  24978810.700    24978805.561
 -22038563.09644 -17172886.59944  20927850.4904   20927852.4954
 -27687150.00844 -21574388.75644  20315994.0694   20315995.3174
 95  2  8  0 13  0.0000000  0  8G19G16G26G15G 2G12G 7G27
   -993904.81344   -774467.44644  22793837.6744   22793840.4154
   2266750.43944                  25786817.4854
 -12339105.61544  -9614879.92744  23144148.6754   23144150.6304
  -2558477.65044  -1993616.42044  23728907.2614
 -23900386.46044 -18623653.61944  20943624.1794   20943625.8764
   -919657.277 4   -716615.402 4  24964084.338    24964079.338
 -22102179.29744 -17222457.65144  20915744.8014   20915746.4774
 -27659722.94644 -21553017.02744  20321213.2714   20321214.0474
 95  2  8  0 13 30.0000000  0  7G19G26G15G 2G12G 7G27
   -915992.55844   -713756.65544  22808663.7424   22808666.8104
 -12392718.31844  -9656656.05444  23133946.5744   23133947.7954
  -2584078.52344  -2013565.14744  23724035.8154   23724037.1474
 -23902224.61344 -18625085.95044  20943274.3754   20943276.0494
   -996789.179 4   -776718.169 4  24949406.677    24949401.536
 -22165054.49744 -17271451.30344  20903780.0364   20903781.8574
 -27631521.66744 -21531042.01444  20326579.9284   20326580.9504
 95  2  8  0 14  0.0000000  0  7G19G26G15G 2G12G 7G27
   -837435.29644   -652543.24444  22823612.6884   22823614.7994
 -12445481.40444  -9697770.12544  23123906.1074   23123907.8014
  -2608793.04144  -2032823.18244  23719332.9144   23719334.8604
 -23903471.80444 -18626057.78944  20943037.0334   20943038.7994
  -1073580.570 4   -836555.597 4  24934793.807    24934788.564
 -22227096.15144 -17319795.43744  20891973.7774   20891975.6744
 -27602464.02644 -21508399.70244  20332109.2704   20332110.4644
 95  2  8  0 14 30.0000000  0  7G19G26G15G 2G12G 7G27
   -758997.97744   -591423.28944  22838538.9054   22838542.0464
 -12498139.65644  -9738802.51944  23113885.4634   23113885.6714
  -2633390.87444  -2051990.29344  23714652.0614   23714654.2894
 -23904906.25344 -18627175.54544  20942764.1474   20942765.7874
  -1150803.054 4   -896728.932 4  24920098.741    24920093.609
 -22289083.76944 -17368097.46544  20880177.9124   20880179.7354
 -27573325.26544 -21485694.18044  20337654.2814   20337655.2124
 95  2  8  0 15  0.0000000  0  7G19G26G15G 2G12G 7G27
   -680362.70844   -530149.10744  22853502.7904   22853503.8814
 -12550375.83144  -9779506.02844  23103945.2794   23103946.8244
  -2657563.78044  -2070826.29244  23710052.0104   23710053.5294
 -23906222.54944 -18628201.23044  20942513.6334   20942515.2534
  -1228149.884 4   -956999.153 4  24905380.152    24905374.984
 -22350721.03044 -17416126.48844  20868448.7454   20868450.7674
 -27543804.05844 -21462690.65044  20343272.0014   20343272.9944
 95  2  8  0 15 30.0000000  0  7G19G26G15G 2G12G 7G27
   -601630.90244   -468799.67944  22868484.9674   22868486.7884
 -12602316.17844  -9819978.99744  23094061.1214   23094062.7284
  -2681425.01644  -2089419.45844  23705511.4664   23705512.0224
 -23907533.60944 -18629222.83844  20942264.1914   20942265.7744
  -1305735.624 4  -1017455.532 4  24890615.981    24890610.982
 -22412106.76744 -17463959.51944  20856767.3784   20856769.3394
 -27514018.14844 -21439480.86044  20348940.0784   20348941.1034
 95  2  8  0 16  0.0000000  0  7G19G26G15G 2G12G 7G27
   -522243.24844   -406939.21144  22883591.9754   22883593.9744
 -12653419.25844  -9859799.57544  23084336.4424   23084337.4954
  -2704421.54344  -2107338.81344  23701135.3484   23701138.0364
 -23908309.31644 -18629827.28244  20942116.5144   20942118.0914
  -1383008.548 4  -1077668.163 4  24875911.332    24875906.556
 -22472691.56244 -17511168.44344  20845238.5284   20845240.5594
 -27483410.25344 -21415630.56044  20354764.4574   20354765.4984
 95  2  8  0 16 30.0000000  0  7G19G26G15G 2G12G 7G27
   -442182.90844   -344554.57844  22898826.9014   22898828.9564
 -12703637.03144  -9898930.29544  23074780.4704   23074783.1544
  -2726516.51344  -2124555.64644  23696930.7134   23696934.0094
 -23908517.63444 -18629989.60344  20942076.9014   20942078.4924
  -1459933.787 4  -1137609.864 4  24861272.896    24861267.970
 -22532452.10344 -17557735.08544  20833866.4424   20833868.1764
 -27451960.91944 -21391124.59644  20360749.1624   20360750.0144
 95  2  8  0 17  0.0000000  0  7G19G26G15G 2G12G 7G27
   -361484.15544   -281672.45044  22914183.3264   22914185.4324
 -12753011.31044  -9937403.74744  23065384.7704   23065386.0944
  -2747726.84244  -2141083.18444  23692894.6494   23692896.6174
 -23908170.23544 -18629718.89944  20942142.9334   20942144.5814
  -1536529.349 4  -1197294.684 4  24846697.286    24846692.308
 -22591394.37544 -17603664.11844  20822650.3344   20822652.1664
 -27419689.36644 -21365977.94344  20366890.2504   20366891.1304
 95  2  8  0 17 30.0000000  0  7G19G26G15G 2G12G 7G27
   -280271.06244   -218389.57244  22929637.8564   22929640.4844
 -12801655.68744  -9975308.43944  23056128.0094   23056129.4854
  -2768156.94144  -2157002.72144  23689006.8144   23689008.5414
 -23907376.28044 -18629100.23244  20942294.0814   20942295.7454
  -1612901.343 4  -1256805.301 4  24832164.192    24832159.233
 -22649605.89144 -17649023.73344  20811573.1274   20811574.8944
 -27386694.16844 -21340267.41144  20373169.1424   20373170.0384
 95  2  8  0 18  0.0000000  0  7G19G26G15G 2G12G 7G27
   -198628.71344   -154772.17544  22945173.6834   22945177.1214
 -12849641.52544 -10012699.99344  23046996.8354   23046998.2014
  -2787881.43444  -2172372.44444  23685253.3194   23685253.9624
 -23906208.25044 -18628190.07744  20942516.3184   20942517.8514
  -1689125.810 4  -1316200.970 4  24817659.092    24817654.195
 -22707155.42944 -17693867.52044  20800621.7614   20800623.4644
 -27353053.81744 -21314054.16444  20379570.5484   20379571.6554
 95  2  8  0 18 30.0000000  0  7G19G26G15G 2G12G 7G27
   -116398.28944    -90696.55444  22960821.8284   22960822.8274
 -12896807.91344 -10049453.01244  23038021.3184   23038022.3924
  -2806737.21244  -2187065.22344  23681665.1474   23681667.1494
 -23904499.26844 -18626858.40144  20942841.4854   20942843.2254
  -1765040.716 4  -1375355.441 4  24803213.051    24803208.202
 -22763876.66844 -17738065.87844  20789827.8624   20789829.7834
 -27318615.71544 -21287219.29244  20386124.0704   20386125.1104
 95  2  8  0 19  0.0000000  0  7G19G26G15G 2G12G 7G27
    -33741.54544    -26288.74244  22976550.7104   22976553.7804
 -12943324.29944 -10085699.54044  23029169.3214   23029171.0054
  -2824895.67444  -2201214.65644  23678209.3584   23678210.1144
 -23902440.33344 -18625254.03944  20943233.3264   20943235.0584
  -1840818.736 4  -1434403.251 4  24788793.022    24788787.957
 -22819933.79744 -17781746.74544  20779160.7224   20779162.4734
 -27283541.16244 -21259888.48244  20392798.4214   20392799.4894
 95  2  8  0 19 30.0000000  0  7G19G26G15G 2G12G 7G27
     49319.41544     38434.03144  22992356.9014   22992359.0154
 -12989192.24444 -10121440.77444  23020441.0094   23020441.6854
  -2842383.51344  -2214841.53444  23674881.6444   23674888.6334
 -23900078.47044 -18623413.62544  20943682.7684   20943684.3944
  -1916487.906 4  -1493366.238 4  24774393.391    24774388.652
 -22875366.42144 -17824940.98544  20768612.1374   20768613.9084
 -27247857.31844 -21232082.90444  20399588.9164   20399590.1704
 95  2  8  0 20  0.0000000  0  7G19G26G15G 2G12G 7G27
    132859.06644    103529.83144  23008253.9894   23008256.3524
 -13034330.79444 -10156613.65344  23011851.1954   23011851.7594
  -2859125.42744  -2227887.20044  23671695.8284
 -23897353.64544 -18621290.38544  20944201.2554   20944202.7564
  -1991974.261 4  -1552186.764 4  24760028.953    24760024.061
 -22930114.29744 -17867601.65644  20758194.0114   20758195.8114
 -27211491.06844 -21203745.58144  20406509.2644   20406510.2274
 95  2  8  0 20 30.0000000  0  7G19G26G15G 2G12G 7G27
    217095.24244    169168.36944  23024283.6774   23024284.4884
 -13078513.50844 -10191041.73844  23003443.7864   23003445.5364
  -2874894.61844  -2240174.89244  23668694.9184   23668697.7144
 -23894051.42644 -18618717.23044  20944829.6354   20944831.3554
  -2067052.541 4  -1610689.312 4  24745742.141    24745737.045
 -22983973.65744 -17909569.97744  20747944.9554   20747947.0554
 -27174219.71344 -21174702.97944  20413601.6514   20413602.6094
 95  2  8  0 21  0.0000000  0  7G19G26G15G 2G12G 7G27
    302576.38844    235777.00944  23040550.2984   23040551.9214
 -13121179.95044 -10224288.29544  22995324.6914   22995325.6264
  -2889135.47544  -2251271.64544  23665985.1854
 -23889605.95444 -18615253.22644  20945675.6264   20945677.2764
  -2141168.064 4  -1668441.647 4  24731638.316    24731633.377
 -23036393.49544 -17950416.59344  20737969.7964   20737971.6334
 -27135473.87644 -21144511.43444  20420974.7424   20420975.8104
 95  2  8  0 21 30.0000000  0  7G19G26G15G 2G12G 7G27
    389686.01644    303654.59244  23057126.8484   23057128.1324
 -13161959.04644 -10256064.20044  22987564.7254   22987565.7804
  -2901452.73644  -2260869.52344  23663641.3384   23663641.4834
 -23883594.25144 -18610568.78644  20946819.5874   20946821.0794
  -2213926.563 4  -1725136.551 4  24717792.788    24717787.896
 -23086987.56744 -17989840.53244  20728342.0434   20728343.9814
 -27094868.58344 -21112870.95744  20428701.6234   20428702.7464
 95  2  8  0 22  0.0000000  0  7G19G26G15G 2G12G 7G27
    478225.91244    372646.67544  23073975.3544   23073977.2074
 -13201079.83044 -10286547.91244  22980120.2774   22980122.1054
  -2912047.04844  -2269124.85644  23661625.3724   23661628.9904
 -23876186.81244 -18604796.75844  20948229.2304   20948230.9794
  -2285529.719 4  -1780931.183 4  24704167.205    24704162.142
 -23135954.73944 -18027996.75944  20719023.8564   20719025.5404
 -27052617.31144 -21079947.90244  20436741.7774   20436742.8304
 95  2  8  0 22 30.0000000  0  7G19G26G15G 2G12G 7G27
    568296.99544    442831.90844  23091115.3634   23091118.1814
 -13238459.81744 -10315675.15644  22973007.0734   22973007.6904
  -2920834.20744  -2275971.96444  23659953.3194   23659957.1024
 -23867291.88544 -18597865.65044  20949921.9094   20949923.5034
  -2355894.777 4  -1835761.056 4  24690777.124    24690772.107
 -23183199.73344 -18064811.02744  20710033.3954   20710035.3524
 -27008640.82844 -21045680.52944  20445110.3184   20445111.3934
 95  2  8  0 23  0.0000000  0  7G19G26G15G 2G12G 7G27
    661241.10644    515255.84144  23108802.0464   23108804.8584
 -13272758.88844 -10342401.68644  22966480.0874   22966481.3074
  -2926476.43344  -2280368.50844  23658879.3534   23658881.8124
 -23855578.00844 -18588737.95844  20952150.9744   20952152.6954
  -2423684.843 4  -1888584.427 4  24677876.930    24677872.094
 -23227366.81844 -18099226.92744  20701628.7114   20701630.4454
 -26961592.92144 -21009019.83744  20454063.2574   20454064.3664
 95  2  8  0 23 30.0000000  0  7G19G26G15G 2G12G 7G27
    758398.26244    590962.68044  23127290.3764   23127292.8054
 -13302636.38744 -10365682.83844  22960794.7364   22960797.1574
  -2927639.24644  -2281274.57244  23658658.3044   23658660.9174
 -23839729.64044 -18576388.58144  20955166.8044   20955168.4044
  -2487566.475 4  -1938362.255 4  24665720.630    24665715.734
 -23267105.74944 -18130192.31344  20694066.7264   20694068.6314
 -26910148.29944 -20968933.13344  20463852.9014   20463853.7384
 95  2  8  0 24  0.0000000  0  7G19G26G15G 2G12G 7G27
    856864.14244    667689.31744  23146027.8664   23146030.9744
 -13330971.94544 -10387762.46644  22955402.5454   22955403.7084
  -2927235.51144  -2280959.98044  23658735.2354   23658735.4494
 -23822687.19144 -18563108.75244  20958409.9524   20958411.8504
  -2550453.446 4  -1987365.029 4  24653753.581    24653748.715
 -23305319.49944 -18159969.24844  20686794.7574   20686796.4444
 -26857209.27244 -20927681.96044  20473926.7854   20473928.0874
 95  2  8  0 24 30.0000000  0  7G19G26G15G 2G12G 7G27
    955872.93244    744838.98244  23164868.6624   23164870.0864
 -13358505.36044 -10409217.06744  22950163.0674   22950164.2804
  -2926019.32944  -2280012.28844  23658966.5354   23658969.7894
 -23805235.01144 -18549509.65244  20961730.9534   20961732.5144
  -2613100.949 4  -2036181.203 4  24641832.013    24641827.195
 -23342762.27344 -18189145.42544  20679669.6614   20679671.4134
 -26803519.45744 -20885845.75844  20484143.6594   20484144.7354
 95  2  8  0 25  0.0000000  0  7G19G26G15G 2G12G 7G27
   1054538.11144    821720.89944  23183644.0644   23183646.6614
 -13386102.36944 -10430721.21944  22944911.5004   22944912.3234
  -2924857.67344  -2279107.09844  23659187.7304   23659190.8614
 -23788231.62344 -18536260.25944  20964966.5964   20964968.3124
  -2676376.732 4  -2085486.952 4  24629791.021    24629786.157
 -23380311.31344 -18218404.40544  20672524.2974   20672526.2604
 -26749942.94344 -20844097.83944  20494339.0274   20494340.1324
 95  2  8  0 25 30.0000000  0  7G19G26G15G 2G12G 7G27
   1152944.75444    898401.35644  23202370.1844   23202373.3674
 -13413683.54144 -10452213.02144  22939662.9934   22939664.2954
  -2923666.98744  -2278179.28844  23659414.1224   23659416.6424
 -23771572.72844 -18523279.30044  20968136.5354   20968138.1914
  -2740198.158 4  -2135217.876 4  24617646.096    24617641.201
 -23417893.89344 -18247689.52244  20665372.4934   20665374.2604
 -26696396.55244 -20802373.39444  20504528.4654   20504529.5374
 95  2  8  0 26  0.0000000  0  7G19G26G15G 2G12G 7G27
   1251457.21144    975164.26844  23221116.5104   23221120.0644
 -13440888.18444 -10473411.43044  22934486.1584   22934487.5264
  -2922073.40644  -2276937.52844  23659717.1814   23659720.2074
 -23754875.33144 -18510268.34144  20971313.9854   20971315.5574
  -2804192.382 4  -2185083.453 4  24605468.389    24605463.568
 -23455157.95944 -18276726.44844  20658281.3844   20658283.1974
 -26642500.73944 -20760376.67444  20514784.6014   20514785.6094
 95  2  8  0 26 30.0000000  0  7G19G26G15G 2G12G 7G27
   1350050.33744   1051990.04444  23239878.2514   23239879.4884
 -13467735.03544 -10494331.04344  22929377.3674   22929379.3804
  -2920086.26944  -2275389.09044  23660095.2794   23660097.3994
 -23738133.23144 -18497222.54844  20974499.8914   20974501.5454
  -2868369.611 4  -2235091.631 4  24593255.858    24593250.861
 -23492113.50244 -18305522.96644  20651248.9564   20651250.8384
 -26588270.18344 -20718119.11744  20525104.1564   20525105.3074
 95  2  8  0 27  0.0000000  0  7G19G26G15G 2G12G 7G27
   1448243.76444   1128504.38444  23258563.9174   23258565.0674
 -13494698.04544 -10515341.16644  22924246.4824   22924247.8824
  -2918192.60544  -2273913.50844  23660455.6504   23660458.8024
 -23721813.17144 -18484505.61944  20977605.5214   20977607.1304
  -2933217.725 4  -2285622.585 4  24580915.558    24580910.820
 -23529246.40444 -18334457.68844  20644182.9374   20644184.6114
 -26534193.53144 -20675981.47944  20535394.7204   20535395.9884
 95  2  8  0 27 30.0000000  0  7G19G26G15G 2G12G 7G27
   1544996.52244   1203896.08844  23276975.2764   23276977.8554
 -13522816.49344 -10537251.63344  22918895.5164   22918897.1004
  -2917436.81244  -2273324.53244  23660599.2934   23660599.9044
 -23706979.41544 -18472946.84844  20980428.3614   20980430.1674
  -2999781.762 4  -2337490.617 4  24568248.815    24568244.033
 -23567598.24244 -18364342.23044  20636884.7634   20636886.8134
 -26481321.91344 -20634782.82844  20545455.9334   20545457.3644
 95  2  8  0 28  0.0000000  0  7G19G26G15G 2G12G 7G27
   1631453.35344   1271265.01944  23293427.4964   23293428.7424
 -13560939.05444 -10566957.51044  22911641.0694   22911642.6444
  -2926668.99844  -2280518.38644  23658842.5914   23658847.2174
 -23702519.04944 -18469471.23644  20981277.0574   20981278.8494
  -3076912.709 4  -2397592.601 4  24553571.313    24553566.340
 -23616011.73844 -18402067.02344  20627671.9624   20627673.6744
 -26438511.60744 -20601424.16244  20553602.4124   20553603.7014
 95  2  8  0 28 30.0000000  0  7G19G26G15G 2G12G 7G27
   1711197.62644   1333403.35544  23308602.4364   23308604.8054
 -13605483.95344 -10601667.80944  22903164.5654   22903166.5234
  -2942307.59444  -2292704.33644  23655866.7844   23655867.5674
 -23704859.96844 -18471295.32844  20980831.5474   20980833.1074
  -3161029.720 4  -2463138.267 4  24537564.275    24537559.425
 -23670888.39144 -18444828.04344  20617229.2234   20617231.0244
 -26402191.60844 -20573122.87844  20560513.8374   20560515.0244
 95  2  8  0 29  0.0000000  0  7G19G26G15G 2G12G 7G27
   1781985.62144   1388562.78844  23322072.9374   23322075.2354
 -13658729.02544 -10643157.46944  22893032.3554   22893033.9364
  -2966609.14344  -2311640.59444  23651242.2694   23651244.3754
 -23716274.52844 -18480189.79144  20978659.4344   20978661.2094
  -3254389.886 4  -2535886.392 4  24519798.254    24519793.452
 -23734484.09544 -18494383.12544  20605127.3834   20605129.1894
 -26374624.98544 -20551642.40444  20565759.5464   20565761.0364
 95  2  8  0 29 30.0000000  0  7G19G26G15G 2G12G 7G27
   1852263.64044   1443324.82844  23335446.3994   23335448.1134
 -13712247.62944 -10684860.26144  22882847.8944   22882849.7864
  -2991120.70644  -2330740.52244  23646577.8494   23646580.5194
 -23728326.71844 -18489581.10844  20976366.0094   20976367.6194
  -3348540.643 4  -2609250.547 4  24501882.087    24501877.103
 -23798345.50644 -18544145.25544  20592974.8854   20592976.7554
 -26347367.13444 -20530402.53444  20570946.6104   20570947.9684
 95  2  8  0 30  0.0000000  0  7G19G26G15G 2G12G 7G27
   1926920.70444   1501499.11644  23349653.0834   23349654.5784
 -13761161.81144 -10722975.19644  22873539.8794   22873541.5104
  -3010955.07444  -2346195.88444  23642803.4004   23642803.9644
 -23736108.02144 -18495644.46344  20974885.3284   20974886.9754
  -3438595.879 4  -2679423.379 4  24484745.018    24484740.230
 -23857578.02144 -18590300.45244  20581703.3354   20581705.2444
 -26315526.56244 -20505591.70744  20577005.7084   20577006.8264
 95  2  8  0 30 30.0000000  0  7G19G26G15G 2G12G 7G27
   2005404.84844   1562655.57444  23364588.2644   23364591.9704
 -13806018.74044 -10757928.64044  22865003.9034   22865005.0374
  -3026665.35544  -2358437.63844  23639813.9094   23639816.2394
 -23740140.11444 -18498786.35344  20974117.9634   20974119.7564
  -3525109.125 4  -2746836.208 4  24468281.928    24468277.155
 -23912745.10444 -18633287.77844  20571205.3784   20571207.1744
 -26279658.33544 -20477642.45244  20583831.1084   20583832.3594
 95  2  8  0 31  0.0000000  0  7G19G26G15G 2G12G 7G27
   2086888.88944   1626149.58344  23380094.0614   23380095.8444
 -13847621.89044 -10790346.65944  22857087.1994   22857088.3194
  -3039063.83144  -2368098.74544  23637454.5584   23637454.6204
 -23741227.31244 -18499633.52244  20973911.1584   20973912.9524
  -3608893.258 4  -2812122.452 4  24452338.274    24452333.453
 -23964678.94744 -18673755.69544  20561322.5844   20561324.5514
 -26240566.99044 -20447181.67744  20591269.9634   20591271.4904
 95  2  8  0 31 30.0000000  0  7G19G26G15G 2G12G 7G27
   2170613.46044   1691389.46244  23396026.2914   23396028.6864
 -13886696.37844 -10820794.29344  22849651.4294   22849652.8294
  -3048896.65044  -2375760.66744  23635583.3624   23635586.4444
 -23740100.27744 -18498755.31544  20974125.5984   20974127.2894
  -3690694.920 4  -2875863.907 4  24436771.849    24436767.061
 -24014138.72144 -18712295.76744  20551910.5534   20551912.5764
 -26198985.96744 -20414780.89644  20599182.6204   20599184.0534
 95  2  8  0 32  0.0000000  0  7G19G26G15G 2G12G 7G27
   2255981.07944   1757909.65244  23412271.5654   23412274.4744
 -13923806.64844 -10849711.37744  22842589.6694   22842591.5164
  -3056749.55144  -2381879.80644  23634089.0214   23634090.3734
 -23737348.76144 -18496611.27944  20974649.2434   20974651.0284
  -3771100.105 4  -2938517.196 4  24421471.096    24421466.457
 -24061708.58544 -18749363.18344  20542858.3164   20542860.0764
 -26155494.24144 -20380891.25444  20607459.1254   20607459.9124
 95  2  8  0 32 30.0000000  0  7G19G26G15G 2G12G 7G27
   2342545.93344   1825362.75844  23428744.1774   23428747.3464
 -13959366.67744 -10877420.47944  22835822.5734   22835823.9184
  -3063049.40344  -2386788.76544  23632890.0364   23632890.1264
 -23733412.51944 -18493544.07544  20975398.2144   20975399.8544
  -3850536.177 4  -3000415.333 4  24406354.811    24406350.214
 -24107823.18344 -18785296.62544  20534083.1804   20534084.9024
 -26110522.91144 -20345848.67344  20616016.5934   20616017.6664
 95  2  8  0 33  0.0000000  0  7G19G26G15G 2G12G 7G27
   2430087.47344   1893576.88244  23445402.9874   23445406.5454
 -13993601.59244 -10904097.02144  22829307.9884   22829310.0644
  -3068017.32644  -2390659.87144  23631944.9334   23631944.4594
 -23728521.84544 -18489733.15944  20976328.8564   20976330.5424
  -3929224.779 4  -3061731.029 4  24391380.748    24391376.121
 -24152692.97144 -18820260.08544  20525544.7824   20525546.6334
 -26064293.85144 -20309826.04644  20624813.7114   20624814.9804
 95  2  8  0 33 30.0000000  0  7G19G26G15G 2G12G 7G27
   2518252.37444   1962276.78444  23462180.1274   23462184.4174
 -14026884.34344 -10930031.61944  22822974.4254   22822976.2704
  -3072029.05544  -2393785.86044  23631181.3914   23631183.7464
 -23723068.60044 -18485483.87544  20977366.5234   20977368.1834
  -4007541.702 4  -3122757.111 4  24376477.489    24376472.818
 -24196666.59444 -18854525.23544  20517176.8484   20517178.4594
 -26017194.72744 -20273125.44644  20633776.4964   20633777.4664
 95  2  8  0 34  0.0000000  0  7G19G26G15G 2G12G 7G27
   2606839.81544   2031305.91444  23479037.8194   23479040.5654
 -14059435.29844 -10955395.99944  22816780.2474   22816781.9474
  -3075295.22344  -2396330.96144  23630559.9294   23630563.6154
 -23717279.84344 -18480973.15544  20978468.1084   20978469.8114
  -4085698.259 4  -3183658.243 4  24361604.638    24361600.000
 -24239939.08844 -18888244.05044  20508942.3134   20508944.1844
 -25969455.78444 -20235926.28544  20642860.9424   20642862.1284
 95  2  8  0 34 30.0000000  0  7G19G26G15G 2G12G 7G27
   2696157.24844   2100903.87244  23496034.5684   23496036.2504
 -14090976.52944 -10979973.56844  22810778.1284   22810779.3594
  -3077520.02644  -2398064.56444  23630136.4534   23630137.3664
 -23710848.28144 -18475961.54744  20979692.0264   20979693.8364
  -4163398.795 4  -3244204.031 4  24346818.735    24346814.042
 -24282222.49544 -18921192.15144  20500896.1734   20500897.9444
 -25920785.49444 -20198001.40244  20652122.4304   20652123.8334
 95  2  8  0 35  0.0000000  0  7G19G26G15G 2G12G 7G27
   2785473.90844   2170501.22344  23513030.7144   23513033.3524
 -14122247.42344 -11004340.49144  22804827.5044   22804829.9114
  -3079430.20744  -2399553.01944  23629773.0144   23629775.0814
 -23704510.17244 -18471022.75444  20980898.1504   20980899.8954
  -4241370.501 4  -3304961.132 4  24331981.053    24331976.519
 -24324249.30744 -18953940.30344  20492898.6594   20492900.4654
 -25871912.50244 -20159918.56644  20661422.5984   20661424.1514
 95  2  8  0 35 30.0000000  0  8G19G 4G26G15G 2G12G 7G27
   2875502.87044   2240653.62144  23530162.8384   23530164.6684
        -0.37554                  25216643.2554
 -14152529.65844 -11027937.03244  22799064.8874   22799066.2164
  -3080296.81144  -2400228.28344  23629607.9574   23629608.5154
 -23697541.04044 -18465592.25944  20982224.3704   20982225.9724
  -4318884.455 4  -3365361.544 4  24317230.544    24317226.090
 -24365303.90144 -18985930.88644  20485086.0684   20485087.8934
 -25822102.65844 -20121105.71344  20670901.0424   20670902.4254
 95  2  8  0 36  0.0000000  0  8G19G 4G26G15G 2G12G 7G27
   2966211.75144   2311335.82744  23547424.2934   23547427.3854
    -95197.35544                  25198527.5084
 -14181841.89644 -11050777.73344  22793486.9784   22793488.6694
  -3080137.14844  -2400103.85744  23629638.4994   23629641.6974
 -23689937.88044 -18459667.71744  20983671.1364   20983672.9014
  -4395958.270 4  -3425418.987 4  24302563.832    24302559.381
 -24405432.02344 -19017199.54644  20477450.1064   20477452.0604
 -25771358.46544 -20081564.80244  20680557.4524   20680558.9764
 95  2  8  0 36 30.0000000  0  8G 2G19G 4G26G15G12G 7G27
 -23682067.36444 -18453534.84244  20985168.7844   20985170.6094
   3057214.46044   2382246.99744  23564741.4684   23564743.0064
   -190449.72244                  25180401.7734
 -14210545.74044 -11073144.35144  22788024.8764   22788026.4434
  -3079328.43944  -2399473.71544  23629792.3194   23629793.6914
  -4472969.177 4  -3485427.416 4  24287909.149    24287904.598
 -24445020.02944 -19048047.33144  20469916.6154   20469918.4054
 -25720054.88644 -20041588.00044  20690320.3544   20690321.7924
 95  2  8  0 37  0.0000000  0  8G 2G19G 4G26G15G12G 7G27
 -23673873.73744 -18447150.19544  20986728.0464   20986729.7514
   3148572.42644   2453434.94944  23582126.2824   23582129.1594
   -285709.71044                  25162274.2264
 -14238574.48344 -11094984.92344  22782691.1944   22782692.5084
  -3077811.99744  -2398292.05444  23630080.8884   23630082.5434
  -4549858.886 4  -3545341.396 4  24273277.437    24273272.954
 -24484003.90144 -19078424.36244  20462498.3224   20462500.0204
 -25668141.18044 -20001135.78044  20700199.0254   20700200.3424
 95  2  8  0 37 30.0000000  0  8G 2G19G 4G26G15G12G 7G27
 -23665328.79744 -18440491.79744  20988354.0764   20988355.9934
   3240323.20344   2524929.05644  23599585.7614   23599588.6984
   -380980.69944                  25144144.7394
 -14265912.15344 -11116286.99444  22777489.0484   22777490.1414
  -3075576.88644  -2396550.38044  23630506.2294   23630508.4454
  -4626616.537 4  -3605152.469 4  24258670.918    24258666.389
 -24522362.14244 -19108313.89144  20455199.0344   20455200.9434
 -25615612.57044 -19960204.41244  20710195.0094   20710196.5944
 95  2  8  0 38  0.0000000  0  8G 2G19G 4G26G15G12G 7G27
 -23656532.14044 -18433637.25944  20990028.0244   20990029.8114
   3332367.70944   2596651.97344  23617101.2374   23617105.5784
   -476366.60044                  25125993.2244
 -14292644.84644 -11137117.65644  22772401.8784   22772402.4464
  -3072723.50944  -2394326.96544  23631049.3634   23631052.2864
  -4703342.431 4  -3664938.794 4  24244070.326    24244065.904
 -24560178.17444 -19137780.92044  20448002.7534   20448004.6104
 -25562586.50244 -19918885.41144  20720285.5224   20720287.1084
 95  2  8  0 38 30.0000000  0  8G 2G19G 4G26G15G12G 7G27
 -23647629.19744 -18426699.90344  20991722.2414   20991724.0564
   3424562.55544   2668492.07544  23634645.4414   23634650.2134
   -571988.80444                  25107796.8744
 -14318920.32544 -11157592.04344  22767401.8654   22767403.5404
  -3069384.65144  -2391725.25944  23631684.6804   23631686.6224
  -4780169.290 4  -3724803.787 4  24229450.469    24229446.049
 -24597565.69144 -19166914.04044  20440888.2774   20440890.1284
 -25509205.22544 -19877289.63044  20730443.6724   20730444.6854
 95  2  8  0 39  0.0000000  0  8G 2G19G 4G26G15G12G 7G27
 -23638633.57244 -18419690.32444  20993434.0054   20993435.5974
   3516902.40044   2740445.15944  23652217.4414   23652222.4654
   -667833.51144                  25089558.1574
 -14344756.68844 -11177724.27544  22762485.2934   22762486.6874
  -3065559.73844  -2388744.77244  23632412.6004   23632417.9674
  -4857096.760 4  -3784747.169 4  24214811.634    24214807.189
 -24634518.13644 -19195708.13944  20433856.4304   20433858.0904
 -25455457.65944 -19835408.42344  20740671.6114   20740672.8834
 95  2  8  0 39 30.0000000  0  8G 2G19G 4G26G15G12G 7G27
 -23629669.36944 -18412705.23444  20995139.8884   20995141.6614
   3609256.71344   2812409.51944  23669791.8714   23669793.4774
   -764009.16644                  25071256.4534
 -14370254.46944 -11197592.65844  22757633.2864   22757634.1544
  -3061363.86544  -2385475.24044  23633210.9444   23633210.6214
  -4934239.891 4  -3844858.597 4  24200131.652    24200127.223
 -24671149.42844 -19224251.98844  20426885.7204   20426887.4284
 -25401454.15044 -19793327.78244  20750948.1094   20750949.2664
 95  2  8  0 40  0.0000000  0  8G 2G19G 4G26G15G12G 7G27
 -23620697.63844 -18405714.27544  20996847.1324   20996848.9194
   3701668.72344   2884418.86244  23687377.1924   23687379.2954
   -860448.86544                  25052904.8404
 -14395352.53544 -11217149.59844  22752857.2234   22752858.6184
  -3056738.22044  -2381870.83144  23634091.0904   23634091.5334
  -5011539.532 4  -3905091.983 4  24185422.000    24185417.484
 -24707404.64844 -19252502.79744  20419986.5284   20419988.4904
 -25347124.03344 -19750992.64344  20761286.7524   20761288.2644
 95  2  8  0 40 30.0000000  0  8G 2G19G 4G26G15G12G 7G27
 -23611270.10644 -18398368.14844  20998641.2184   20998642.8144
   3794600.85344   2956833.46944  23705061.6584   23705062.9234
   -956703.93344   -745483.28344  25034587.9124
 -14419603.82444 -11236046.69344  22748242.1484   22748243.4224
  -3051229.28644  -2377578.16544  23635139.5444   23635140.4914
  -5088542.216 4  -3965093.964 4  24170768.754    24170764.359
 -24742847.56044 -19280120.63644  20413241.8304   20413243.6624
 -25291999.53344 -19708038.50944  20771776.7434   20771778.0104
 95  2  8  0 41  0.0000000  0  8G 2G19G 4G26G15G12G 7G27
 -23602026.92944 -18391165.67544  21000400.0864   21000401.7724
   3887421.67644   3029161.31844  23722724.6974   23722729.9504
  -1053424.17244                  25016182.6734
 -14443640.83944 -11254776.82944  22743668.1824   22743670.4764
  -3045478.80444  -2373097.21244  23636233.8434   23636235.7034
  -5165889.567 4  -4025364.520 4  24156049.954    24156045.634
 -24778127.75044 -19307611.68244  20406528.3544   20406530.2244
 -25236726.28744 -19664968.46944  20782294.8754   20782295.7804
 95  2  8  0 41 30.0000000  0  8G 2G19G 4G26G15G12G 7G27
 -23592905.31844 -18384057.92644  21002135.8044   21002137.5504
   3980183.99244   3101443.58744  23740376.7134   23740382.5544
  -1150565.11944   -896543.70644  24997697.2664
 -14467420.64444 -11273306.54144  22739143.0764   22739143.9774
  -3039443.36544  -2368394.22444  23637382.1414   23637383.4124
  -5243537.909 4  -4085869.610 4  24141273.711    24141269.448
 -24813207.55644 -19334946.58144  20399852.8004   20399854.6274
 -25181261.81744 -19621749.41944  20792849.2614   20792850.6574
 95  2  8  0 42  0.0000000  0  8G 2G19G 4G26G15G12G 7G27
 -23583527.44544 -18376750.49444  21003920.3964   21003922.1214
   4073252.66244   3173964.58944  23758087.3024   23758090.5054
  -1247758.67744                  24979201.9624
 -14490610.99744 -11291376.93744  22734730.0914   22734731.7374
  -3032763.24344  -2363188.89244  23638653.2134   23638654.7504
  -5321127.060 4  -4146328.579 4  24126508.915    24126504.574
 -24847738.86444 -19361854.08044  20393281.7664   20393283.4734
 -25125245.16144 -19578100.09944  20803509.0134   20803510.3474
 95  2  8  0 42 30.0000000  0  8G 2G19G 4G26G15G12G 7G27
 -23573910.78544 -18369256.99344  21005750.3324   21005751.9944
   4166602.62244   3246704.77244  23775851.2624   23775853.2034
  -1345024.13244  -1048070.01644  24960692.7124
 -14513237.66244 -11309008.10044  22730424.3344   22730426.1974
  -3025457.95244  -2357496.42444  23640043.6044   23640044.0384
  -5398676.566 4  -4206756.657 4  24111751.652    24111747.332
 -24881740.68344 -19388348.99244  20386811.4144   20386813.3254
 -25068715.64644 -19534051.14844  20814266.2174   20814267.5704
 95  2  8  0 43  0.0000000  0  8G 2G19G 4G26G15G12G 7G27
 -23564660.77044 -18362049.19144  21007510.6304   21007512.1984
   4259615.67944   3319182.42644  23793551.2824   23793558.5964
  -1442969.57044                  24942054.2174
 -14535904.44044 -11326670.51844  22726111.0534   22726112.2494
  -3018137.46444  -2351792.12544  23641436.3594
  -5476796.061 4  -4267628.891 4  24096885.944    24096881.594
 -24915809.93244 -19414896.44244  20380328.2674   20380330.0044
 -25012284.19844 -19490078.61144  20825004.7974   20825006.1664
 95  2  8  0 43 30.0000000  0  8G 2G19G 4G26G15G12G 7G27
 -23555707.37644 -18355072.51744  21009214.3164   21009216.2234
   4352348.10344   3391441.41844  23811197.7494   23811200.3464
  -1541516.55244  -1201180.84744  24923301.2944
 -14558528.84344 -11344299.91644  22721805.8364   22721807.1744
  -3010732.30544                  23642845.6514
  -5555415.607 4  -4328890.778 4  24081925.089    24081920.764
 -24949879.03344 -19441443.78144  20373845.0184   20373846.6424
 -24955882.12044 -19446128.95944  20835737.8454   20835739.3354
 95  2  8  0 44  0.0000000  0  8G 2G19G 4G26G15G12G 7G27
 -23546231.82444 -18347688.96944  21011017.5904   21011019.2534
   4445633.99344   3464131.67644  23828949.2584   23828952.1814
  -1639809.50044  -1277772.69344  24904596.8504   24904598.4274
 -14580249.47244 -11361225.07944  22717672.5024   22717673.9334
  -3002390.85544                  23644432.8514
  -5633683.511 4  -4389878.665 4  24067031.042    24067026.805
 -24983090.73044 -19467323.01344  20367525.1154   20367526.8894
 -24898674.83544 -19401551.87544  20846624.0594   20846625.5994
 95  2  8  0 44 30.0000000  0  8G 2G19G 4G26G15G12G 7G27
 -23536193.15244 -18339866.62344  21012927.8884   21012929.6094
   4539519.45744   3537289.15944  23846815.1384   23846816.9004
  -1737805.36844  -1354133.07444  24885948.7424   24885952.8214
 -14601007.28544 -11377399.98844  22713722.4604   22713723.9034
  -2993063.00844  -2332254.28744  23646207.8974   23646207.4994
  -5711549.148 4  -4450553.106 4  24052213.672    24052209.354
 -25015383.51044 -19492486.20744  20361380.0864   20361381.7794
 -24840614.04744 -19356309.71844  20857672.5744   20857673.9224
 95  2  8  0 45  0.0000000  0  8G 2G19G 4G26G15G12G 7G27
 -23524876.92644 -18331048.78444  21015081.3114   21015083.1884
   4634704.21744   3611459.05144  23864928.2194   23864932.3144
  -1834798.62944  -1429712.25044  24867491.5944   24867493.4674
 -14620096.66244 -11392274.82744  22710089.9114   22710091.8684
  -2982047.93144  -2323675.32344  23648303.9664   23648305.6064
  -5788311.348 4  -4510367.724 4  24037606.201    24037601.998
 -25046058.20644 -19516388.55544  20355542.8664   20355544.6674
 -24780989.13344 -19309848.76644  20869018.7514   20869020.0984
 95  2  8  0 45 30.0000000  0  8G 2G19G 4G26G15G12G 7G27
 -23512742.75444 -18321593.58044  21017390.2474   21017391.8794
   4730746.13844   3686296.88244  23883204.3674
  -1931231.70644  -1504854.88744  24849141.0664   24849144.3094
 -14637968.47744 -11406200.91144  22706689.0484   22706690.1364
  -2969793.02144  -2314122.48144  23650636.0094   23650637.7264
  -5864416.816 4  -4569670.604 4  24023123.706    24023119.567
 -25075572.44944 -19539386.65444  20349926.5264   20349928.1304
 -24720257.64244 -19262525.54544  20880575.6604   20880577.0574
 95  2  8  0 46  0.0000000  0  8G 2G26G19G 4G15G12G 7G27
 -23500534.54244 -18312080.68344  21019713.4634   21019715.1814
 -14655378.09244 -11419766.83344  22703375.8974   22703378.3854
   4826915.93844   3761234.33244  23901504.8624   23901506.0064
  -2027855.43644  -1580146.10744  24830754.1744   24830757.2714
  -2957039.93444  -2304184.82144  23653062.7494   23653066.1574
  -5940606.815 4  -4629039.355 4  24008625.237    24008621.081
 -25104665.67844 -19562056.69144  20344390.2624   20344392.0024
 -24659150.55044 -19214909.65144  20892204.0484   20892205.5624
 95  2  8  0 46 30.0000000  0  8G 2G19G 4G26G15G12G 7G27
 -23488461.37844 -18302673.01744  21022010.8934   21022012.6894
   4922990.02644   3836097.22944  23919787.1944
  -2124915.53744  -1655777.34944  24812284.0564   24812288.2594
 -14672555.98444 -11433152.19744  22700107.1554   22700108.4344
  -2944025.34144  -2294043.34844  23655539.5044
  -6017117.603 4  -4688658.071 4  23994065.691    23994061.501
 -25133570.77744 -19584580.13144  20338889.7654   20338891.6494
 -24597886.13744 -19167171.16644  20903862.2794   20903863.5324
 95  2  8  0 47  0.0000000  0  8G 2G26G19G 4G15G12G 7G27
 -23477028.00844 -18293763.89344  21024186.5744   21024188.2914
 -14689976.32344 -11446726.48344  22696792.0204   22696793.7624
   5018476.97944   3910502.61844  23937957.7894   23937962.7114
  -2222887.68244  -1732119.30444  24793640.6524   24793640.1374
  -2931239.62044  -2284080.46644  23657972.5434
  -6094438.613 4  -4748908.132 4  23979351.766    23979347.737
 -25162779.71944 -19607340.33544  20333331.5104   20333333.0844
 -24536949.05044 -19119687.74044  20915458.1894   20915459.3044
 95  2  8  0 47 30.0000000  0  8G 2G26G19G 4G15G12G 7G27
 -23465527.05444 -18284802.10644  21026375.0994   21026377.0054
 -14706931.74644 -11459938.49744  22693565.6584   22693567.2274
   5114088.44644   3985005.00244  23956152.1204   23956155.5474
  -2321054.61644  -1808613.02644  24774960.2844   24774962.7084
  -2917969.11544  -2273739.78844  23660497.8204   23660499.2434
  -6171855.896 4  -4809233.214 4  23964619.836    23964615.684
 -25191588.00544 -19629788.33944  20327849.4114   20327851.1824
 -24475626.18644 -19071903.71144  20927127.4484   20927128.9314
 95  2  8  0 48  0.0000000  0  8G 2G19G 4G26G15G12G 7G27
 -23453941.00444 -18275774.01344  21028579.8834   21028581.5324
   5209816.59644   4059598.30144  23974368.6054   23974368.8664
  -2419406.93244  -1885251.22344  24756244.3504   24756247.8624
 -14723431.94844 -11472795.78544  22690425.7174   22690427.3054
  -2904217.79544  -2263024.42944  23663114.5434   23663116.5654
  -6249372.643 4  -4869635.800 4  23949868.818    23949864.612
 -25219991.54444 -19651920.95244  20322444.4064   20322446.2384
 -24413915.31644 -19023817.34044  20938870.6564   20938872.3794
 95  2  8  0 48 30.0000000  0  8G 2G26G19G 4G15G12G 7G27
 -23443017.06044 -18267261.84244  21030658.6354   21030660.2074
 -14740220.54844 -11485877.80944  22687231.0954   22687233.3214
   5304910.60344   4133697.50944  23992464.4284
  -2518671.53744  -1962600.26844  24737354.9344   24737361.8144
  -2890730.09744  -2252514.48544  23665681.2854   23665681.3254
  -6327732.667 4  -4930695.486 4  23934957.168    23934953.155
 -25248737.45744 -19674320.34944  20316974.1434   20316975.7134
 -24352582.18144 -18976025.31244  20950542.0804   20950543.4894
 95  2  8  0 49  0.0000000  0  8G 2G26G19G 4G15G12G 7G27
 -23432516.48244 -18259079.56844  21032656.7324   21032658.6514
 -14757066.21044 -11499004.28944  22684025.3484   22684027.2474
   5399609.75144   4207488.99044  24010485.1794   24010489.7404
  -2618590.03944  -2040458.82344  24718341.1204   24718344.1214
  -2877260.85344  -2242018.95744  23668244.2374   23668247.0744
  -6406689.900 4  -4992220.532 4  23919932.303    23919928.090
 -25277597.35344 -19696808.56444  20311482.3074   20311484.0064
 -24291397.23544 -18928348.74844  20962185.2614   20962186.6154
 95  2  8  0 49 30.0000000  0  8G 2G26G19G 4G15G12G 7G27
 -23421647.60244 -18250610.30544  21034724.9674   21034726.8774
 -14773197.73144 -11511574.29544  22680955.6684   22680957.1084
   5494705.65544   4281589.64944  24028581.2374   24028581.8854
  -2718383.92244  -2118220.26144  24699350.8544   24699353.4104
  -2863027.00144  -2230927.60844  23670952.8694   23670954.1504
  -6485460.860 4  -5053600.431 4  23904942.543    23904938.389
 -25305785.48244 -19718773.32544  20306118.2424   20306119.9824
 -24229587.93244 -18880185.67844  20973947.1004   20973948.6274
 95  2  8  0 50  0.0000000  0  8G26G19G 4G15G 2G12G 7G27
 -14788614.81844 -11523587.60144  22678021.9174   22678023.2794
   5590189.48644   4355992.58944  24046751.2174   24046755.5874
  -2818072.73944  -2195899.84544  24680380.7284   24680386.1334
  -2848039.64644  -2219249.12844  23673804.7494   23673807.8364
 -23410419.94344 -18241861.47944  21036861.5204   21036863.1804
  -6564055.566 4  -5114842.984 4  23889986.268    23889982.243
 -25333291.67444 -19740206.70544  20300883.8294   20300885.6054
 -24167169.32044 -18831547.82044  20985824.9444   20985826.5704
 95  2  8  0 50 30.0000000  0  8G26G19G 4G15G 2G12G 7G27
 -14804828.72144 -11536221.79944  22674936.4334   22674937.9854
   5684526.99144   4429502.30344  24064703.1694   24064705.5814
  -2919196.03844  -2274697.14344  24661137.3874   24661140.6874
  -2833824.58644  -2208172.45144  23676509.8774   23676512.0134
 -23400364.11144 -18234025.76044  21038775.1944   21038776.9334
  -6643998.913 4  -5177136.425 4  23874773.449    23874769.585
 -25361639.95944 -19762296.26044  20295489.4854   20295491.1454
 -24105665.07544 -18783622.45744  20997528.9404   20997530.2534
 95  2  8  0 51  0.0000000  0  8G19G 4G26G15G 2G12G 7G27
   5776267.17844   4500988.07344  24082160.6624   24082163.9914
  -3023217.49944  -2355752.76244  24641343.0804   24641346.6264
 -14823291.36044 -11550608.26344  22671423.0884   22671424.9094
  -2821832.31344  -2198827.78044  23678791.8134   23678796.7994
 -23392917.26544 -18228223.01944  21040192.2414   21040194.0744
  -6726740.794 4  -5241610.540 4  23859028.175    23859024.168
 -25392276.13444 -19786168.58844  20289659.5344   20289661.2554
 -24046508.49644 -18737526.44144  21008786.2854   21008787.2684
 95  2  8  0 51 30.0000000  0  8G19G 4G26G15G 2G12G 7G27
   5866584.09644   4571364.86744  24099347.6404   24099353.9124
  -3128972.11944  -2438158.96444  24621218.3834   24621226.1854
 -14842820.40244 -11565825.68244  22667706.7084   22667707.5874
  -2810888.47844  -2190300.10044  23680874.4234   23680875.0384
 -23386899.14544 -18223533.57544  21041337.5194   21041339.1384
  -6811105.968 4  -5307349.556 4  23842974.014    23842969.881
 -25424008.30544 -19810894.93844  20283620.9864   20283622.7114
 -23988516.61944 -18692337.98344  21019821.5334   21019823.1564
 95  2  8  0 52  0.0000000  0  8G19G 4G26G15G 2G12G 7G27
   5956447.80944   4641388.49644  24116448.1654
  -3235473.15244  -2521146.73244  24600951.7484   24600954.8914
 -14862432.82044 -11581108.08344  22663974.4354   22663976.3734
  -2800009.01144  -2181822.60144  23682944.7414   23682947.2644
 -23381315.76644 -18219182.88844  21042399.9064   21042401.6464
  -6896109.349 4  -5373585.871 4  23826798.256    23826794.238
 -25455855.66144 -19835711.04844  20277560.7554   20277562.4194
 -23930692.81044 -18647280.49444  21030824.8754   21030826.4614
 95  2  8  0 52 30.0000000  0  8G19G 4G26G15G 2G12G 7G27
   6045453.52244   4710743.56044  24133385.3434   24133386.2754
  -3343102.28544  -2605013.51044  24580470.5594   24580475.6844
 -14882548.19544 -11596782.39144  22660146.5634   22660148.0334
  -2789598.38444  -2173710.41444  23684925.6654   23684927.8164
 -23376580.09744 -18215492.75444  21043301.0884   21043302.9274
  -6982154.325 4  -5440633.818 4  23810424.236    23810420.283
 -25488237.83044 -19860943.89344  20271398.5524   20271400.1924
 -23873438.54344 -18602666.79844  21041720.0334   21041721.7874
 95  2  8  0 53  0.0000000  0  8G19G 4G26G15G 2G12G 7G27
   6134127.05044   4779839.75444  24150259.1124   24150263.5484
  -3451324.76444  -2689342.70244  24559876.6144   24559883.8724
 -14902659.19944 -11612453.29344  22656319.8454   22656321.6664
  -2779136.60344  -2165558.34044  23686916.5504   23686919.5804
 -23372182.19644 -18212065.81644  21044137.8784   21044139.6504
  -7068720.098 4  -5508087.579 4  23793951.209    23793947.357
 -25520647.40544 -19886198.09244  20265231.2674   20265232.9274
 -23816241.46444 -18558097.66644  21052604.2804   21052605.6514
 95  2  8  0 53 30.0000000  0  8G19G 4G26G15G 2G12G 7G27
   6222505.57444   4848706.08744  24167077.2144   24167080.7154
  -3560063.66844  -2774074.24544  24539184.2084   24539188.5064
 -14922705.74544 -11628073.97544  22652505.0184   22652506.4634
  -2768572.19344  -2157326.36244  23688926.8054   23688927.3824
 -23368089.86544 -18208876.98944  21044916.7274   21044918.4384
  -7155754.143 4  -5575906.231 4  23777389.145    23777385.341
 -25553037.72944 -19911437.29544  20259067.6104   20259069.2714
 -23759063.68244 -18513543.57344  21063485.0474   21063486.5194
 95  2  8  0 54  0.0000000  0  8G19G 4G26G15G 2G12G 7G27
   6310896.48544   4917582.07144  24183897.5604   24183899.5844
  -3668984.35144  -2858947.45744  24518457.1674   24518460.3684
 -14942368.69544 -11643395.74144  22648763.3394   22648764.9894
  -2757588.14944  -2148767.33444  23691017.0064   23691019.7344
 -23363996.73444 -18205687.53244  21045695.5854   21045697.3714
  -7242938.209 4  -5643841.775 4  23760798.534    23760794.615
 -25585112.79644 -19936430.84044  20252963.7064   20252965.3414
 -23701599.71244 -18468766.47044  21074420.0384   21074421.5684
 95  2  8  0 54 30.0000000  0  8G19G 4G26G15G 2G12G 7G27
   6399484.28744   4986611.47644  24200755.5474   24200759.8824
  -3777898.42544  -2943815.49344  24497731.4784   24497734.6464
 -14961450.77844 -11658264.88444  22645132.0744   22645133.8584
  -2745993.34144  -2139732.40744  23693223.4294   23693226.6184
 -23359716.32744 -18202352.14844  21046510.0774   21046511.8674
  -7330080.323 4  -5711744.632 4  23744215.901    23744212.024
 -25616688.11244 -19961034.97144  20246955.1354   20246956.8504
 -23643678.96644 -18423633.43944  21085442.0614   21085443.3834
 95  2  8  0 55  0.0000000  0  8G19G 4G26G15G 2G12G 7G27
   6488145.85944   5055698.36944  24217627.1874   24217630.5584
  -3886937.26944  -3028780.78344  24476982.2194   24476984.4644
 -14980053.21044 -11672760.27744  22641592.0774   22641593.6124
  -2733904.49244  -2130312.49044  23695523.8394   23695525.7394
 -23355357.08244 -18198955.33444  21047339.7164   21047341.3014
  -7417295.739 4  -5779704.610 4  23727619.242    23727615.417
 -25647882.50644 -19985342.28044  20241019.1684   20241020.8524
 -23585424.36444 -18378240.26444  21096527.4474   21096529.1644
 95  2  8  0 55 30.0000000  0  8G19G 4G26G15G 2G12G 7G27
   6577033.09744   5124961.10944  24234541.7254   24234544.9344
  -3995965.68444  -3113737.95444  24456234.5004   24456236.0364
 -14998018.94944 -11686759.54044  22638173.3264   22638175.0164
  -2721170.11944  -2120389.57544  23697947.0224   23697948.3124
 -23350766.13544 -18195377.96844  21048213.2084   21048214.6904
  -7504431.746 4  -5847602.714 4  23711037.581    23711033.814
 -25678527.54644 -20009221.51944  20235187.6384   20235189.1864
 -23526682.77844 -18332467.61644  21107705.5324   21107706.7504
 95  2  8  0 56  0.0000000  0  8G19G 4G26G15G 2G12G 7G27
   6667892.06344   5195760.27544  24251831.4884   24251833.0464
  -4103268.37244  -3197350.39544  24435815.6494   24435820.7354
 -15013633.41444 -11698926.65644  22635202.0524   22635203.7214
  -2706062.51944  -2108617.39744  23700821.8434   23700823.1784
 -23344204.11944 -18190264.70644  21049461.9744   21049463.5514
  -7589759.454 4  -5914091.760 4  23694800.141    23694796.392
 -25706889.33744 -20031321.60444  20229790.4864   20229791.9954
 -23465725.38044 -18284968.36144  21119305.3544   21119307.0374
 95  2  8  0 56 30.0000000  0  8G19G 4G26G15G 2G12G 7G27
   6767052.35344   5273027.97344  24270701.4374   24270704.1714
  -4202533.45944  -3274699.77644  24416926.0644   24416931.5114
 -15020587.42544 -11704345.35144  22633878.6824   22633880.4054
  -2682261.28144  -2090070.99444  23705351.0494   23705350.4904
 -23329351.82444 -18178691.48244  21052288.2664   21052289.9314
  -7666957.490 4  -5974245.998 4  23680109.812    23680106.140
 -25726628.27944 -20046702.58444  20226034.1904   20226035.7874
 -23396226.35844 -18230813.29944  21132530.7874   21132532.3184
 95  2  8  0 57  0.0000000  0  8G19G 4G26G15G 2G12G 7G27
   6869153.70744   5352587.44544  24290130.5764   24290132.2254
  -4299118.46944  -3349960.78944  24398546.5054   24398552.4484
 -15024269.47444 -11707214.47244  22633178.1104   22633179.7894
  -2655138.43144  -2068936.30644  23710512.3344   23710514.0174
 -23311592.06444 -18164852.70544  21055667.8524   21055669.5034
  -7741396.346 4  -6032250.231 4  23665944.452    23665940.762
 -25743103.56144 -20059540.45244  20222899.1434   20222900.7684
 -23323548.25144 -18174181.02944  21146360.9704   21146362.2014
 95  2  8  0 57 30.0000000  0  8G19G 4G26G15G 2G12G 7G27
   6975306.50244   5435303.85344  24310330.8804   24310333.7284
  -4391893.05644  -3422252.67244  24380892.0384   24380895.0684
 -15023571.92644 -11706670.92144  22633310.8654   22633311.4814
  -2623578.34244  -2044343.98744  23716518.1734   23716520.8884
 -23289818.51144 -18147886.29544  21059811.1874   21059812.7114
  -7811958.848 4  -6087233.932 4  23652516.824    23652513.175
 -25755189.02944 -20068957.68944  20220599.2684   20220600.8794
 -23246569.00844 -18114197.22044  21161009.6184   21161010.4894
 95  2  8  0 58  0.0000000  0  8G19G 4G26G15G 2G12G 7G27
   7090176.76844   5524813.14444  24332189.9944   24332193.2094
  -4476157.89244  -3487913.57144  24364856.9964   24364858.0534
 -15013816.45544 -11699069.24744  22635167.1444   22635168.1034
  -2582901.11844  -2012647.43144  23724258.8354   23724262.4964
 -23259340.38344 -18124137.09944  21065610.9994   21065612.7184
  -7873963.802 4  -6135549.421 4  23640717.652    23640714.005
 -25758221.44444 -20071320.59444  20220022.1744   20220023.6194
 -23160604.23344 -18047211.69744  21177368.1854   21177369.2884
 95  2  8  0 58 30.0000000  0  7G19G 4G26G 2G12G 7G27
   7206064.04544   5615114.83144  24354242.5724   24354244.8614
  -4559598.76944  -3552932.40544  24348978.5894   24348983.2784
 -15002669.01344 -11690382.92544  22637288.3824   22637289.9134
 -23227839.14844 -18099590.68144  21071605.4964   21071606.8544
  -7935093.550 4  -6183182.929 4  23629084.951    23629081.281
 -25759884.57444 -20072616.52444  20219705.7884   20219707.3744
 -23073333.77144 -17979208.76244  21193975.0934   21193976.2874
 95  2  8  0 59  0.0000000  0  7G19G 4G26G 2G12G 7G27
   7318597.72544   5702803.38044  24375656.9774   24375660.1974
  -4646578.32444  -3620708.64744  24332427.0314   24332427.4994
 -14994481.52344 -11684003.06344  22638846.5064   22638847.7654
 -23199685.67144 -18077652.89944  21076962.8424   21076964.4354
  -7999717.077 4  -6233538.863 4  23616787.498    23616783.730
 -25764553.74344 -20076254.82144  20218817.3204   20218818.7424
 -22989127.28744 -17913593.34244  21209999.1434   21210000.6494
 95  2  8  0 59 30.0000000  0  7G19G 4G26G 2G12G 7G27
   7427847.71844   5787933.22144  24396446.6544   24396449.5054
  -4737033.35944  -3691193.06144  24315213.8444   24315216.1274
 -14989162.65244 -11679858.47444  22639858.6114   22639860.3064
 -23174798.94244 -18058260.63944  21081698.6514   21081700.1734
  -8067765.253 4  -6286563.355 4  23603838.215    23603834.721
 -25772173.11244 -20082191.97844  20217367.3724   20217368.8734
 -22907920.41944 -17850315.28244  21225452.2474   21225453.3544
 95  2  8  1  0  0.0000000  0  7G19G 4G26G 2G12G 7G27
   7534525.18644   5871058.49844  24416746.8014   24416750.2504
  -4830280.80344  -3763853.44844  24297469.6024   24297468.8464
 -14986026.18744 -11677414.48144  22640455.4744   22640457.4894
 -23152481.60244 -18040870.50044  21085945.5584   21085947.1564
  -8138550.686 4  -6341720.776 4  23590368.084    23590364.599
 -25782066.21744 -20089900.87544  20215484.6114   20215486.1434
 -22829035.06344 -17788846.19744  21240463.7004   21240464.8684
 95  2  8  1  0 30.0000000  0  7G19G 4G26G 2G12G 7G27
   7639532.88944   5952882.66244  24436728.8914   24436735.2394
  -4925429.95144  -3837995.61344  24279363.3184   24279367.4844
 -14984177.45744 -11675973.90944  22640807.2214   22640809.0594
 -23131864.38444 -18024805.12944  21089868.8114   21089870.4304
  -8211178.510 4  -6398313.819 4  23576547.564    23576543.878
 -25793333.20044 -20098680.32644  20213340.6814   20213342.1694
 -22751587.80844 -17728497.70344  21255201.5194   21255202.5994
 95  2  8  1  1  0.0000000  0  7G19G 4G26G 2G12G 7G27
   7743580.45544   6033958.67044  24456528.6154   24456532.3254
  -5021764.22844  -3913061.27144  24261031.4224   24261033.2144
 -14982928.00044 -11675000.29544  22641045.1504   22641046.5784
 -23112236.33444 -18009510.54244  21093603.8974   21093605.3454
  -8284939.852 4  -6455790.130 4  23562511.169    23562507.532
 -25805281.09744 -20107990.35644  20211067.0494   20211068.7784
 -22674869.38544 -17668717.13144  21269800.4934   21269801.8014
 95  2  8  1  1 30.0000000  0  7G19G 4G26G 2G12G 7G27
   7846343.53244   6114033.75844  24476083.8934   24476086.7764
  -5119600.33444  -3989297.17444  24242414.0934
 -14982612.53644 -11674754.48544  22641105.1114   22641107.0904
 -23093900.34244 -17995222.75644  21097093.1024   21097094.6064
  -8360152.370 4  -6514397.224 4  23548198.669    23548195.021
 -25818228.29944 -20118079.07144  20208603.1934   20208604.6504
 -22599190.83444 -17609746.84944  21284201.5644   21284202.9524
 95  2  8  1  2  0.0000000  0  7G19G 4G26G 2G12G 7G27
   7948395.25544   6193554.55144  24495503.6624   24495507.6524
  -5218344.72544  -4066240.82644  24223623.5004   24223623.8964
 -14982659.48444 -11674791.06044  22641095.9754   22641097.4984
 -23076264.82244 -17981480.78744  21100449.0894   21100450.4464
  -8436220.989 4  -6573671.414 4  23533723.139    23533719.613
 -25831571.07344 -20128476.02344  20206064.0464   20206065.6284
 -22523956.20244 -17551122.48544  21298518.2284   21298519.6424
 95  2  8  1  2 30.0000000  0  8G19G 4G26G 9G 2G12G 7G27
   8050084.92544   6272793.23144  24514854.5674   24514860.3774
  -5317620.13744  -4143598.24644  24204731.9204   24204735.5174
 -14982695.80944 -11674819.35644  22641089.0294   22641090.5534
        -0.40454                  25204066.9454
 -23058949.74044 -17967988.51144  21103744.0784   21103745.7134
  -8512770.559 4  -6633320.365 4  23519156.159    23519152.712
 -25844933.51244 -20138888.29944  20203521.3934   20203522.8044
 -22448780.59444 -17492544.11444  21312823.8034   21312825.2514
 95  2  8  1  3  0.0000000  0  8G19G 4G26G 9G 2G12G 7G27
   8151541.84544   6351850.53144  24534161.0714   24534165.1044
  -5417282.54044  -4221257.22244  24185766.7244   24185770.7004
 -14982598.33144 -11674743.40244  22641107.7134   22641109.3704
    -99336.12244                  25185164.2174
 -23041803.95244 -17954628.15444  21107006.8224   21107008.5124
  -8589672.992 4  -6693244.279 4  23504522.016    23504518.582
 -25858178.03944 -20149208.69844  20201001.1934   20201002.6554
 -22373533.95544 -17433910.39044  21327142.9034   21327144.4474
 95  2  8  1  3 30.0000000  0  8G19G 4G26G 9G 2G12G 7G27
   8252742.06644   6430707.81544  24553418.9334   24553421.5584
  -5517342.51344  -4299225.95044  24166725.9244   24166728.8904
 -14982384.82344 -11674577.02644  22641148.4164   22641150.7234
   -199071.86844                  25166184.6974
 -23024861.67844 -17941426.38044  21110230.8474   21110232.1734
  -8666948.333 4  -6753458.771 4  23489816.893    23489813.583
 -25871308.63244 -20159440.31544  20198502.4454   20198503.8794
 -22298253.26844 -17375250.13144  21341468.2454   21341469.3904
 95  2  8  1  4  0.0000000  0  8G19G 4G26G 9G 2G12G 7G27
   8353968.47944   6509585.54944  24572681.7174   24572684.6704
  -5617501.69244  -4377272.01444  24147666.1664   24147670.1444
 -14981764.65744 -11674093.78144  22641266.3914   22641268.5794
   -298911.85544                  25147185.6484
 -23007853.65144 -17928173.37044  21113467.2724   21113468.4184
  -8744311.468 4  -6813741.669 4  23475095.202    23475091.898
 -25884048.70144 -20169367.62844  20196078.0334   20196079.4074
 -22222668.39044 -17316352.84144  21355851.5284   21355852.7154
 95  2  8  1  4 30.0000000  0  8G19G 4G26G 9G 2G12G 7G27
   8455310.44944   6588553.28944  24591966.3724   24591969.2754
  -5717657.98244  -4455315.80144  24128607.1024   24128606.8904
 -14980640.89444 -11673218.12844  22641480.1564   22641481.3134
   -398766.04344                  25128183.9774
 -22990709.67444 -17914814.42544  21116729.6074   21116731.0804
  -8821683.304 4  -6874031.349 4  23460371.792    23460368.379
 -25896324.78244 -20178933.39344  20193741.8674   20193743.4644
 -22146700.43344 -17257157.05144  21370307.7314   21370308.8644
 95  2  8  1  5  0.0000000  0  8G19G 4G26G 9G 2G12G 7G27
   8556504.00244   6667405.38644  24611223.0944   24611226.9634
  -5818062.37744  -4533552.90044  24109500.8864   24109503.2404
 -14979274.29744 -11672153.24144  22641740.3254   22641741.7044
   -498904.55844                  25109128.4234
 -22973708.79344 -17901566.98544  21119964.8274   21119966.3984
  -8899327.063 4  -6934532.920 4  23445596.673    23445593.125
 -25908403.95344 -20188345.72344  20191443.2744   20191444.7984
 -22070625.36444 -17197877.79144  21384784.2114   21384785.7584
 95  2  8  1  5 30.0000000  0  8G19G 4G26G 9G 2G12G 7G27
   8657823.00144   6746355.24344  24630503.5044   24630507.4694
  -5918459.75144  -4611784.54544  24090395.6014   24090397.4354
 -14977378.81444 -11670676.22744  22642100.9534   22642102.2904
   -599049.25444                  25090071.5344
 -22956580.92744 -17888220.59644  21123224.0114   21123225.4674
  -8976967.005 4  -6995031.517 4  23430822.135    23430818.774
 -25920031.65844 -20197406.26244  20189230.7254   20189232.1254
 -21994162.14544 -17138296.08044  21399334.9304   21399336.0174
 95  2  8  1  6  0.0000000  0  8G19G 4G26G 9G 2G12G 7G27
   8759249.38544   6825388.75944  24649804.2874   24649806.3314
  -6018884.08044  -4690037.17744  24071285.3364   24071287.0034
 -14974969.30244 -11668798.68944  22642559.4364   22642560.9444
   -699235.34844                  25071006.3074
 -22939339.85844 -17874785.99544  21126505.0664   21126506.6044
  -9054626.673 4  -7055545.484 4  23416043.832    23416040.597
 -25931243.25444 -20206142.55644  20187097.1854   20187098.6524
 -21917324.45544 -17078422.57044  21413956.8404   21413957.9964
 95  2  8  1  6 30.0000000  0  8G19G 4G26G 9G 2G12G 7G27
   8860751.18144   6904481.04944  24669119.2694   24669122.1674
  -6119383.28844  -4768348.20244  24052161.0074   24052163.5414
 -14972083.05344 -11666549.66844  22643108.5794   22643110.1194
   -799507.08744                  25051925.5204
 -22922004.29044 -17861277.75944  21129803.8534   21129805.3334
  -9132334.202 4  -7116096.739 4  23401256.575    23401253.231
 -25942062.35044 -20214573.01144  20185038.3704   20185039.7874
 -21840146.34744 -17018283.80244  21428643.3064   21428644.4014
 95  2  8  1  7  0.0000000  0  8G19G 4G26G 9G 2G12G 7G27
   8962395.04444   6983684.05944  24688461.5714   24688463.3304
  -6219927.20044  -4846694.04744  24033028.2304   24033031.4444
 -14968667.89144 -11663888.50644  22643758.5064   22643760.0084
   -899802.63844                  25032840.0454
 -22904487.09444 -17847627.99544  21133137.2524   21133138.8284
  -9210018.811 4  -7176630.137 4  23386473.602    23386470.375
 -25952410.45544 -20222636.45944  20183069.0284   20183070.5554
 -21762567.03744 -16957832.41144  21443406.1214   21443407.3434
 95  2  8  1  7 30.0000000  0  8G19G 4G26G 9G 2G12G 7G27
   9064170.39744   7062989.51244  24707828.7444   24707832.1654
  -6320532.55644  -4925087.74644  24013883.5244   24013883.8474
 -14964740.91644 -11660828.52544  22644505.8274   22644507.4124
  -1000123.55044                  25013748.8924
 -22886793.34044 -17833840.65544  21136504.2794   21136505.8474
  -9287689.022 4  -7237152.315 4  23371693.416    23371690.175
 -25962293.76844 -20230337.72944  20181188.3294   20181189.9214
 -21684596.95044 -16897076.52544  21458243.4254   21458245.1314
 95  2  8  1  8  0.0000000  0  8G19G 4G26G 9G 2G12G 7G27
   9165989.18144   7142328.79444  24727204.1884   24727207.2624
  -6421245.84044  -5003565.57844  23994718.3364   23994720.4064
 -14960387.73744 -11657436.42544  22645334.1094   22645335.6574
  -1100552.82544                  24994637.9764
 -22868993.48044 -17819970.63744  21139891.4114   21139892.9494
  -9365414.908 4  -7297717.872 4  23356902.572    23356899.341
 -25971774.62544 -20237725.40044  20179384.1854   20179385.6644
 -21606319.92644 -16836081.45744  21473138.9334   21473140.8654
 95  2  8  1  8 30.0000000  0  8G19G 4G26G 9G 2G12G 7G27
   9267915.50744   7221751.88844  24746600.1864   24746606.1624
  -6521990.67844  -5082067.96844  23975547.3054   23975553.1964
 -14955537.00144 -11653656.64444  22646257.3414   22646258.2044
  -1201003.71644   -935845.46844  24975522.4854
 -22851023.30844 -17805967.90144  21143311.1054   21143312.6434
  -9443120.348 4  -7358267.501 4  23342115.758    23342112.371
 -25980770.60444 -20244735.24144  20177672.2004   20177673.4354
 -21527661.12544 -16774788.90844  21488107.0984   21488108.9604
 95  2  8  1  9  0.0000000  0  8G19G 4G26G 9G 2G12G 7G27
   9369979.81444   7301282.46744  24766022.4434   24766024.4904
  -6622711.45244  -5160551.62544  23956380.6414   23956384.2084
 -14950145.43344 -11649455.42044  22647283.3024   22647285.1664
  -1301430.66644                  24956412.1844
 -22832862.77244 -17791816.83944  21146766.9354   21146768.3234
  -9520772.118 4  -7418775.310 4  23327339.054    23327335.720
 -25989262.80344 -20251352.52844  20176056.2224   20176057.6514
 -21448578.23844 -16713165.89844  21503156.1224   21503157.6154
 95  2  8  1  9 30.0000000  0  8G19G 4G26G 9G 2G12G 7G27
   9472102.52444   7380858.65244  24785455.6254
  -6723446.90144  -5239046.74744  23937211.2494   23937214.2664
 -14944275.76044 -11644881.65244  22648400.3224   22648401.3084
  -1401902.83944                  24937292.6014
 -22814603.24644 -17777588.63244  21150241.6194   21150243.3484
  -9598447.045 4  -7479301.165 4  23312557.870    23312554.645
 -25997348.59344 -20257653.13344  20174517.5384   20174519.0584
 -21369153.37444 -16651276.41544  21518270.2744   21518271.4104
 95  2  8  1 10  0.0000000  0  8G19G 4G26G 9G 2G12G 7G27
   9574314.62944   7460504.38844  24804906.0494
  -6824174.48944  -5317535.68744  23918043.4234   23918047.6494
 -14937895.48044 -11639910.01144  22649614.4564   22649615.7324
  -1502382.60744                  24918172.0184
 -22796222.02444 -17763265.60144  21153739.4814   21153740.8154
  -9676117.642 4  -7539823.650 4  23297777.666    23297774.392
 -26005004.82144 -20263619.01444  20173060.5604   20173061.9334
 -21289360.26644 -16589099.98344  21533454.2654   21533455.7074
 95  2  8  1 10 30.0000000  0  8G19G 4G26G 9G 2G12G 7G27
   9676743.26244                  24824397.5054
  -6924797.20044  -5395942.90644  23898895.5884   23898896.0044
 -14930884.37844 -11634446.81344  22650948.7584   22650950.7444
  -1602730.37044                  24899076.2924
 -22777609.29244 -17748762.17044  21157281.2554   21157282.9334
  -9753668.441 4  -7600252.787 4  23283020.103    23283016.987
 -26012119.30144 -20269162.75444  20171706.8824   20171708.2104
 -21209087.10544 -16526549.49044  21548729.8284   21548731.7854
 95  2  8  1 11  0.0000000  0  8G19G 4G26G 9G 2G12G 7G27
   9779318.30844   7620247.51944  24843916.9424
  -7025379.89244  -5474318.97044  23879755.1704   23879756.7654
 -14923325.24144 -11628556.58244  22652386.9814   22652389.0024
  -1703012.95244  -1327020.83944  24879992.7674
 -22758829.06344 -17734128.22044  21160855.0594   21160856.5294
  -9831176.615 4  -7660648.710 4  23268270.764    23268267.649
 -26018776.51844 -20274350.18544  20170440.0104   20170441.5034
 -21128420.98544 -16463692.80544  21564080.1504   21564081.5974
 95  2  8  1 11 30.0000000  0  8G19G 4G26G 9G 2G12G 7G27
   9882002.22444                  24863456.9374
  -7125972.87544  -5552703.00244  23860613.0144   23860613.1724
 -14915269.31344 -11622279.23644  22653920.1254   22653921.4284
  -1803267.37544  -1405141.10644  24860915.1464
 -22739912.54244 -17719388.07344  21164454.7894   21164456.4134
  -9908680.347 4  -7721041.171 4  23253522.298    23253519.126
 -26025000.37744 -20279199.93744  20169255.5334   20169257.0344
 -21047406.86044 -16400564.92744  21579496.6354   21579498.3444
 95  2  8  1 12  0.0000000  0  8G19G 4G26G 9G 2G12G 7G27
   9984787.20444                  24883016.2304
  -7226586.79644  -5631103.37944  23841466.4894   23841469.7824
 -14906726.69644 -11615622.65644  22655545.6384   22655547.3204
  -1903500.93244                  24841841.5614
 -22720862.22444 -17704543.66744  21168079.9024   21168081.3974
  -9986184.222 4  -7781433.749 4  23238773.716    23238770.561
 -26030781.39944 -20283704.62144  20168155.5584   20168156.9454
 -20966038.22544 -16337160.81744  21594980.5984   21594982.1974
 95  2  8  1 12 30.0000000  0  8G19G 4G26G 9G 2G12G 7G27
  10087711.94044                  24902602.0394
  -7327160.36044  -5709472.28344  23822327.9674   23822330.0164
 -14897649.18544 -11608549.27444  22657273.0584   22657274.4224
  -2003680.82044  -1561307.24144  24822777.4474
 -22701619.58244 -17689549.39944  21171741.4804   21171743.1244
 -10063642.683 4  -7841790.939 4  23224033.762    23224030.706
 -26036067.66844 -20287823.78144  20167149.6734   20167151.0594
 -20884267.22344 -16273443.17944  21610541.2354   21610542.8374
 95  2  8  1 13  0.0000000  0  8G19G 4G26G 9G 2G12G 7G27
  10190490.92044   7940641.75444  24922160.4064
  -7427954.28744  -5788012.89344  23803147.5974   23803149.8564
 -14888321.20044 -11601280.71844  22659048.1414   22659049.1964
  -2104105.61444  -1639560.20944  24803667.2374
 -22682458.82644 -17674618.93544  21175387.8604   21175389.4604
 -10141330.861 4  -7902327.130 4  23209250.125    23209247.094
 -26041129.72244 -20291768.23144  20166186.3444   20166187.9164
 -20802365.68944 -16209623.82444  21626126.4614   21626128.3504
 95  2  8  1 13 30.0000000  0  8G19G 4G26G 9G 2G12G 7G27
  10293489.16344   8020900.10544  24941760.5404
  -7528585.64344  -5866426.86844  23783998.0494   23784001.4544
 -14878369.80844 -11593526.38744  22660941.7544   22660943.1934
  -2204427.50744  -1717733.00544  24784576.6204
 -22663016.23744 -17659468.86144  21179087.6294   21179089.1344
 -10218873.965 4  -7962750.274 4  23194494.141    23194490.993
 -26045590.69344 -20295244.30044  20165337.4204   20165338.9384
 -20719959.15544 -16145410.97044  21641807.7464   21641809.4214
 95  2  8  1 14  0.0000000  0  8G19G 4G26G 9G 2G12G 7G27
  10396876.65844                  24961434.4854
  -7628871.55944  -5944571.65244  23764914.0774   23764916.4124
 -14867623.59144 -11585152.72144  22662986.6564   22662988.6834
  -2304473.75544  -1795690.90744  24765538.4484
 -22643115.89044 -17643962.09644  21182874.5094   21182876.1654
 -10296094.645 4  -8022922.177 4  23179799.489    23179796.347
 -26049276.66644 -20298116.47544  20164635.9634   20164637.4654
 -20636877.51944 -16080672.05444  21657617.6574   21657620.0834
 95  2  8  1 14 30.0000000  0  8G19G 4G26G 9G 2G12G 7G27
  10500384.87044                  24981131.4154
  -7729088.25544  -6022662.53044  23745843.4684   23745845.3114
 -14856369.63544 -11576383.40744  22665128.2854   22665128.9984
  -2404514.85844                  24746501.0904
 -22623031.31744 -17628311.77544  21186696.5854   21186698.0444
 -10373260.840 4  -8083051.625 4  23165115.115    23165112.146
 -26052466.96444 -20300602.41144  20164028.7894   20164030.2874
 -20553401.46744 -16015625.80144  21673502.8114   21673504.3934
 95  2  8  1 15  0.0000000  0  8G19G 4G26G 9G 2G12G 7G27
  10603795.61444                  25000809.8354
  -7829457.62444  -6100872.34944  23726743.7614   23726746.9264
 -14844838.70644 -11567398.26844  22667322.6344   22667324.8284
  -2504761.24344  -1951758.91344  24727424.7214
 -22602992.63844 -17612697.21644  21190509.6744   21190511.4554
 -10450591.579 4  -8143309.294 4  23150399.496    23150396.560
 -26055403.09744 -20302890.29644  20163470.2784   20163471.7024
 -20469756.94344 -15950448.27344  21689420.0864   21689422.2134
 95  2  8  1 15 30.0000000  0  8G19G 4G26G 9G 2G12G 7G27
  10707287.25344                  25020503.7274
  -7929803.35744  -6179063.75444  23707648.3574   23707650.2494
 -14832844.02544 -11558051.77644  22669605.1304   22669606.6644
  -2605020.36944  -2029882.79544  24708346.1024   24708349.2614
 -22582817.03944 -17596975.97044  21194348.9914   21194350.6564
 -10527905.993 4  -8203554.236 4  23135686.949    23135684.053
 -26057917.58544 -20304849.62544  20162991.5634   20162992.9844
 -20385763.91944 -15884999.18244  21705403.3974   21705404.4444
 95  2  8  1 16  0.0000000  0  8G19G 4G26G 9G 2G12G 7G27
  10810979.82844                  25040235.4484
  -8030021.09844  -6257155.43744  23688577.6944   23688580.4664
 -14820262.60644 -11548248.07844  22671999.2664   22672000.7934
  -2705146.97344  -2107903.39044  24689292.6644
 -22562383.02544 -17581053.35844  21198237.5144   21198238.8714
 -10605081.695 4  -8263691.092 4  23121000.928    23120997.910
 -26059899.33044 -20306393.82944  20162614.5064   20162615.9824
 -20301303.43744 -15819185.83344  21721475.4914   21721476.4004
 95  2  8  1 16 30.0000000  0  8G19G 4G26G 9G 2G12G 7G27
  10914777.76644                  25059987.8684
  -8130209.89844  -6335224.54344  23669512.1834   23669516.1504
 -14807180.07044 -11538053.90244  22674488.8244   22674491.0134
  -2805233.88644  -2185893.11044  24670246.4414   24670248.7824
 -22541782.75644 -17565001.19944  21202157.6504   21202159.1134
 -10682217.029 4  -8323796.495 4  23106322.526    23106319.498
 -26061457.34544 -20307607.85744  20162318.0154   20162319.6144
 -20216477.71544 -15753087.89444  21737617.3634   21737619.0784
 95  2  8  1 17  0.0000000  0  8G19G 4G26G 9G 2G12G 7G27
  11018623.89244                  25079748.7954
  -8230403.50844  -6413297.40944  23650446.2024   23650447.3784
 -14793626.99144 -11527493.07244  22677067.8554   22677069.2994
  -2905325.46844  -2263886.46544  24651199.8824
 -22521060.59844 -17548854.06144  21206100.8314   21206102.5774
 -10759361.666 4  -8383909.147 4  23091642.245    23091639.318
 -26062632.76744 -20308523.76044  20162094.2514   20162095.8424
 -20131332.37544 -15686740.89144  21753819.8504   21753821.4144
 95  2  8  1 17 30.0000000  0  8G19G 4G26G 9G 2G12G 7G27
  11122752.60544                  25099564.0554
  -8330372.67844  -6491195.36844  23631422.4464   23631425.6664
 -14779370.51044 -11516384.12644  22679780.7484   22679782.2844
  -3005181.01544  -2341695.87244  24632197.9404
 -22499986.52344 -17532432.69844  21210111.0344   21210112.3434
 -10836276.058 4  -8443842.390 4  23077005.843    23077003.014
 -26063168.05544 -20308940.85344  20161992.4064   20161993.9324
 -20045632.37944 -15619961.69244  21770127.9544   21770129.8914
 95  2  8  1 18  0.0000000  0  8G19G 4G26G 9G 2G12G 7G27
  11226973.32244                  25119396.4704
  -8430311.38744  -6569069.59044  23612404.7314   23612407.6614
 -14764617.56844 -11504888.34244  22682588.1814   22682589.3544
  -3104987.91444  -2419467.38644  24613205.0064
 -22478761.05244 -17515893.36644  21214150.1994   21214151.7334
 -10913152.610 4  -8503746.149 4  23062376.729    23062373.848
 -26063254.64144 -20309008.31244  20161976.0174   20161977.4224
 -19959577.55244 -15552906.00844  21786503.6884   21786504.9894
 95  2  8  1 18 30.0000000  0  8G19G 4G26G 9G 2G12G 7G27
  11331368.69044                  25139262.4434
  -8530118.14544  -6646841.02244  23593411.9204   23593414.6104
 -14749293.28744 -11492947.35044  22685504.2584   22685506.0254
  -3204672.25344  -2497143.44444  24594235.6984   24594240.6344
 -22457308.01044 -17499176.70744  21218232.5224   21218234.1764
 -10989910.790 4  -8563557.672 4  23047770.145    23047767.160
 -26062812.65044 -20308663.89344  20162060.0974   20162061.4834
 -19873077.75844 -15485503.59144  21802964.1944   21802966.1414
 95  2  8  1 19  0.0000000  0  8G19G 4G26G 9G 2G12G 7G27
  11435543.67344                  25159086.0344
  -8630172.17644  -6724805.11044  23574372.4194   23574376.3674
 -14733800.79244 -11480875.29144  22688452.4124   22688453.6664
  -3304627.08344  -2575030.21344  24575214.8924   24575213.9184
 -22436038.29144 -17482602.89844  21222279.9184   21222281.3854
 -11066936.352 4  -8623577.548 4  23033112.631    23033109.671
 -26062235.94544 -20308214.50644  20162169.8704   20162171.2564
 -19786514.41244 -15418051.65844  21819436.7324   21819438.2554
 95  2  8  1 19 30.0000000  0  8G19G 4G26G 9G 2G12G 7G27
  11539727.73144                  25178911.6824
  -8730250.12644  -6802787.85644  23555328.0054   23555329.1804
 -14717923.41444 -11468503.32044  22691473.7994   22691475.3394
  -3404635.53944  -2652958.75044  24556183.7374   24556183.9434
 -22414722.09744 -17465992.87144  21226336.3944   21226337.9404
 -11144000.475 4  -8683627.471 4  23018447.736    23018444.790
 -26061310.06044 -20307493.02644  20162346.0744   20162347.4934
 -19699663.29644 -15350375.48544  21835964.1754   21835965.6714
 95  2  8  1 20  0.0000000  0  8G19G 4G26G 9G 2G12G 7G27
  11644251.26744                  25198801.3494
  -8829985.44044  -6880503.58144  23536348.8174   23536351.8054
 -14701307.61144 -11455555.95544  22694635.5144   22694638.1194
  -3504363.10944  -2730669.10444  24537206.0954
 -22392993.64544 -17449061.60944  21230471.1094   21230472.7384
 -11220756.869 4  -8743437.606 4  23003841.368    23003838.531
 -26059697.35944 -20306236.36744  20162652.8644   20162654.2814
 -19612171.73344 -15282200.26244  21852613.1344   21852614.3734
 95  2  8  1 20 30.0000000  0  7G 4G26G 9G 2G12G 7G27
  -8929732.27544  -6958228.30444  23517367.6314   23517369.6424
 -14684307.32744 -11442308.99544  22697870.6104   22697871.5174
  -3604178.92644  -2808447.97244  24518211.7874   24518212.4304
 -22371203.09144 -17432081.95344  21234617.6704   21234619.3694
 -11297567.141 4  -8803289.720 4  22989224.791    22989221.998
 -26057758.09544 -20304725.24544  20163021.6984   20163023.2904
 -19524405.36344 -15213810.90744  21869314.2674   21869316.3154
 95  2  8  1 21  0.0000000  0  8G15G 4G26G 9G 2G12G 7G27
        -0.49754                  24066253.5514
  -9029333.93244  -7035839.90944  23498414.2274   23498415.0384
 -14666750.40544 -11428628.28244  22701211.6984   22701213.0334
  -3703908.00844  -2886158.80644  24499233.7154   24499238.9464
 -22349158.30744 -17414904.19844  21238812.7634   21238814.2384
 -11374256.884 4  -8863047.923 4  22974631.187    22974628.424
 -26055306.97244 -20302815.27144  20163488.4124   20163489.6274
 -19436211.15444 -15145088.17244  21886097.2484   21886098.6584
 95  2  8  1 21 30.0000000  0  8G15G 4G26G 9G 2G12G 7G27
     50123.92744     39057.39644  24075791.6714
  -9128920.91244  -7113440.05944  23479463.2434   23479465.0084
 -14648740.99844 -11414594.98944  22704638.7684   22704639.4524
  -3803654.04644  -2963882.90444  24480252.6324   24480254.2894
 -22326953.10644 -17397601.44144  21243038.2324   21243039.7684
 -11450944.591 4  -8922804.537 4  22960037.980    22960035.227
 -26052442.29044 -20300583.04544  20164033.4604   20164034.8034
 -19347715.92244 -15076130.87044  21902937.2494   21902939.4394
 95  2  8  1 22  0.0000000  0  8G15G 4G26G 9G 2G12G 7G27
    100755.34544     78510.45244  24085426.4714
  -9228447.83544  -7190993.43744  23460523.5884   23460527.4304
 -14630232.71244 -11400172.96244  22708160.7704   22708161.7944
  -3903340.53144  -3041560.55544  24461282.9534   24461284.0484
 -22304546.64444 -17380141.86044  21247302.0564   21247303.3814
 -11527579.105 4  -8982519.704 4  22945454.882    22945452.099
 -26049109.68844 -20297986.20244  20164667.5354   20164668.9274
 -19258885.21144 -15006912.16444  21919841.0634   21919842.7414
 95  2  8  1 22 30.0000000  0  8G15G 4G26G 9G 2G12G 7G27
    151916.70444    118376.49944  24095162.1494
  -9327899.07644  -7268487.82744  23441598.8274   23441603.7314
 -14611206.60644 -11385347.43144  22711781.2204   22711782.6354
  -4002931.39044  -3119163.70044  24442331.3184   24442334.3624
 -22281934.42644 -17362521.94244  21251605.0134   21251606.6054
 -11604134.591 4  -9042173.288 4  22930886.858    22930883.993
 -26045286.77644 -20295007.30144  20165395.0884   20165396.3744
 -19169710.42544 -14937425.34144  21936810.4654   21936812.0514
 95  2  8  1 23  0.0000000  0  8G15G 4G26G 9G 2G12G 7G27
    203600.07144    158649.27444  24104997.0834
  -9427286.35444  -7345932.39844  23422686.1024   23422690.8994
 -14591667.79344 -11370122.38744  22715499.4144   22715499.9934
  -4102426.46144  -3196692.22144  24423397.5824
 -22259139.03444 -17344759.29544  21255942.8744   21255944.2674
 -11680616.195 4  -9101769.299 4  22916332.771    22916330.008
 -26040986.84444 -20291656.69544  20166213.2614   20166214.5454
 -19080200.64744 -14867677.48744  21953843.6664   21953845.5554
 95  2  8  1 23 30.0000000  0  8G15G 4G26G 9G 2G12G 7G27
    255709.15344                  24114912.9014
  -9526690.44244  -7423390.07144  23403770.0264   23403771.5444
 -14571725.02544 -11354582.58444  22719294.4064   22719296.0294
  -4201922.55444  -3274221.51044  24404464.0704   24404468.1634
 -22236270.82244 -17326939.90544  21260294.5704   21260295.9314
 -11757116.816 4  -9161380.133 4  22901775.159    22901772.416
 -26036324.28944 -20288023.52544  20167100.5944   20167101.8974
 -18990443.61544 -14797736.96244  21970923.9334   21970926.1114
 95  2  8  1 24  0.0000000  0  8G15G 4G26G 9G 2G12G 7G27
    308248.80344    240193.83344  24124910.9524
  -9626073.17744  -7500831.13544  23384857.9104   23384859.1224
 -14551389.56144 -11338736.77244  22723164.0264   22723164.7674
  -4301423.20544  -3351754.39144  24385529.8464
 -22213334.78344 -17309067.66144  21264658.9274   21264660.2564
 -11833628.709 4  -9220999.740 4  22887215.391    22887212.669
 -26031317.88944 -20284122.42344  20168053.1024   20168054.5084
 -18900437.33744 -14727602.22744  21988051.4684   21988054.0734
 95  2  8  1 24 30.0000000  0  8G15G 4G26G 9G 2G12G 7G27
    361419.13544                  24135029.0474
  -9725218.34944  -7578087.04444  23365991.2634   23365992.4974
 -14530446.89244 -11322417.82044  22727149.4144   22727151.4034
  -4400742.45244  -3429145.90744  24366630.1134   24366633.2364
 -22190123.68444 -17290981.08644  21269075.9474   21269077.6664
 -11909948.407 4  -9280469.584 4  22872692.174    22872689.430
 -26025767.06344 -20279797.09144  20169109.3944   20169110.9254
 -18809968.30644 -14657106.91044  22005267.3134   22005270.3524
 95  2  8  1 25  0.0000000  0  8G15G 4G26G 9G 2G12G 7G27
    415317.11644                  24145285.4654
  -9824025.52144  -7655079.59644  23347188.7824   23347191.8144
 -14508798.99944 -11305549.34344  22731268.9094   22731269.9144
  -4499776.54444  -3506315.19744  24347784.1454   24347788.5584
 -22166528.77544 -17272595.43844  21273565.9254   21273567.3014
 -11985975.999 4  -9339711.815 4  22858224.585    22858221.896
 -26019574.04644 -20274971.35144  20170287.9584   20170289.2064
 -18718936.21544 -14586172.83444  22022590.2024   22022592.0884
 95  2  8  1 25 30.0000000  0  8G15G 4G26G 9G 2G12G 7G27
    469813.39744                  24155655.7884
  -9922600.56944  -7731891.27544  23328430.5314   23328431.1114
 -14486580.95344 -11288236.58144  22735496.8884   22735499.1274
  -4598650.04844  -3583359.36644  24328969.1254   24328974.6564
 -22142669.69044 -17254003.93844  21278106.1174   21278107.5904
 -12061837.712 4  -9398824.786 4  22843788.544    22843785.851
 -26012860.19344 -20269739.76544  20171565.6454   20171567.0054
 -18627461.07944 -14514893.53744  22039997.3944   22039999.1164
 95  2  8  1 26  0.0000000  0  8G15G 4G26G 9G 2G12G 7G27
    524642.09844                  24166089.3204
 -10021202.82544  -7808724.15044  23309667.2504   23309670.2974
 -14464034.16344 -11270667.67544  22739787.4624   22739788.4394
  -4697616.80344  -3660476.22644  24310136.5104   24310136.8834
 -22118808.06544 -17235410.46044  21282646.7704   21282648.2364
 -12137795.998 4  -9458013.008 4  22829334.064    22829331.390
 -26005874.13644 -20264296.07344  20172894.8614   20172896.1384
 -18535809.07944 -14443476.41144  22057438.2674   22057440.2744
 95  2  8  1 26 30.0000000  0  8G15G 4G26G 9G 2G12G 7G27
    579984.78444                  24176620.4554
 -10119674.66044  -7885455.39044  23290928.6644   23290930.5614
 -14440974.28644 -11252698.95044  22744175.4054   22744176.8794
  -4796493.44544  -3737522.83944  24291320.5374
 -22094756.58944 -17216669.04244  21287223.6654   21287225.0654
 -12213666.065 4  -9517132.484 4  22814896.373    22814893.689
 -25998418.82344 -20258486.72544  20174313.5344   20174314.8714
 -18443793.53044 -14371776.01344  22074948.1214   22074949.8074
 95  2  8  1 27  0.0000000  0  8G15G 4G26G 9G 2G12G 7G27
    635772.93344    495407.70444  24187236.5754
 -10218082.72444  -7962136.94844  23272202.1744   23272204.6094
 -14417483.73044 -11234394.64244  22748645.4514   22748647.3694
  -4895342.83744  -3814548.23344  24272510.3314   24272512.2894
 -22070573.05944 -17197824.72744  21291825.6644   21291826.9454
 -12289513.167 4  -9576234.071 4  22800463.095    22800460.482
 -25990563.23344 -20252365.47644  20175808.4794   20175809.9304
 -18351479.44844 -14299842.98344  22092515.0874   22092516.1444
 95  2  8  1 27 30.0000000  0  8G15G 4G26G 9G 2G12G 7G27
    691888.31144                  24197915.0794
 -10316529.77844  -8038848.89944  23253468.2424   23253470.9594
 -14393677.56044 -11215844.40944  22753175.8014   22753177.5094
  -4994282.17044  -3891643.71644  24253682.6804   24253684.5854
 -22046373.87944 -17178968.21944  21296430.6414   21296432.1924
 -12365452.309 4  -9635407.380 4  22786012.319    22786009.769
 -25982420.48144 -20246020.46044  20177358.0684   20177359.4604
 -18258974.11744 -14227760.92844  22110118.5774   22110119.6344
 95  2  8  1 28  0.0000000  0  8G15G 4G26G 9G 2G12G 7G27
    748568.32144                  24208700.5464
 -10414797.66344  -8115421.22744  23234768.5054   23234770.8024
 -14369315.90344 -11196861.33344  22757811.6594   22757812.9484
  -5093078.22244  -3968627.55944  24234881.9954   24234885.4204
 -22021926.08244 -17159917.97544  21301082.8034   21301084.2544
 -12441242.845 4  -9694464.889 4  22771589.875    22771587.230
 -25973757.90344 -20239270.38544  20179006.5054   20179007.8024
 -18166048.69044 -14155351.53444  22127801.6144   22127803.1094
 95  2  8  1 28 30.0000000  0  8G15G 4G26G 9G 2G12G 7G27
    805963.04144    628023.47444  24219622.6554
 -10512737.49644  -8191737.90744  23216131.0554   23216133.0644
 -14344259.65844 -11177336.92144  22762579.7294   22762580.7284
  -5191583.14444  -4045384.55144  24216137.4524   24216140.3524
 -21997075.26044 -17140553.69544  21305811.8594   21305813.2154
 -12516731.281 4  -9753287.000 4  22757224.854    22757222.194
 -25964442.92844 -20232011.95044  20180778.8914   20180780.2954
 -18072560.74544 -14082503.80844  22145591.5564   22145593.1694
 95  2  8  1 29  0.0000000  0  8G15G 4G26G 9G 2G12G 7G27
    863826.95244                  24230633.5794
 -10610575.84444  -8267975.52744  23197512.9534   23197514.9204
 -14318750.03544 -11157459.31644  22767434.0964   22767435.3464
  -5290029.25844  -4122095.69944  24197403.8584   24197403.2154
 -21972062.43044 -17121063.17044  21310571.5344   21310573.0114
 -12592159.766 4  -9812062.395 4  22742871.269    22742868.583
 -25954732.84344 -20224445.63744  20182626.7594   20182627.9124
 -17978751.52144 -14009405.73544  22163443.1334   22163445.1734
 95  2  8  1 29 30.0000000  0  8G15G 4G26G 9G 2G12G 7G27
    921991.06144                  24241701.5694
 -10708474.58544  -8344260.21744  23178883.3954   23178883.8294
 -14292947.16444 -11137353.20044  22772344.1774   22772344.4484
  -5388574.70744  -4198884.23644  24178650.8004   24178650.9444
 -21947070.25144 -17101588.73544  21315327.3714   21315328.5494
 -12667693.947 4  -9870920.156 4  22728497.510    22728494.901
 -25944794.45644 -20216701.42644  20184517.9614   20184519.2404
 -17884803.05444 -13936199.15044  22181320.8474   22181321.4574
 95  2  8  1 30  0.0000000  0  8G15G 4G26G 9G 2G12G 7G27
    980573.71544    764083.86544  24252849.5604
 -10806321.26444  -8420504.28944  23160263.7894   23160267.3084
 -14266738.42144 -11116930.80444  22777331.5164   22777331.9454
  -5487100.94644  -4275657.85144  24159901.9674   24159905.1894
 -21921974.47444 -17082033.57244  21320102.9614   21320104.3434
 -12743211.885 4  -9929765.263 4  22714126.823    22714124.344
 -25934525.77644 -20208699.84644  20186472.0814   20186473.3714
 -17790616.13444 -13862806.77544  22199243.9144   22199245.5184
 95  2  8  1 30 30.0000000  0  8G15G 4G26G 9G 2G12G 7G27
   1039633.33644                  24264088.3584
 -10904034.21544  -8496644.22744  23141669.6894   23141671.0354
 -14240060.51944 -11096142.85344  22782408.1534   22782410.3434
  -5585536.18544  -4352360.54444  24141170.3274   24141170.7294
 -21896697.08444 -17062336.90044  21324913.1194   21324914.8214
 -12818651.750 4  -9988549.534 4  22699771.120    22699768.570
 -25923867.26344 -20200394.50044  20188500.2254   20188501.6744
 -17696123.91844 -13789176.49644  22217225.1724   22217226.9584
 95  2  8  1 31  0.0000000  0  8G15G 4G26G 9G 2G12G 7G27
   1099216.75844    856533.02044  24275426.7314
 -11001555.44144  -8572634.73744  23123111.9854   23123112.6374
 -14212864.60744 -11074951.23244  22787583.3434   22787585.4894
  -5683821.08644  -4428946.09444  24122467.1444   24122470.1144
 -21871197.80244 -17042467.31744  21329765.3294   21329766.6004
 -12893963.275 4 -10047233.803 4  22685439.781    22685437.214
 -25912755.63644 -20191736.07844  20190614.6234   20190615.9444
 -17601268.33744 -13715263.07544  22235275.5004   22235277.8854
 95  2  8  1 31 30.0000000  0  8G15G 4G26G 9G 2G12G 7G27
   1159342.67744                  24286868.2464
 -11098869.65444  -8648463.92944  23104593.5774   23104595.2384
 -14185141.17844 -11053348.57344  22792858.9654   22792860.6884
  -5781941.48544  -4505403.46344  24103795.3554   24103797.5354
 -21845462.96244 -17022414.18544  21334662.5284   21334664.1644
 -12969124.290 4 -10105800.792 4  22671137.094    22671134.481
 -25901160.04544 -20182700.54344  20192821.3324   20192822.7864
 -17506040.41744 -13641059.52244  22253396.7754   22253399.3414
 95  2  8  1 32  0.0000000  0  8G15G 4G26G 9G 2G12G 7G27
   1219866.82344                  24298385.9294
 -11196118.80744  -8724242.43744  23086087.6344   23086089.7234
 -14157045.94744 -11031456.19244  22798205.2324   22798206.2264
  -5880057.93644  -4581857.72844  24085124.3934   24085127.6024
 -21819621.44544 -17002277.92844  21339579.9494   21339581.5224
 -13044275.366 4 -10164360.036 4  22656836.310    22656833.656
 -25889224.17544 -20173399.85544  20195092.4554   20195093.8074
 -17410573.27044 -13566669.56444  22271563.6664   22271565.8824
 95  2  8  1 32 30.0000000  0  8G15G 4G26G 9G 2G12G 7G27
   1280894.98844                  24309998.7594
 -11293188.91844  -8799881.44644  23067615.7634   23067617.3004
 -14128476.99544 -11009194.67444  22803641.8824   22803643.1814
  -5978058.26944  -4658221.51644  24066475.5234   24066478.4914
 -21793571.68744 -16981979.40644  21344537.2534   21344538.8514
 -13119307.208 4 -10222826.370 4  22642558.188    22642555.554
 -25876822.03144 -20163735.83944  20197452.5394   20197453.9364
 -17314745.42144 -13491998.52644  22289799.0904   22289801.8504
 95  2  8  1 33  0.0000000  0  8G15G 4G26G 9G 2G12G 7G27
   1342317.52844                  24321686.9904
 -11390193.28644  -8875469.21544  23049156.4684   23049157.0224
 -14099561.29144 -10986662.96944  22809144.3464   22809145.9214
  -6076054.57744  -4734582.19744  24047827.5354   24047828.3694
 -21767437.93744 -16961615.43244  21349510.3684   21349511.8384
 -13194325.884 4 -10281282.444 4  22628282.531    22628279.930
 -25864061.12544 -20153792.26444  20199880.9034   20199882.3154
 -17218678.76644 -13417141.41444  22308079.9624   22308082.2334
 95  2  8  1 33 30.0000000  0  8G 2G15G 4G26G 9G12G 7G27
 -21740873.90344 -16940916.17444  21354565.2994   21354566.4724
   1404466.64744   1094390.30444  24333513.6504
 -11486794.99944  -8950743.22544  23030773.8764   23030775.6004
 -14069965.45244 -10963601.27044  22814776.1114   22814778.5354
  -6173724.27644  -4810688.38644  24029241.5084   24029243.7944
 -13268995.387 4 -10339466.429 4  22614073.370    22614070.790
 -25850616.25744 -20143315.73344  20202439.3824   20202440.6464
 -17122043.00944 -13341840.84444  22326469.3604   22326471.0744
 95  2  8  1 34  0.0000000  0  8G 2G15G 4G26G 9G12G 7G27
 -21714199.74344 -16920131.10144  21359641.2204   21359642.6234
   1467019.54444   1143132.86044  24345417.2104
 -11583316.00144  -9025954.34144  23012406.3744   23012407.1314
 -14039990.92144 -10940244.50744  22820480.1414   22820481.9694
  -6271373.20844  -4886778.35344  24010659.3824   24010660.5154
 -13343635.097 4 -10397627.199 4  22599869.842    22599867.286
 -25836813.87244 -20132560.61544  20205065.7884   20205067.1464
 -17025149.28044 -13266339.26644  22344907.5894   22344909.8674
 95  2  8  1 34 30.0000000  0  8G 2G15G 4G26G 9G12G 7G27
 -21687508.58644 -16899332.79044  21364720.3954   21364721.6904
   1529885.06944   1192119.02844  24357379.9374
 -11679850.33844  -9101175.85944  22994036.3764   22994040.1464
 -14009713.39344 -10916651.62844  22826241.7344   22826243.0854
  -6369063.80744  -4962900.82944  23992069.4804   23992070.9064
 -13418332.548 4 -10455832.963 4  22585655.356    22585652.803
 -25822751.45044 -20121602.87144  20207741.8374   20207743.1984
 -16928101.57044 -13190717.69544  22363374.9974   22363376.8144
 95  2  8  1 35  0.0000000  0  8G 2G15G 4G26G 9G12G 7G27
 -21660615.78444 -16878377.34744  21369837.8684   21369839.3324
   1593246.38344                  24369437.2564
 -11776206.14044  -9176258.26344  22975700.4144   22975703.0814
 -13978933.93144 -10892667.64744  22832098.9654   22832100.1374
  -6466609.18444  -5038910.09344  23973507.1804   23973507.4144
 -13492901.011 4 -10513938.217 4  22571465.380    22571462.843
 -25808263.74144 -20110313.73444  20210498.7464   20210500.0624
 -16830729.01044 -13114842.98944  22381904.4184   22381906.1984
 95  2  8  1 35 30.0000000  0  8G 2G15G 4G26G 9G12G 7G27
 -21633443.97944 -16857204.50444  21375008.4804   21375010.0444
   1657170.01044                  24381601.4004
 -11872313.59644  -9251147.14744  22957411.8264   22957412.9274
 -13947569.64744 -10868227.95644  22838067.4174   22838068.8074
  -6563938.26344  -5114750.91144  23954985.9294   23954987.3184
 -13567269.725 4 -10571887.821 4  22557313.494    22557310.931
 -25793275.60944 -20098634.65644  20213350.9024   20213352.2054
 -16732961.67744 -13038660.67644  22400508.8794   22400510.5694
 95  2  8  1 36  0.0000000  0  8G 2G15G 4G26G 9G12G 7G27
 -21605985.99244 -16835808.66144  21380233.5464   21380235.0204
   1721661.19044                  24393873.2534
 -11968161.99844  -9325834.17644  22939172.2104   22939172.8464
 -13915624.95444 -10843335.99044  22844146.1284   22844147.7484
  -6661039.09944  -5190413.81544  23936508.1704   23936511.2884
 -13641429.818 4 -10629674.864 4  22543201.199    22543198.692
 -25777780.40344 -20086560.45344  20216299.3954   20216300.6994
 -16634809.66144 -12962178.60044  22419186.4034   22419189.3824
 95  2  8  1 36 30.0000000  0  8G 2G15G 4G26G 9G12G 7G27
 -21578250.82844 -16814196.83744  21385511.4364   21385512.6264
   1786706.97144                  24406251.4514
 -12063740.08444  -9400310.56444  22920984.4624   22920986.6994
 -13883143.64344 -10818025.88744  22850327.2424   22850328.1064
  -6757928.61444  -5265912.07344  23918070.7954   23918072.4694
 -13715390.600 4 -10687306.598 4  22529126.869    22529124.371
 -25761797.76444 -20074106.43644  20219340.7494   20219341.9254
 -16536304.72144 -12885421.52844  22437931.4584   22437933.5974
 95  2  8  1 37  0.0000000  0  8G 2G15G 4G26G 9G12G 7G27
 -21550521.51344 -16792589.56944  21390787.9874   21390789.5964
   1852026.47044                  24418681.5074
 -12159310.83244  -9474781.25244  22902798.1404   22902799.9324
 -13850422.09544 -10792528.58744  22856554.0264   22856555.5344
  -6854903.29044  -5341476.68444  23899617.0794   23899617.0244
 -13789429.321 4 -10744999.066 4  22515037.762    22515035.287
 -25745598.01944 -20061483.24144  20222423.4684   20222424.7224
 -16437709.32044 -12808593.96244  22456693.7454   22456694.7954
 95  2  8  1 37 30.0000000  0  8G 2G15G 4G26G 9G12G 7G27
 -21522885.79944 -16771055.23744  21396046.9254   21396047.9884
   1917521.05744   1494173.14044  24431143.9664
 -12254971.78344  -9549322.20944  22884594.3604   22884596.5554
 -13817571.56244 -10766930.78744  22862805.2744   22862806.7444
  -6952058.98144  -5417182.40144  23881128.9414   23881130.6564
 -13863640.487 4 -10802825.905 4  22500915.814    22500913.346
 -25729259.86044 -20048752.19144  20225532.3624   20225533.4844
 -16339107.82644 -12731761.64444  22475456.7334   22475458.2054
 95  2  8  1 38  0.0000000  0  8G 2G15G 4G26G 9G12G 7G27
 -21494972.88244 -16749304.90244  21401358.5984   21401359.8524
   1983568.88644   1545639.09544  24443712.9124
 -12350336.28844  -9623632.17944  22866446.9614   22866448.4634
 -13784216.99644 -10740940.21244  22869152.2734   22869153.7684
  -7049013.92644  -5492731.63644  23862678.9424   23862682.7504
 -13937642.146 4 -10860489.493 4  22486833.759    22486831.281
 -25712421.38544 -20035631.28444  20228736.6414   20228738.0414
 -16240112.41944 -12654622.39144  22494295.0984   22494297.8064
 95  2  8  1 38 30.0000000  0  8G 2G15G 4G26G 9G12G 7G27
 -21466826.33844 -16727372.51644  21406714.6524   21406715.7764
   2050132.30144                  24456379.5174
 -12445450.61044  -9697747.18844  22848347.1984   22848346.8864
 -13750386.94444 -10714579.13944  22875589.9584   22875591.7064
  -7145794.18144  -5568144.79144  23844261.9364   23844266.0014
 -14011468.031 4 -10918016.109 4  22472785.107    22472782.642
 -25695114.46344 -20022145.35144  20232030.0694   20232031.2004
 -16140739.47544 -12577188.93644  22513205.1994   22513207.5974
 95  2  8  1 39  0.0000000  0  8G 2G15G 4G26G 9G12G 7G27
 -21438415.89444 -16705234.49744  21412120.9894   21412122.1284
   2117240.95644                  24469149.8074
 -12540302.45544  -9771657.66544  22830297.4974   22830299.0644
 -13716019.40444 -10687799.24344  22882129.9464   22882130.9414
  -7242362.15844  -5643392.49844  23825885.7574   23825887.6334
 -14085085.001 4 -10975379.939 4  22458776.220    22458773.790
 -25677294.94144 -20008259.99344  20235420.9654   20235422.3834
 -16040933.17844 -12499417.81144  22532197.6874   22532199.9174
 95  2  8  1 39 30.0000000  0  8G 2G15G 4G26G 9G12G 7G27
 -21410044.94544 -16683127.25644  21417519.9234   21417521.0574
   2184585.35044   1702275.34844  24481965.1974
 -12635207.11544  -9845609.31144  22812237.6804   22812238.5364
 -13681410.97144 -10660831.66144  22888715.6754   22888718.4884
  -7339006.50644  -5718699.74544  23807494.9694   23807496.4684
 -14158798.575 4 -11032819.046 4  22444748.943    22444746.560
 -25659272.50944 -19994216.52044  20238850.5064   20238851.7844
 -15941017.58744 -12421561.52444  22551210.8844   22551213.1624
 95  2  8  1 40  0.0000000  0  8G 2G15G 4G26G 9G12G 7G27
 -21381465.16944 -16660857.28544  21422958.3494   21422959.7504
   2252413.91244   1755128.77944  24494872.2574
 -12729902.29544  -9919397.70644  22794217.8764   22794219.5664
 -13646310.17044 -10633480.38844  22895395.3494   22895396.1804
  -7435463.42744  -5793860.89044  23789139.7614   23789142.5984
 -14232356.108 4 -11090136.563 4  22430751.383    22430748.978
 -25640812.66644 -19979832.20844  20242363.3254   20242364.6674
 -15840765.47944 -12343443.00844  22570288.2654   22570290.5434
 95  2  8  1 40 30.0000000  0  8G 2G15G 4G26G 9G12G 7G27
 -21352576.75244 -16638346.81744  21428455.6514   21428457.1784
   2320807.68944   1808422.66144  24507887.4784
 -12824296.49744  -9992951.58444  22776255.0574   22776257.2784
 -13610635.19944 -10605681.71244  22902183.7884   22902185.0074
  -7531635.13644  -5868799.81944  23770838.7164   23770839.6284
 -14305672.552 4 -11147266.217 4  22416799.669    22416797.291
 -25621819.33344 -19965032.18844  20245977.7214   20245978.9274
 -15740102.58344 -12265004.40344  22589444.0144   22589444.7424
 95  2  8  1 41  0.0000000  0  8G 2G15G 4G26G 9G12G 7G27
 -21323381.59144 -16615597.32744  21434011.1784   21434012.6754
   2389754.66044   1862147.61444  24521007.3064   24521008.2794
 -12918373.88744 -10066258.58044  22758352.9424   22758354.7274
 -13574403.46744 -10577449.20244  22909078.5394   22909080.2614
  -7627545.47744  -5943535.05044  23752587.7044   23752589.4654
 -14378755.818 4 -11204214.175 4  22402892.332    22402889.970
 -25602306.82344 -19949827.61444  20249690.7934   20249692.0864
 -15639052.45544 -12186264.04744  22608673.1894   22608674.3794
 95  2  8  1 41 30.0000000  0  8G15G 4G26G 9G 2G12G 7G27
   2459313.78544   1916349.53844  24534244.2034
 -13012050.86744 -10139253.58444  22740526.7044   22740528.1554
 -13537583.86144 -10548758.61644  22916085.0654   22916085.3174
  -7723142.31944  -6018026.01444  23734396.0744   23734397.3354
 -21293816.29244 -16592559.41544  21439637.3714   21439638.6034
 -14451543.363 4 -11260931.702 4  22389041.248    22389038.899
 -25582233.27144 -19934185.86644  20253510.5464   20253511.7544
 -15537580.38944 -12107194.91244  22627982.8084   22627984.0114
 95  2  8  1 42  0.0000000  0  8G15G 4G26G 9G 2G12G 7G27
   2529215.08644   1970818.08244  24547545.7574   24547550.5354
 -13105583.72644 -10212136.29244  22722727.9034   22722730.4684
 -13500452.52144 -10519825.11644  22923151.1744   22923152.8084
  -7818701.31744  -6092487.50244  23716211.7904   23716213.3164
 -21264141.04144 -16569435.82644  21445284.3464   21445285.8624
 -14524300.942 4 -11317625.879 4  22375195.952    22375193.603
 -25561871.85344 -19918319.80844  20257385.1544   20257386.5974
 -15435946.59544 -12027999.76144  22647322.8964   22647323.3904
 95  2  8  1 42 30.0000000  0  8G15G 4G26G 9G 2G12G 7G27
   2599359.54844   2025476.13344  24560893.9744   24560895.5214
 -13199080.12044 -10284990.56244  22704936.0414   22704937.4864
 -13463105.23244 -10490723.33544  22930258.0634   22930260.2764
  -7914336.54044  -6167008.35844  23698012.8964   23698014.5584
 -21234459.33944 -16546307.21044  21450932.6044   21450933.8084
 -14597123.120 4 -11374370.392 4  22361338.285    22361335.963
 -25541319.11344 -19902304.66944  20261296.2904   20261297.7144
 -15334224.32444 -11948735.65944  22666680.0264   22666680.3104
 95  2  8  1 43  0.0000000  0  8G15G 4G26G 9G 2G12G 7G27
   2669960.54344   2080489.92944  24574328.7144
 -13292326.79644 -10357650.27144  22687191.8844   22687192.9634
 -13425332.36144 -10461289.94444  22937445.9724   22937447.1424
  -8009842.43744  -6241428.45344  23679838.7004   23679839.1324
 -21204570.01444 -16523016.80944  21456620.1924   21456621.5744
 -14669793.101 4 -11430996.311 4  22347509.569    22347507.306
 -25520375.79944 -19885985.18244  20265281.6804   20265282.8734
 -15232203.17344 -11869238.65444  22686094.1494   22686095.5014
 95  2  8  1 43 30.0000000  0  8G15G 4G26G 9G 2G12G 7G27
   2741105.37644   2135927.48344  24587867.1754   24587867.8054
 -13385247.61544 -10430056.05244  22669509.5574   22669510.6904
 -13387038.29844 -10431450.41544  22944733.1734   22944734.6994
  -8105105.23344  -6315659.10644  23661710.8174   23661712.1164
 -21174375.19944 -16499488.36444  21462366.2024   21462367.8754
 -14742219.360 4 -11487432.316 4  22333727.339    22333725.044
 -25498958.52244 -19869296.37844  20269357.1514   20269358.5424
 -15129794.69744 -11789439.86344  22705581.5844   22705582.4044
 95  2  8  1 44  0.0000000  0  8G15G 4G26G 9G 2G12G 7G27
   2812662.19844   2191686.07244  24601484.0974   24601486.2094
 -13477984.33344 -10502318.39244  22651862.2304   22651862.5604
 -13348334.12744 -10401291.32644  22952098.3744   22952100.3634
  -8200235.05444  -6389786.17244  23643608.1544   23643608.1004
 -21144008.80444 -16475826.22044  21468144.7344   21468146.0374
 -14814529.129 4 -11543777.548 4  22319967.198    22319964.920
 -25477182.82644 -19852328.28544  20273500.8544   20273502.2704
 -15027114.55844 -11709429.36544  22725120.9574   22725121.5814
 95  2  8  1 44 30.0000000  0  8G15G 4G26G 9G 2G12G 7G27
   2884709.57844   2247826.92944  24615194.2364   24615198.4544
 -13570455.39244 -10574373.71044  22634265.4994   22634267.5724
 -13309139.02844 -10370749.69444  22959556.7924   22959558.9094
  -8295137.65844  -6463736.17544  23625548.5824   23625549.7074
 -21113414.12044 -16451986.18644  21473966.7364   21473967.8014
 -14886639.976 4 -11599967.777 4  22306244.928    22306242.590
 -25454958.83344 -19835010.87144  20277730.0334   20277731.3224
 -14924090.89144 -11629151.18844  22744725.6884   22744727.7754
 95  2  8  1 45  0.0000000  0  7G 4G26G 9G 2G12G 7G27
 -13662746.28544 -10646288.65144  22616703.0764   22616704.0594
 -13269556.14644 -10339905.89544  22967089.1124   22967090.3094
  -8389892.59144  -6537571.11744  23607517.4504   23607517.9394
 -21082676.47544 -16428034.75044  21479815.9134   21479817.3104
 -14958647.299 4 -11656077.340 4  22292542.310    22292539.992
 -25432373.64644 -19817412.00644  20282027.9024   20282029.1704
 -14820838.63244 -11548694.88944  22764373.9544   22764374.9484
 95  2  8  1 45 30.0000000  0  8G24G 4G26G 9G 2G12G 7G27
        -0.69654                  25118138.2464
 -13755083.71144 -10718239.84544  22599131.9544   22599133.0274
 -13229810.74544 -10308935.46444  22974652.4464   22974653.6714
  -8484727.10944  -6611468.08744  23589470.8514   23589470.4894
 -21052031.45344 -16404155.49544  21485647.3064   21485648.6314
 -15030786.398 4 -11712289.586 4  22278814.639    22278812.351
 -25409656.08644 -19799709.99444  20286350.8384   20286352.1624
 -14717598.47044 -11468248.00744  22784019.8714   22784021.9004
 95  2  8  1 46  0.0000000  0  8G24G 4G26G 9G 2G12G 7G27
   -105948.48344                  25097977.0894
 -13847253.12444 -10790060.11444  22581592.6024   22581593.9794
 -13189702.91644 -10277682.61744  22982284.6444   22982286.5634
  -8579440.21344  -6685270.42844  23571447.5834   23571449.0314
 -21021283.30044 -16380195.87044  21491498.5404   21491500.1874
 -15102844.770 4 -11768438.926 4  22265102.346    22265100.024
 -25386587.66244 -19781734.57844  20290740.5804   20290741.9444
 -14614161.66544 -11387647.90244  22803703.3674   22803704.1314
 95  2  8  1 46 30.0000000  0  8G24G 4G26G 9G 2G12G 7G27
   -211787.54844                  25077836.5784
 -13938985.17744 -10861539.58044  22564136.4934   22564137.7564
 -13148994.00544 -10245961.39344  22990031.4314   22990033.1174
  -8673806.31944  -6758802.39744  23553490.0314   23553492.0584
 -20990162.05344 -16355945.53044  21497420.6164   21497422.0844
 -15174564.712 4 -11824324.558 4  22251454.469    22251452.177
 -25362935.53544 -19763304.33044  20295241.3554   20295242.7054
 -14510285.76944 -11306705.66044  22823470.3164   22823470.9064
 95  2  8  1 47  0.0000000  0  8G24G 4G26G 9G 2G12G 7G27
   -317702.48344   -247560.18744  25057681.5564
 -14030467.91644 -10932824.78844  22546727.7644   22546729.3294
 -13107875.03144 -10213920.64244  22997856.1534   22997858.2574
  -8768024.24344  -6832218.89944  23535561.0614   23535562.1484
 -20958820.54044 -16331523.55144  21503384.8604   21503386.1674
 -15246129.104 4 -11880088.981 4  22237836.208    22237833.924
 -25338900.59844 -19744575.78844  20299815.1044   20299816.3104
 -14406154.52444 -11225564.44244  22843286.0144   22843287.9994
 95  2  8  1 47 30.0000000  0  8G24G 4G26G 9G 2G12G 7G27
   -423672.24044                  25037516.4044
 -14121682.32544 -11003900.88544  22529370.5284   22529371.9784
 -13066331.72844 -10181549.23744  23005761.6144   23005763.7814
  -8862076.17644  -6905506.07144  23517663.6114   23517664.8504
 -20927240.07144 -16306915.38144  21509394.1024   21509395.5854
 -15317513.534 4 -11935713.175 4  22224252.153    22224249.924
 -25314478.74944 -19725545.75344  20304462.4414   20304463.6344
 -14301739.72844 -11144202.26644  22863155.1914   22863155.8274
 95  2  8  1 48  0.0000000  0  8G24G 4G26G 9G 2G12G 7G27
   -529654.65644   -412717.39244  25017348.3334
 -14212600.85744 -11074746.43344  22512068.9424   22512070.9394
 -13024355.24744 -10148840.30044  23013749.6084   23013751.4484
  -8955928.34044  -6978637.58044  23499804.2304   23499805.7234
 -20895369.26044 -16282080.96044  21515459.0434   21515460.3214
 -15388676.526 4 -11991164.820 4  22210710.223    22210708.030
 -25289638.11544 -19706189.39344  20309189.5134   20309190.5824
 -14196998.83944 -11062585.99044  22883086.7914   22883089.1624
 95  2  8  1 48 30.0000000  0  8G24G 4G26G 9G 2G12G 7G27
   -635748.21244                  24997159.2484
 -14303298.88244 -11145420.15944  22494809.7564   22494810.2364
 -12982022.46844 -10115853.72144  23021805.0694   23021807.6674
  -9049662.60744  -7051677.20044  23481967.0744   23481968.5654
 -20863291.86244 -16257085.56744  21521563.2324   21521564.3814
 -15459703.854 4 -12046510.756 4  22197194.144    22197191.938
 -25264463.10244 -19686572.47544  20313979.9394   20313981.0354
 -14092029.61144 -10980791.79944  22903061.8784   22903063.6784
 95  2  8  1 49  0.0000000  0  8G24G 4G26G 9G 2G12G 7G27
   -741922.62644   -578120.66244  24976954.5914
 -14393737.61244 -11215891.83844  22477599.6664   22477601.1454
 -12939294.16944 -10082558.94044  23029936.0914   23029937.4744
  -9143206.62244  -7124568.56944  23464165.9954   23464166.4864
 -20830986.99344 -16231912.91944  21527710.6604   21527711.7214
 -15530561.392 4 -12101724.387 4  22183710.387    22183708.135
 -25238898.53444 -19666652.01244  20318844.8154   20318846.1204
 -13986798.57044 -10898793.59244  22923086.7184   22923088.7104
 95  2  8  1 49 30.0000000  0  8G24G 4G26G 9G 2G12G 7G27
   -848198.60344   -660932.87344  24956730.9104
 -14483923.85044 -11286166.76244  22460437.9924   22460439.6854
 -12896181.33744 -10048964.53944  23038140.0134   23038141.0244
  -9236563.14044  -7197313.85644  23446400.7994   23446403.8824
 -20798487.05144 -16206588.26644  21533895.0494   21533896.3824
 -15601261.453 4 -12156815.307 4  22170256.546    22170254.347
 -25212951.49844 -19646433.52344  20323782.4114   20323783.5064
 -13881318.94444 -10816601.67644  22943158.8414   22943160.7164
 95  2  8  1 50  0.0000000  0  8G24G 4G26G 9G 2G12G 7G27
   -954648.69544   -743880.76544  24936473.8524
 -14573915.58144 -11356290.12744  22443313.0014   22443313.5444
 -12852740.79444 -10015114.76244  23046406.6384   23046408.5984
  -9329804.33744  -7269969.28044  23428657.6184   23428659.0724
 -20765860.61144 -16181165.04444  21540103.6994   21540104.9264
 -15671867.427 4 -12211832.914 4  22156820.609    22156818.454
 -25186675.74644 -19625958.88744  20328782.4964   20328783.6334
 -13775662.28144 -10734271.80244  22963264.6834   22963266.7974
 95  2  8  1 50 30.0000000  0  8G24G 4G26G 9G 2G12G 7G27
  -1061185.42544   -826896.17344  24916200.4964
 -14663616.12244 -11426186.60444  22426243.5224   22426244.6444
 -12808865.59944  -9980926.29644  23054755.7084   23054757.2174
  -9422835.04144  -7342460.66644  23410954.4454   23410957.3304
 -20733027.48944 -16155580.77144  21546351.6414   21546352.9224
 -15742292.291 4 -12266709.396 4  22143419.182    22143417.043
 -25159992.53244 -19605166.75144  20333860.1674   20333861.3284
 -13669734.21044 -10651730.46344  22983421.8184   22983423.3584
 95  2  8  1 51  0.0000000  0  8G24G 4G26G 9G 2G12G 7G27
  -1167844.73044   -910007.10344  24895903.5574
 -14753074.48044 -11495894.35644  22409219.9964   22409220.5284
 -12764615.38844  -9946445.63244  23063176.3924   23063176.4314
  -9515692.15644  -7414816.80244  23393284.4844   23393284.8564
 -20700016.72044 -16129858.07544  21552633.4134   21552634.6074
 -15812574.446 4 -12321474.674 4  22130044.888    22130042.786
 -25132962.72244 -19584104.54044  20339003.5594   20339004.6614
 -13563555.91944 -10568994.14244  23003626.9284   23003630.1294
 95  2  8  1 51 30.0000000  0  8G24G 4G26G 9G 2G12G 7G27
  -1274562.02044   -993163.21044  24875595.8214
 -14842244.68744 -11565377.57744  22392251.5484   22392252.8124
 -12719944.24344  -9911636.93844  23071677.0584   23071679.1874
  -9608340.48944  -7487010.25344  23375653.7854   23375654.0794
 -20666775.87844 -16103956.09644  21558958.7894   21558960.1614
 -15882658.241 4 -12376085.384 4  22116708.325    22116706.216
 -25105542.41644 -19562738.04444  20344221.4494   20344222.5444
 -13457069.48044 -10486017.69644  23023890.7114   23023892.3784
 95  2  8  1 52  0.0000000  0  8G24G 4G26G 9G 2G12G 7G27
  -1381290.86444  -1076328.33544  24855285.7764
 -14931081.79644 -11634601.24744  22375346.3334   22375348.1384
 -12674820.33444  -9876475.46344  23080263.8674   23080265.0124
  -9700737.38244  -7559007.77044  23358071.1544   23358070.8784
 -20633271.25244 -16077848.57744  21565334.5764   21565335.4574
 -15952509.930 4 -12430515.234 4  22103415.939    22103413.833
 -25077698.89244 -19541041.76944  20349519.7264   20349520.7734
 -13350255.81444 -10402786.27944  23044216.6424   23044219.3424
 95  2  8  1 52 30.0000000  0  8G24G 4G26G 9G 2G12G 7G27
  -1488066.15544  -1159529.63244  24834967.1224
 -15019620.31844 -11703592.24744  22358497.9394   22358498.8184
 -12629294.93144  -9841001.11244  23088926.8264   23088928.7004
  -9792910.34344  -7630830.80644  23340531.1414   23340531.3754
 -20599549.83544 -16051572.12744  21571751.5624   21571752.3184
 -16022174.938 4 -12484799.617 4  22090159.103    22090156.955
 -25049480.34944 -19519053.27044  20354889.5244   20354890.4494
 -13243164.84744 -10319338.76144  23064595.3624   23064597.8684
 95  2  8  1 53  0.0000000  0  8G24G 4G26G 9G 2G12G 7G27
  -1595024.82844  -1242873.82744  24814613.3664
 -15107989.43144 -11772451.25044  22341681.7864   22341683.0384
 -12583518.51744  -9805331.18544  23097637.7754   23097639.2174
  -9885012.55744  -7702598.68544  23323004.7284   23323006.0494
 -20565763.75944 -16025245.29744  21578180.6894   21578182.2274
 -16091792.144 4 -12539046.752 4  22076911.392    22076909.229
 -25021014.85844 -19496872.34644  20360306.4204   20360307.3354
 -13135957.75144 -10235800.75344  23084996.2294   23084997.2384
 95  2  8  1 53 30.0000000  0  8G24G 4G26G 9G 2G12G 7G27
  -1702080.13244                  24794241.0884
 -15196105.68844 -11841113.21044  22324913.7364   22324914.5304
 -12537392.35644  -9769388.72144  23106415.5074   23106416.3144
  -9976966.94844  -7774251.40244  23305506.6604   23305508.2154
 -20531841.45044 -15998812.30944  21584635.9744   21584637.2314
 -16161277.299 4 -12593190.989 4  22063688.778    22063686.576
 -24992218.71744 -19474433.77044  20365786.3454   20365787.1794
 -13028579.17844 -10152129.16644  23105429.8544   23105431.3354
 95  2  8  1 54  0.0000000  0  8G24G 4G26G 9G 2G12G 7G27
  -1809221.04644  -1409779.53044  24773852.7974
 -15283945.43144 -11909559.71344  22308198.3174   22308198.7334
 -12490888.20044  -9733151.73144  23115264.9804   23115265.4484
 -10068748.44244  -7845769.39044  23288040.8874   23288041.8004
 -20497752.76344 -15972249.67444  21591122.8114   21591123.9144
 -16230606.018 4 -12647213.326 4  22050495.904    22050493.720
 -24963083.64644 -19451731.09744  20371330.4554   20371331.4664
 -12921017.92344 -10068315.18644  23125897.9364   23125900.9784
 95  2  8  1 54 30.0000000  0  8G24G 4G26G 9G 2G12G 7G27
  -1916491.56444  -1493366.77744  24753439.7644
 -15371562.85444 -11977832.98244  22291525.3714   22291526.2244
 -12444057.78144  -9696660.48744  23124176.5004   23124177.1874
 -10160409.72444  -7917193.70844  23270598.2044   23270598.7434
 -20463540.95644 -15945591.10944  21597633.0934   21597634.7034
 -16299815.171 4 -12701142.494 4  22037325.788    22037323.658
 -24933667.46944 -19428809.37744  20376928.1884   20376929.2494
 -12813310.82944  -9984387.58044  23146393.9384   23146394.9304
 95  2  8  1 55  0.0000000  0  8G24G 4G26G 9G 2G12G 7G27
  -2023853.69944  -1577025.34544  24733009.3644
 -15458934.96544 -12045915.09944  22274899.0424   22274901.1544
 -12396863.49244  -9659885.72844  23133157.0854   23133158.3674
 -10251913.61744  -7988495.37344  23253185.5924   23253185.9374
 -20429157.46244 -15918798.75844  21604175.9654   21604176.8954
 -16368862.825 4 -12754945.818 4  22024186.414    22024184.320
 -24903944.80044 -19405648.83444  20382584.1674   20382585.2614
 -12705419.26844  -9900316.25044  23166924.9634   23166926.6844
 95  2  8  1 55 30.0000000  0  8G24G 4G26G 9G 2G12G 7G27
  -2131335.26044  -1660777.05944  24712555.8454   24712558.6914
 -15546102.18444 -12113837.55944  22258311.5664   22258312.1814
 -12349334.89344  -9622850.46344  23142201.6134   23142202.8474
 -10343270.39644  -8059682.42844  23235800.8484   23235802.8854
 -20394624.16844 -15891889.67644  21610747.4254   21610748.7054
 -16437776.137 4 -12808644.460 4  22011072.581    22011070.546
 -24873950.55344 -19382276.67244  20388291.8654   20388292.9314
 -12597359.77744  -9816114.02844  23187487.9114   23187490.5094
 95  2  8  1 56  0.0000000  0  8G24G 4G26G 9G 2G12G 7G27
  -2238805.31844  -1744519.77944  24692105.0774   24692111.7384
 -15632921.53044 -12181488.95244  22241790.3794   22241791.6564
 -12301379.62444  -9585482.71944  23151327.1704   23151329.5024
 -10434352.04844  -8130655.08944  23218468.6974   23218470.1254
 -20359823.06544 -15864771.91144  21617369.8904   21617371.3874
 -16506434.562 4 -12862144.490 4  21998007.279    21998005.234
 -24843553.18744 -19358590.39144  20394076.3034   20394077.5944
 -12488999.11644  -9731677.15544  23208108.1674   23208111.1654
 95  2  8  1 56 30.0000000  0  8G24G 4G26G 9G 2G12G 7G27
  -2346130.58344  -1828149.67544  24671681.6004   24671682.0674
 -15719266.52344 -12248770.70644  22225359.4464   22225361.2314
 -12252895.23144  -9547702.68444  23160553.3834   23160554.5324
 -10525033.93244  -8201316.24144  23201212.2624   23201214.5394
 -20324639.20644 -15837355.89244  21624065.1854   21624066.2004
 -16574719.403 4 -12915353.414 4  21985013.055    21985010.982
 -24812620.62444 -19334487.06744  20399962.5474   20399963.4284
 -12380215.94644  -9646911.04944  23228809.1864   23228809.8544
 95  2  8  1 57  0.0000000  0  8G24G 4G26G 9G 2G12G 7G27
  -2453383.20544  -1911722.97944  24651272.0254
 -15805197.17644 -12315729.61644  22209007.3224   22209008.0404
 -12203952.48144  -9509565.47344  23169867.0574   23169869.5864
 -10615377.23344  -8271713.59244  23184020.3634   23184020.8344
 -20289129.73844 -15809686.15344  21630822.3044   21630823.4454
 -16642701.687 4 -12968326.583 4  21972076.404    21972074.353
 -24781208.79044 -19310010.29144  20405939.8814   20405940.9214
 -12271086.68944  -9561875.26444  23249575.9794   23249579.1994
 95  2  8  1 57 30.0000000  0  8G24G 4G26G 9G 2G12G 7G27
  -2560808.35544  -1995430.68144  24630829.4124
 -15890939.84044 -12382542.03044  22192691.0974   22192692.0844
 -12154810.89044  -9471273.34044  23179218.4134   23179219.4504
 -10705627.18944  -8342038.17644  23166846.3724   23166846.7204
 -20253550.53844 -15781962.07644  21637592.8284   21637594.3594
 -16710626.306 4 -13021254.819 4  21959150.778    21959148.707
 -24749555.55244 -19285345.40544  20411963.3894   20411964.3654
 -12161876.10344  -9476776.11244  23270357.9314   23270359.8344
 95  2  8  1 58  0.0000000  0  8G24G 4G26G 9G 2G12G 7G27
  -2668394.93044  -2079264.23844  24610356.2414
 -15976470.44544 -12449189.20644  22176415.0784   22176416.4434
 -12105459.80944  -9432817.94344  23188609.5074   23188611.0984
 -10795764.11344  -8412274.70844  23149693.8984   23149693.6854
 -20217876.94544 -15754164.44844  21644381.3074   21644381.7804
 -16778474.924 4 -13074123.833 4  21946239.576    21946237.506
 -24717647.69844 -19260482.11744  20418035.2754   20418036.5414
 -12052593.15744  -9391620.57044  23291153.8414   23291155.2294
 95  2  8  1 58 30.0000000  0  8G24G 4G26G 9G 2G12G 7G27
  -2775978.22444  -2163095.22844  24589883.8264
 -16061622.69744 -12515541.55844  22160211.1114   22160212.0974
 -12055701.01644  -9394044.87244  23198078.1904   23198079.5414
 -10885603.56944  -8482279.43144  23132598.0554   23132598.5374
 -20181915.48444 -15726142.50044  21651224.5084   21651225.7284
 -16846065.034 4 -13126791.412 4  21933377.542    21933375.520
 -24685321.63344 -19235292.94844  20424186.5574   20424187.5394
 -11943065.64444  -9306274.46144  23311996.1314   23311995.7104
 95  2  8  1 59  0.0000000  0  8G24G 4G26G 9G 2G12G 7G27
  -2883594.51744                  24569404.9044
 -16146433.03944 -12581627.48244  22144072.2424   22144073.2114
 -12005559.60244  -9354973.63844  23207619.7804   23207621.6864
 -10975177.62044  -8552077.35944  23115552.8204   23115554.2584
 -20145698.99044 -15697921.83644  21658116.2894   21658117.4694
 -16913427.486 4 -13179281.595 4  21920558.847    21920556.826
 -24652622.74544 -19209813.26444  20430408.8884   20430410.0204
 -11833331.83344  -9220767.59244  23332877.5114   23332881.9494
 95  2  8  1 59 30.0000000  0  8G24G 4G26G 9G 2G12G 7G27
  -2991232.05244  -2330825.11344  24548922.1614   24548922.7514
 -16230899.62444 -12647445.54544  22127998.5284   22127998.9874
 -11955024.36544  -9315595.53144  23217236.2984   23217237.3544
 -11064481.67344  -8621664.88244  23098558.8954   23098559.9284
 -20109233.21844 -15669506.92344  21665055.3934   21665056.6594
 -16980554.355 4 -13231588.208 4  21907785.035    21907782.985
 -24619553.64444 -19184045.10644  20436701.8384   20436702.7764
 -11723376.96944  -9135088.45944  23353801.3184   23353803.0924
 95  2  8  2  0  0.0000000  0  8G24G 4G26G 9G 2G12G 7G27
  -3098965.42044  -2414773.02344  24528420.9584   24528428.0414
 -16315121.82344 -12713073.17144  22111971.4434   22111973.3954
 -11904167.15444  -9275966.53444  23226914.0934   23226916.2084
 -11153600.32144  -8691107.94644  23081599.8754   23081600.3884
 -20072592.36244 -15640955.58744  21672027.8684   21672029.0714
 -17047527.877 4 -13283775.329 4  21895040.350    21895038.315
 -24586207.78844 -19158061.29244  20443047.2554   20443048.1234
 -11613253.87444  -9049278.27644  23374757.1644   23374757.8484
 95  2  8  2  0 30.0000000  0  7G24G 4G 9G 2G12G 7G27
  -3206710.56844  -2498730.19544  24507917.8504   24507919.4944
 -16399018.42044 -12778447.08844  22096006.6294   22096008.1004
 -11242469.62144  -8760356.71344  23064688.5844   23064688.9084
 -20035713.27444 -15612218.61044  21679045.8454   21679046.9804
 -17114275.007 4 -13335786.042 4  21882338.790    21882336.758
 -24552517.62144 -19131809.18744  20449458.2044   20449459.2824
 -11502873.30044  -8963267.43144  23395762.0064   23395761.2844
 95  2  8  2  1  0.0000000  0  7G24G 4G 9G 2G12G 7G27
  -3314643.05344  -2582833.29644  24487379.0274   24487384.5904
 -16482764.26144 -12843703.52744  22080070.2144   22080071.2444
 -11331279.93744  -8829559.49844  23047788.7764   23047790.1944
 -19998794.25644 -15583450.52744  21686071.1704   21686072.7724
 -17180975.395 4 -13387760.339 4  21869646.209    21869644.063
 -24518649.55944 -19105418.46644  20455903.0094   20455904.1934
 -11392422.03344  -8877201.50144  23416780.0854   23416782.0074
 95  2  8  2  1 30.0000000  0  8G24G 4G 5G 9G 2G12G 7G27
  -3422654.55044  -2666998.01544  24466824.8074   24466825.8594
 -16566241.47744 -12908750.64844  22064185.0814   22064186.1054
        -0.25254                  25328176.7294
 -11419928.47844  -8898636.23444  23030919.3394   23030920.0704
 -19961725.97044 -15554566.13044  21693125.0204   21693126.4414
 -17247522.528 4 -13439615.208 4  21856982.603    21856980.516
 -24484499.63644 -19078808.10944  20462401.4474   20462402.6864
 -11281807.27144  -8791008.18044  23437829.2994   23437832.3534
 95  2  8  2  2  0.0000000  0  8G24G 4G 5G 9G 2G12G 7G27
  -3530522.06744  -2751050.52744  24446298.1934   24446303.7434
 -16649209.35944 -12973400.89944  22048396.7444   22048397.2434
    -77905.85244    -60705.16144  25313351.1494
 -11508191.06544  -8967412.22944  23014123.5334   23014125.1414
 -19924280.11844 -15525387.52444  21700250.7204   21700251.9604
 -17313691.350 4 -13491175.292 4  21844391.001    21844389.034
 -24449846.32344 -19051805.50444  20468995.7034   20468996.7704
 -11170816.35744  -8704521.75644  23458950.2994   23458953.3684
 95  2  8  2  2 30.0000000  0  8G24G 4G 5G 9G 2G12G 7G27
  -3638265.15844  -2835006.06144  24425795.2554   24425801.2234
 -16731667.46144 -13037653.90444  22032705.3674   22032706.2354
   -155675.76544                  25298552.3994
 -11596076.57544  -9035894.39244  22997399.2434   22997399.6004
 -19886474.84844 -15495928.84644  21707444.8824   21707445.6894
 -17379491.706 4 -13542448.258 4  21831869.542    21831867.588
 -24414697.11644 -19024416.48744  20475684.4944   20475685.6044
 -11059493.31644  -8617776.56744  23480134.2754   23480135.1204
 95  2  8  2  3  0.0000000  0  8G24G 4G 5G 9G 2G12G 7G27
  -3746115.49344  -2919045.17444  24405271.9644   24405275.8694
 -16813862.37144 -13101701.83844  22017064.1774   22017065.3634
   -233562.06544                  25283730.8844
 -11683812.10044  -9104259.69044  22980703.8994   22980704.9574
 -19848540.37344 -15466369.50244  21714663.5674   21714665.0684
 -17445155.757 4 -13593615.020 4  21819374.135    21819372.110
 -24379286.43144 -18996823.72944  20482423.0344   20482423.8204
 -10948082.80544  -8530963.16744  23501335.0964   23501334.7484
 95  2  8  2  3 30.0000000  0  8G24G 4G 5G 9G 2G12G 7G27
  -3854176.01044  -3003248.11944  24384708.6244   24384710.2074
 -16895903.50444 -13165629.94044  22001452.1414   22001452.9474
   -311676.54244                  25268866.1604
 -11771492.83944  -9172582.30044  22964018.6964   22964019.5484
 -19810579.76244 -15436789.78744  21721887.1024   21721888.5074
 -17510797.474 4 -13644764.371 4  21806882.953    21806880.813
 -24343743.38244 -18969127.82744  20489186.6254   20489187.7764
 -10836691.09344  -8444164.43544  23522532.2564   23522534.4784
 95  2  8  2  4  0.0000000  0  8G24G 4G 5G 9G 2G12G 7G27
  -3962267.03244  -3087474.81344  24364139.4804   24364144.9824
 -16977618.88244 -13229304.20844  21985902.2404   21985903.3104
   -389849.49344                  25253990.4274
 -11858925.17144  -9240711.34344  22947380.7714   22947382.4504
 -19772420.68244 -15407055.41744  21729148.5844   21729149.7394
 -17576234.729 4 -13695754.409 4  21794430.624    21794428.520
 -24307880.04744 -18941182.35044  20496011.2494   20496012.3594
 -10725129.27744  -8357233.14044  23543761.6714   23543762.9364
 95  2  8  2  4 30.0000000  0  8G24G 4G 5G 9G 2G12G 7G27
  -4070343.06044  -3171689.80544  24343573.3514   24343575.4244
 -17058986.40944 -13292707.42344  21970418.4774   21970419.3734
   -468052.58444                  25239108.7164
 -11946074.04644  -9308619.50444  22930796.8194   22930798.2304
 -19734034.20444 -15377143.86044  21736453.1304   21736454.7574
 -17641435.050 4 -13746559.820 4  21782023.419    21782021.264
 -24271670.62844 -18912967.19844  20502901.4354   20502902.8214
 -10613376.27444  -8270152.87844  23565027.6034   23565029.1454
 95  2  8  2  5  0.0000000  0  8G24G 4G 5G 9G 2G12G 7G27
  -4178279.66944  -3255796.13844  24323033.5384
 -17139879.81344 -13355741.19844  21955024.8024   21955025.9204
   -546173.92644                  25224242.1604
 -12032835.38744  -9376225.71744  22914286.7484   22914287.9024
 -19695306.55844 -15346966.46044  21743822.9184   21743823.8164
 -17706286.477 4 -13797093.369 4  21769682.613    21769680.418
 -24235017.81744 -18884406.54844  20509876.4144   20509877.5414
 -10501308.56844  -8182827.40644  23586353.3094   23586353.3364
 95  2  8  2  5 30.0000000  0  8G24G 4G 5G 9G 2G12G 7G27
  -4286020.58844  -3339750.03844  24302531.1594   24302534.4564
 -17220225.41244 -13418348.10844  21939735.5754   21939737.1174
   -624146.39644   -486345.72944  25209404.3144
 -12119149.21844  -9443483.19444  22897861.9524   22897863.2244
 -19656180.97744 -15316478.97044  21751268.2184   21751269.8924
 -17770726.241 4 -13847306.135 4  21757420.071    21757417.893
 -24197871.68344 -18855461.48844  20516944.9614   20516946.1554
 -10388874.66344  -8095216.53744  23607748.7504   23607753.5714
 95  2  8  2  6  0.0000000  0  8G24G 4G 5G 9G 2G12G 7G27
  -4393783.68144  -3423721.21044  24282024.4884   24282027.4064
 -17300244.91944 -13480700.91744  21924508.4024   21924508.9804
   -702182.48444                  25194554.3324
 -12205246.72744  -9510572.12144  22881477.9744   22881478.9864
 -19616884.01244 -15285857.94444  21758746.2304   21758747.5224
 -17834973.205 4 -13897368.675 4  21745194.267    21745192.115
 -24160457.27744 -18826307.38744  20524064.8424   20524066.0384
 -10276306.94044  -8007501.46644  23629169.7124   23629172.8814
 95  2  8  2  6 30.0000000  0  8G24G 4G 5G 9G 2G12G 7G27
  -4501796.83144  -3507887.19244  24261470.3454   24261475.5734
 -17380155.13744 -13542968.56944  21909301.8654   21909303.1124
   -780505.25444                  25179649.5924
 -12291362.23944  -9577675.07744  22865090.4314   22865092.0824
 -19577639.23644 -15255277.58044  21766214.1594   21766215.0424
 -17899252.841 4 -13947456.668 4  21732962.209    21732960.086
 -24123017.10944 -18797133.20944  20531189.3694   20531190.5314
 -10163834.41344  -7919860.52044  23650572.4244   23650573.0874
 95  2  8  2  7  0.0000000  0  8G24G 4G 5G 9G 2G12G 7G27
  -4609673.63344  -3591946.91444  24240941.6604
 -17459542.31644 -13604828.65544  21894194.8244   21894195.8984
   -858710.34544                  25164768.0214
 -12377084.33744  -9644471.47344  22848778.0344   22848779.1484
 -19538035.47844 -15224417.49444  21773750.5524   21773751.3854
 -17963153.720 4 -13997249.528 4  21720802.215    21720800.120
 -24085139.21844 -18767617.94944  20538397.1794   20538398.4664
 -10051040.10944  -7831968.82744  23672036.5434   23672039.7084
 95  2  8  2  7 30.0000000  0  8G24G 4G 5G 9G 2G12G 7G27
  -4717556.83344  -3676011.66944  24220412.0504
 -17538556.27844 -13666397.91744  21879158.9814   21879159.7844
   -936932.10244                  25149882.8704
 -12462530.91944  -9711053.17944  22832518.0654   22832518.7254
 -19498201.96244 -15193378.36844  21781330.4314   21781331.8344
 -18026804.027 4 -14046847.138 4  21708689.905    21708687.829
 -24046940.45844 -18737852.66444  20545666.0414   20545667.0234
  -9938061.05144  -7743933.21644  23693535.8134   23693535.7804
 95  2  8  2  8  0.0000000  0  8G24G 4G 5G 9G 2G12G 7G27
  -4825528.77744  -3760145.55544  24199865.8594   24199869.7124
 -17617267.47644 -13727731.27544  21864180.8914   21864181.5514
  -1015252.29944   -791101.47544  25134978.8784   25134980.9304
 -12547781.09144  -9777481.83044  22816295.5244   22816296.6184
 -19458205.14144 -15162212.00044  21788941.6734   21788943.1404
 -18090274.330 4 -14096304.485 4  21696611.872    21696609.859
 -24008487.22944 -18707889.09044  20552983.6194   20552984.7244
  -9824956.76444  -7655800.00544  23715058.7594   23715061.6274
 95  2  8  2  8 30.0000000  0  8G24G 4G 5G 9G 2G12G 7G27
  -4933642.13444  -3844389.63944  24179292.5234   24179292.9494
 -17695732.15244 -13788872.51944  21849249.4674   21849250.2124
  -1093726.17744   -852249.59444  25120045.4094   25120047.5114
 -12632889.47844  -9843800.00744  22800099.9444   22800101.0604
 -19418089.30944 -15130952.89044  21796575.4094   21796576.8304
 -18153612.975 4 -14145659.242 4  21684558.882    21684556.895
 -23969824.59844 -18677762.34244  20560340.8764   20560342.0694
  -9711784.12344  -7567613.52844  23736594.7364   23736595.0964
 95  2  8  2  9  0.0000000  0  8G24G 4G 5G 9G 2G12G 7G27
  -5041772.17144  -3928646.72344  24158715.9344   24158717.3714
 -17773841.22944 -13849736.67744  21834385.8144   21834387.0684
  -1172244.09944                  25105104.0954
 -12717746.58744  -9909922.37344  22783952.3294   22783952.9844
 -19377746.99244 -15099517.31144  21804252.1284   21804253.6134
 -18216704.511 4 -14194821.447 4  21672552.948    21672550.975
 -23930828.16344 -18647375.49244  20567761.6984   20567762.7684
  -9598439.34244  -7479292.91044  23758163.7474   23758166.6564
 95  2  8  2  9 30.0000000  0  8G24G 4G 5G 9G 2G12G 7G27
  -5149811.73344  -4012833.29344  24138156.7094   24138161.3134
 -17851521.30544 -13910266.55344  21819603.7794   21819604.6114
  -1250726.72744                  25090169.0824
 -12802267.94344  -9975783.12944  22767868.2974   22767869.4224
 -19337105.59444 -15067848.66944  21811986.2564   21811987.2564
 -18279466.080 4 -14243726.533 4  21660609.748    21660607.813
 -23891423.09544 -18616670.22344  20575260.1704   20575261.1184
  -9484850.90044  -7390782.42244  23779778.9534   23779783.0594
 95  2  8  2 10  0.0000000  0  8G24G 4G 5G 9G 2G12G 7G27
  -5257777.45344  -4096962.35044  24117611.5204   24117614.1534
 -17928797.18544 -13970481.46044  21804898.4354   21804899.5494
  -1329193.71244                  25075236.9784
 -12886479.82044 -10041402.72244  22751843.3104   22751843.6734
 -19296210.91844 -15035982.67044  21819767.9794   21819768.9644
 -18341928.213 4 -14292398.293 4  21648723.585    21648721.613
 -23851648.76744 -18585677.21944  20582828.9104   20582829.8684
  -9371057.13344  -7302111.94344  23801432.9584   23801437.0874
 95  2  8  2 10 30.0000000  0  8G24G 4G 5G 9G 2G12G 7G27
  -5365768.60144  -4181111.19644  24097061.1934
 -18005803.42444 -14030486.27444  21790244.6974   21790245.5534
  -1407768.27044                  25060285.0774
 -12970496.41944 -10106870.14544  22735855.3974   22735855.9464
 -19255192.66244 -15004020.38944  21827573.4984   21827574.4264
 -18404218.014 4 -14340935.771 4  21636870.191    21636868.239
 -23811630.03844 -18554493.77344  20590444.1064   20590445.2224
  -9257200.66944  -7213392.66544  23823099.1344   23823098.8734
 95  2  8  2 11  0.0000000  0  8G24G 4G 5G 9G 2G12G 7G27
  -5473874.89444  -4265349.79344  24076489.2424   24076495.7714
 -18082611.09144 -14090336.34844  21775628.5674   21775629.8664
  -1486539.88444                  25045294.7014
 -13054385.75444 -10172238.41744  22719891.8444   22719893.2644
 -19214140.09944 -14972031.36044  21835385.9254   21835386.6154
 -18466418.276 4 -14389403.477 4  21625033.951    21625031.906
 -23771472.80944 -18523202.40644  20598085.8804   20598087.0224
  -9143360.10244  -7124685.71144  23844762.3074   23844765.6754
 95  2  8  2 11 30.0000000  0  8G24G 4G 5G 9G 2G12G 7G27
  -5581940.39244  -4349556.57944  24055925.0024   24055930.0984
 -18159040.78344 -14149891.89944  21761084.5024   21761085.8714
  -1565338.18044  -1219738.89244  25030299.8814
 -13137967.01444 -10237366.61944  22703986.6604   22703987.7414
 -19172869.71244 -14939872.60344  21843238.9644   21843240.4934
 -18528363.693 4 -14437672.603 4  21613246.121    21613244.055
 -23731032.12544 -18491690.16544  20605781.3984   20605782.6764
  -9029368.37644  -7035860.96144  23866454.2894   23866456.0684
 95  2  8  2 12  0.0000000  0  8G24G 4G 5G 9G 2G12G 7G27
  -5689783.98944  -4433590.46044  24035403.1134   24035405.3154
 -18234894.59944 -14208998.71344  21746649.9264   21746650.7004
  -1643980.41744                  25015334.8714
 -13221051.97844 -10302108.10544  22688176.1294   22688177.1104
 -19131177.82144 -14907385.41144  21851172.9514   21851173.8434
 -18589865.237 4 -14485595.853 4  21601542.688    21601540.677
 -23690128.48444 -18459817.18044  20613565.1524   20613566.2704
  -8915042.71044  -6946776.04044  23888209.6684   23888210.5824
 95  2  8  2 12 30.0000000  0  8G24G 4G 5G 9G 2G12G 7G27
  -5797391.66044  -4517440.51844  24014926.0804   24014925.7704
 -18310143.93844 -14267634.51144  21732330.5364   21732331.3024
  -1722464.00644  -1342174.31144  25000399.9194
 -13303623.56344 -10366449.54944  22672463.2924   22672463.7024
 -19089033.70344 -14874545.81844  21859192.4394   21859193.5864
 -18650904.711 4 -14533159.051 4  21589927.169    21589925.219
 -23648755.48444 -18427578.45844  20621438.1654   20621439.0164
  -8800351.85144  -6857406.54744  23910034.5234   23910035.9494
 95  2  8  2 13  0.0000000  0  8G24G 4G 5G 9G 2G12G 7G27
  -5904789.73544  -4601127.22144  23994488.7184   23994491.3774
 -18384781.81144 -14325793.84544  21718127.3794   21718128.1524
  -1800793.13944  -1403209.79644  24985494.1204
 -13385691.01744 -10430398.16444  22656846.3564   22656846.6614
 -19046451.26444 -14841364.68944  21867295.5554   21867296.5844
 -18711488.877 4 -14580367.463 4  21578398.342    21578396.433
 -23606933.25844 -18394989.69244  20629396.5834   20629397.8674
  -8685299.86444  -6767755.66844  23931927.9884   23931930.5304
 95  2  8  2 13 30.0000000  0  8G24G 4G 5G 9G 2G12G 7G27
  -6012483.18444  -4685044.09644  23973994.8044   23973996.4404
 -18459327.77044 -14383881.54844  21703941.8064   21703942.9214
  -1879481.43244                  24970520.0374
 -13467765.32844 -10494352.12444  22641228.0404   22641228.4844
 -19003944.49244 -14808242.50944  21875384.7044   21875385.8434
 -18772128.961 4 -14627619.448 4  21566858.899    21566856.979
 -23565144.36444 -18362426.89944  20637348.7584   20637349.7054
  -8570412.56044  -6678233.09544  23953790.4824   23953793.5014
 95  2  8  2 14  0.0000000  0  8G24G 4G 5G 9G 2G12G 7G27
  -6120355.03544  -4769099.97944  23953467.8924   23953470.3564
 -18533668.05744 -14441808.99844  21689795.2554   21689795.8754
  -1958416.17944  -1526032.72844  24955499.0374
 -13549731.00444 -10558221.43144  22625630.3754   22625630.8904
 -18961426.68344 -14775111.74844  21883475.1394   21883476.5744
 -18832709.570 4 -14674825.089 4  21555330.707    21555328.864
 -23523261.38244 -18329790.79344  20645318.7944   20645319.6334
  -8455572.35544  -6588747.20744  23975643.9084   23975645.7384
 95  2  8  2 14 30.0000000  0  8G24G 4G 5G 9G 2G12G 7G27
  -6228126.92344  -4853077.99044  23932959.5744   23932959.5144
 -18607511.50544 -14499349.29644  21675743.1424   21675743.5654
  -2037308.86344  -1587507.36044  24940486.2914
 -13631295.56244 -10621778.19544  22610109.1124   22610109.5754
 -18918627.78044 -14741761.93944  21891619.6184   21891620.6564
 -18892947.114 4 -14721763.412 4  21543867.835    21543866.064
 -23480989.39644 -18296851.56944  20653362.9634   20653363.7324
  -8340500.25944  -6499080.64944  23997541.3354   23997544.2824
 95  2  8  2 15  0.0000000  0  8G24G 4G 5G 9G 2G12G 7G27
  -6336063.83644  -4937184.60344  23912419.5894   23912421.8444
 -18681126.63244 -14556711.69544  21661734.7204   21661735.4964
  -2116425.84444                  24925430.4184
 -13712726.79044 -10685231.05744  22594613.2744   22594614.0304
 -18875809.59144 -14708397.09544  21899767.8934   21899768.8744
 -18953100.933 4 -14768636.492 4  21532420.965    21532419.182
 -23438577.63144 -18263803.42544  20661433.7094   20661434.5794
  -8225488.42344  -6409461.04144  24019427.3774   24019427.8154
 95  2  8  2 15 30.0000000  0  8G24G 4G 5G 9G 2G12G 7G27
  -6443967.22844  -5021265.06844  23891886.3274   23891887.9774
 -18754320.93044 -14613746.16144  21647806.2844   21647807.2534
  -2195582.14444  -1710836.95044  24910367.7894   24910371.4134
 -13793829.83944 -10748428.19544  22579179.8804   22579180.0364
 -18832770.01444 -14674859.76344  21907957.8524   21907959.0104
 -19012975.189 4 -14815291.732 4  21521027.301    21521025.434
 -23395835.34044 -18230497.73144  20669567.1594   20669568.0974
  -8110346.95644  -6319740.42044  24041338.0594   24041340.2874
 95  2  8  2 16  0.0000000  0  8G24G 4G 5G 9G 2G12G 7G27
  -6551773.66844  -5105270.00544  23871371.1624   23871374.1064
 -18827029.41044 -14670402.07444  21633970.2604   21633970.8234
  -2274718.48944                  24895308.3214
 -13874565.09044 -10811338.74244  22563816.4374   22563816.7584
 -18789445.72444 -14641100.56444  21916202.2624   21916203.0134
 -19072511.723 4 -14861683.813 4  21509697.852    21509695.941
 -23352737.47944 -18196914.96644  20677768.3024   20677769.1924
  -7995018.08644  -6229873.76944  24063284.4064   24063284.1124
 95  2  8  2 16 30.0000000  0  8G24G 4G 5G 9G 2G12G 7G27
  -6659401.99044  -5189136.12344  23850890.1604   23850890.8334
 -18899194.85644 -14726634.85144  21620237.4814   21620238.4644
  -2353769.61244                  24880265.6234
 -13954885.04044 -10873925.68244  22548532.1904   22548532.6734
 -18745746.51644 -14607049.20844  21924517.9414   21924518.9334
 -19131642.869 4 -14907760.010 4  21498445.512    21498443.644
 -23309218.99944 -18163004.45044  20686049.7294   20686050.5854
  -7879449.21244  -6139820.11944  24085276.6284   24085276.5214
 95  2  8  2 17  0.0000000  0  8G24G 4G 5G 9G 2G12G 7G27
  -6767182.45344  -5273120.83944  23830380.2774   23830384.2924
 -18971161.75544 -14782712.90444  21606542.5744   21606543.8354
  -2433080.64444  -1895900.38944  24865172.9314
 -14035151.92944 -10936471.28044  22533257.6984   22533258.9634
 -18702018.19044 -14572975.17844  21932839.1744   21932840.1634
 -19190712.270 4 -14953788.096 4  21487204.939    21487203.125
 -23265642.57444 -18129048.78144  20694342.0224   20694342.9314
  -7763980.66044  -6049844.58544  24107249.5544   24107252.6284
 95  2  8  2 17 30.0000000  0  8G24G 4G 5G 9G 2G12G 7G27
  -6874825.82244  -5356998.69244  23809896.3034   23809897.3544
 -19042648.63744 -14838416.93144  21592939.0214   21592939.5864
  -2512370.64444                  24850084.7014
 -14115086.62544 -10998758.01944  22518046.7154   22518047.7874
 -18657999.81944 -14538675.14544  21941215.5304   21941216.7874
 -19249446.196 4 -14999554.773 4  21476028.246    21476026.432
 -23221753.77244 -18094849.70044  20702693.6644   20702694.8474
  -7648333.72444  -5959730.14444  24129256.2444   24129259.7604
 95  2  8  2 18  0.0000000  0  8G24G 4G 5G 9G 2G12G 7G27
  -6982289.83244  -5440736.81144  23789446.3354   23789448.1914
 -19113634.01844 -14893730.17644  21579431.0164   21579431.7684
  -2591608.77544  -2019428.25344  24835005.8774   24835003.5674
 -14194660.57044 -11060763.64944  22502904.2744   22502904.7934
 -18613671.99944 -14504133.96444  21949650.9074   21949652.0334
 -19307817.669 4 -15045039.017 4  21464920.500    21464918.634
 -23177528.19844 -18060388.20144  20711109.3214   20711110.3024
  -7532492.01244  -5869463.85244  24151300.1974   24151303.4074
 95  2  8  2 18 30.0000000  0  8G24G 4G 5G 9G 2G12G 7G27
  -7089364.53544  -5524171.54344  23769070.8094   23769076.8664
 -19183895.34244 -14948479.21744  21566060.5174   21566060.8654
  -2670576.08044  -2080961.89944  24819978.8874   24819979.4354
 -14273631.12444 -11122299.10944  22487876.5664   22487876.8214
 -18568822.37544 -14469186.13344  21958185.1794   21958185.7654
 -19365603.911 4 -15090067.237 4  21453924.052    21453922.205
 -23132745.98144 -18025492.95244  20719631.1674   20719631.9724
  -7416229.69244  -5778869.83844  24173424.1024   24173427.3124
 95  2  8  2 19  0.0000000  0  8G24G 4G 5G 9G 2G12G 7G27
  -7196446.44544  -5607611.91244  23748693.6614   23748697.4194
 -19253802.06644 -15002951.95044  21552757.8594   21552758.3614
  -2749659.85744  -2142586.16544  24804929.5414
 -14352363.12844 -11183648.68644  22472894.4014   22472894.5694
 -18523845.45144 -14434138.20744  21966744.1234   21966745.1414
 -19423181.384 4 -15134932.783 4  21442967.409    21442965.590
 -23087802.73644 -17990472.23344  20728183.7884   20728184.8924
  -7299923.37444  -5688241.57144  24195556.4344   24195559.3294
 95  2  8  2 19 30.0000000  0  8G24G 4G 5G 9G 2G12G 7G27
  -7303751.24544  -5691225.98044  23728274.2524   23728276.4534
 -19323568.71444 -15057315.52844  21539481.5674   21539482.2924
  -2829055.96444                  24789820.9864
 -14431041.61944 -11244956.56644  22457922.1654   22457922.8124
 -18478934.59844 -14399142.49044  21975290.5374   21975291.4174
 -19480752.901 4 -15179793.688 4  21432011.892    21432010.081
 -23042892.50444 -17955477.23044  20736729.8004   20736730.7824
  -7183786.38944  -5597745.19044  24217656.7224   24217659.8224
 95  2  8  2 20  0.0000000  0  8G24G 4G 5G 9G 2G12G 7G27
  -7410950.25344  -5774757.54644  23707874.9304   23707876.7994
 -19392860.47944 -15111309.07344  21526295.8154   21526296.2854
  -2908411.72944  -2266288.68544  24774720.2124
 -14509324.30044 -11305956.02344  22443025.6254   22443025.8734
 -18433737.49344 -14363925.37344  21983891.0604   21983892.0204
 -19537976.959 4 -15224383.846 4  21421122.498    21421120.686
 -22997660.76044 -17920231.69444  20745337.0214   20745338.0284
  -7067467.85144  -5507107.38444  24239791.4294   24239794.5094
 95  2  8  2 20 30.0000000  0  8G24G 4G 5G 9G 2G12G 7G27
  -7518048.66144  -5858210.75844  23687494.6874   23687497.5024
 -19461684.12044 -15164937.84444  21513199.0424   21513199.5074
  -2987730.53444  -2328095.42444  24759626.1424
 -14587222.30944 -11366655.73144  22428202.0644   22428201.9794
 -18388264.02444 -14328491.46644  21992544.4354   21992545.0034
 -19594857.816 4 -15268706.576 4  21410298.439    21410296.633
 -22952102.65644 -17884731.86044  20754006.6224   20754007.3714
  -6950969.75344  -5416329.66344  24261960.1534   24261962.2144
 95  2  8  2 21  0.0000000  0  8G24G 4G 5G 9G 2G12G 7G27
  -7625109.98144  -5941635.06244  23667121.4034   23667124.6294
 -19530133.41344 -15218274.91644  21500173.6434   21500174.2894
  -3067102.21244  -2389943.38844  24744522.1314
 -14664830.32544 -11427129.47544  22413433.4434   22413434.1474
 -18342603.61944 -14292911.90844  22001233.2284   22001234.7934
 -19651482.773 4 -15312829.901 4  21399523.028    21399521.264
 -22906297.03944 -17849039.15944  20762723.0304   20762723.9354
  -6834399.63844  -5325495.78544  24284142.8904   24284146.4114
 95  2  8  2 21 30.0000000  0  8G24G 4G 5G 9G 2G12G 7G27
  -7732075.48944  -6024984.69944  23646766.6484   23646769.8444
 -19598167.23644 -15271288.24944  21487227.2004   21487227.7554
  -3146477.46244  -2451794.15944  24729417.3724
 -14742099.86844 -11487339.48044  22398729.7744   22398730.8284
 -18296707.59844 -14257148.77144  22009967.3474   22009967.9284
 -19707806.821 4 -15356718.757 4  21388804.973    21388803.170
 -22860193.07944 -17813113.98344  20771496.4054   20771497.0754
  -6717719.22444  -5234575.96744  24306346.3484   24306350.7764
 95  2  8  2 22  0.0000000  0  8G24G 4G 5G 9G 2G12G 7G27
  -7839031.99244  -6108327.34644  23626413.5324   23626415.7744
 -19665871.15444 -15324044.51644  21474343.6074   21474344.1744
  -3225972.44044  -2513738.18544  24714289.9764   24714289.2174
 -14819129.88544 -11547362.82944  22384071.5524   22384072.8434
 -18250686.20744 -14221287.94244  22018724.5154   22018725.2234
 -19763920.404 4 -15400443.610 4  21378126.859    21378125.117
 -22813899.82144 -17777041.30144  20780305.6444   20780306.4784
  -6601024.06744  -5143644.69844  24328552.7594   24328554.8644
 95  2  8  2 22 30.0000000  0  8G24G 4G 5G 9G 2G12G 7G27
  -7945859.61244  -6191569.57544  23606084.6484   23606086.8594
 -19733122.15144 -15376447.85744  21461546.0814   21461546.9584
  -3305505.67544  -2575712.05244  24699155.2804   24699158.4504
 -14895799.62144 -11607105.45544  22369481.7184   22369481.9964
 -18204430.98844 -14185244.90944  22027526.8094   22027528.1674
 -19819705.603 4 -15443912.582 4  21367511.280    21367509.502
 -22767321.62044 -17740746.58944  20789169.2144   20789169.9404
  -6484222.55744  -5052630.52744  24350779.2994   24350781.2094
 95  2  8  2 23  0.0000000  0  8G24G 4G 5G 9G 2G12G 7G27
  -8052460.27444  -6274634.91444  23585798.9984   23585802.2054
 -19799783.76144 -15428391.93644  21448860.7504   21448861.2534
  -3384962.97744  -2637626.79044  24684035.1164   24684035.4964
 -14971976.06744 -11666463.69744  22354985.6524   22354986.1434
 -18157811.41444 -14148917.97044  22036398.2164   22036398.7334
 -19875042.229 4 -15487032.015 4  21356981.115    21356979.242
 -22720345.61144 -17704141.89644  20798108.4504   20798109.2964
  -6367205.66844  -4961448.53644  24373046.9804   24373046.8884
 95  2  8  2 23 30.0000000  0  8G24G 4G 5G 9G 2G12G 7G27
  -8159022.69744  -6357670.47244  23565520.9164   23565525.3404
 -19866015.74544 -15480001.23744  21436257.1744   21436258.0914
  -3464505.76844  -2699608.10544  24668898.5254
 -15047824.39544 -11725566.25944  22340552.2504   22340553.0814
 -18110985.51644 -14112430.25244  22045308.7314   22045309.7004
 -19930101.038 4 -15529934.966 4  21346503.715    21346501.902
 -22673144.27544 -17667361.62744  20807090.5834   20807091.4354
  -6250131.28844  -4870221.77744  24395325.5404   24395328.0064
 95  2  8  2 24  0.0000000  0  8G24G 4G 5G 9G 2G12G 7G27
  -8265479.02544  -6440623.38544  23545262.6554   23545264.4264
 -19931744.37244 -15531218.32044  21423749.4984   21423749.9114
  -3544071.85844  -2761607.60944  24653757.2464
 -15123280.07244 -11784362.86444  22326193.3994   22326193.3474
 -18063889.34744 -14075731.96044  22054271.0034   22054272.2974
 -19984817.890 4 -15572571.458 4  21336091.441    21336089.579
 -22625661.46444 -17630362.02144  20816126.1564   20816127.1344
  -6132932.81044  -4778898.27244  24417627.6554   24417629.8414
 95  2  8  2 24 30.0000000  0  8G24G 4G 5G 9G 2G12G 7G27
  -8371923.53744  -6523567.06744  23525006.9274   23525010.0694
 -19997057.60344 -15582111.71244  21411320.6734   21411321.1814
  -3623748.88344  -2823693.55244  24638595.3984
 -15198440.17944 -11842929.15544  22311890.8954   22311891.2804
 -18016612.00644 -14038892.46644  22063267.4624   22063268.7874
 -20039292.327 4 -15615019.060 4  21325725.259    21325723.444
 -22577978.52444 -17593206.47644  20825199.8924   20825200.7594
  -6015707.58444  -4687553.94944  24439934.6594   24439935.8244
 95  2  8  2 25  0.0000000  0  8G24G 4G 5G 9G 2G12G 7G27
  -8478332.51944  -6606483.07944  23504758.1104   23504760.2414
 -20061936.12244 -15632666.37244  21398974.7384   21398975.1394
  -3703481.21744  -2885822.51944  24623422.7244
 -15273284.55844 -11901249.42244  22297648.5994   22297648.6114
 -17969129.76544 -14001893.32444  22072303.0794   22072304.4494
 -20093497.268 4 -15657256.663 4  21315410.387    21315408.594
 -22530072.38244 -17555877.00644  20834316.1174   20834317.0094
  -5898413.33044  -4596155.81844  24462255.0124   24462253.6084
 95  2  8  2 25 30.0000000  0  8G24G 4G 5G 9G 2G12G 7G27
  -8584620.64744  -6689304.89744  23484532.0864   23484534.0504
 -20126328.55444 -15682842.25844  21386721.3204   21386721.4614
  -3783217.67544  -2947954.76744  24608249.5844
 -15347753.07844 -11959276.81844  22283477.7094   22283478.1864
 -17921387.16544 -13964691.30044  22081388.2204   22081388.8204
 -20147365.370 4 -15699231.794 4  21305159.595    21305157.829
 -22481892.56544 -17518334.28544  20843484.3894   20843485.3494
  -5780979.08544  -4504648.62744  24484602.0924   24484605.9704
 95  2  8  2 26  0.0000000  0  8G24G 4G 5G 9G 2G12G 7G27
  -8690906.00044  -6772124.56344  23464306.5084   23464308.2504
 -20190369.75844 -15732744.46144  21374534.6424   21374535.1014
  -3863095.38044  -3010197.09244  24593049.1844   24593050.8734
 -15421972.49644 -12017110.10144  22269354.0614   22269353.9074
 -17873514.33844 -13927387.80544  22090498.1684   22090499.3484
 -20201015.553 4 -15741037.119 4  21294950.318    21294948.526
 -22433568.98644 -17480679.53944  20852680.1764   20852681.1904
  -5663551.49844  -4413146.59944  24506947.7944   24506948.4894
 95  2  8  2 26 30.0000000  0  8G24G 4G 5G 9G 2G12G 7G27
  -8797038.48444  -6854825.12644  23444110.0134   23444111.8694
 -20253909.38444 -15782255.82244  21362443.4964   21362443.9074
  -3942941.10844  -3072414.49644  24577855.0124
 -15495784.41844 -12074625.85444  22255308.2774   22255308.6704
 -17825352.58644 -13889859.16844  22099662.9514   22099663.9234
 -20254285.179 4 -15782545.902 4  21284813.430    21284811.612
 -22384943.11644 -17442789.24244  20861933.3164   20861934.0494
  -5545989.65344  -4321539.97744  24529319.2184   24529320.4074
 95  2  8  2 27  0.0000000  0  8G24G 4G 5G 9G 2G12G 7G27
  -8903035.01944  -6937419.73944  23423939.5554   23423942.0484
 -20316974.69244 -15831397.58944  21350442.4934   21350443.1524
  -4022772.07944  -3134620.40344  24562663.8084   24562667.4644
 -15569209.92944 -12131840.51744  22241335.7354   22241335.9964
 -17776922.31744 -13852121.29844  22108878.9974   22108879.6114
 -20307194.046 4 -15823773.576 4  21274745.187    21274743.388
 -22336050.09844 -17404690.77844  20871237.2394   20871238.0374
  -5428327.64644  -4229855.26944  24551709.4854   24551709.0894
 95  2  8  2 27 30.0000000  0  8G24G 4G 5G 9G 2G12G 7G27
  -9009082.78844  -7020054.27844  23403759.3314   23403763.3414
 -20379755.42544 -15880317.61244  21338495.6644   21338496.0484
  -4102793.73244  -3196974.88244  24547435.8844   24547436.4454
 -15642445.67444 -12188907.31044  22227399.5294   22227399.9154
 -17728407.90244 -13814317.86144  22118111.0284   22118111.9264
 -20359937.225 4 -15864872.146 4  21264708.447    21264706.727
 -22287074.88644 -17366528.26844  20880556.9324   20880557.7454
  -5310785.44744  -4138263.97044  24574077.0824   24574078.8564
 95  2  8  2 28  0.0000000  0  8G24G 4G 5G 9G 2G12G 7G27
  -9115011.52044  -7102596.06444  23383601.7594   23383604.0134
 -20442061.59944 -15928867.84644  21326639.1494   21326639.5944
  -4182817.00444  -3259330.61044  24532207.8494   24532210.8654
 -15715327.81244 -12245698.56744  22213530.4534   22213531.0224
 -17679639.05644 -13776316.17944  22127391.3204   22127392.7564
 -20412343.597 4 -15905708.266 4  21254735.900    21254734.092
 -22237841.21044 -17328164.35444  20889925.8904   20889926.8144
  -5193196.04744  -4046635.87744  24596453.4444   24596456.4104
 95  2  8  2 28 30.0000000  0  8G24G 4G 5G 9G 2G12G 7G27
  -9220656.67044  -7184916.86044  23363497.9014   23363500.1104
 -20503733.00144 -15976923.45644  21314903.3054   21314903.7614
  -4262694.35544  -3321572.63744  24517007.7154   24517014.1044
 -15787701.07944 -12302093.29444  22199758.3494   22199758.4924
 -17630468.89344 -13738001.76144  22136748.0274   22136749.3274
 -20464266.329 4 -15946167.527 4  21244855.320    21244853.528
 -22188204.58744 -17289486.46144  20899371.4874   20899372.2314
  -5075386.67144  -3954836.32344  24618871.7504   24618875.9604
 95  2  8  2 29  0.0000000  0  8G24G 4G 5G 9G 2G12G 7G27
  -9326174.24444  -7267138.26844  23343418.4174   23343421.5824
 -20564941.48344 -16024618.34944  21303255.7384   21303256.3184
  -4342618.99444  -3383851.54944  24501798.9534   24501802.0344
 -15859733.17844 -12358222.18744  22186050.9764   22186051.1624
 -17581060.87044 -13699502.01744  22146150.1104   22146151.3054
 -20515872.933 4 -15986380.453 4  21235034.927    21235033.097
 -22138337.12744 -17250628.69344  20908860.8584   20908861.7324
  -4957513.87544  -3862987.42244  24641302.3594   24641305.3434
 95  2  8  2 29 30.0000000  0  8G24G 4G 5G 9G 2G12G 7G27
  -9431526.15944  -7349230.59444  23323370.8974   23323372.8044
 -20625650.81644 -16071924.29544  21291703.1294   21291703.6064
  -4422564.42344  -3446146.57744  24486585.0064   24486582.2594
 -15931378.15244 -12414049.41544  22172417.3784   22172417.9844
 -17531377.79644 -13660787.93744  22155604.7954   22155605.5964
 -20567120.297 4 -16026313.451 4  21225282.865    21225281.034
 -22088209.55744 -17211568.23944  20918399.7834   20918400.6614
  -4839526.07544  -3771048.87444  24663754.7754   24663758.1674
 95  2  8  2 30  0.0000000  0  8G24G 4G 5G 9G 2G12G 7G27
  -9536793.44644  -7431257.00344  23303339.0464   23303341.6514
 -20685949.39744 -16118910.17544  21280228.7974   21280229.1384
  -4502611.77044  -3508521.09744  24471352.7004   24471352.4464
 -16002708.94844 -12469631.82944  22158843.6324   22158844.3494
 -17481521.99744 -13621939.26144  22165091.8924   22165093.3264
 -20618094.785 4 -16066033.822 4  21215582.743    21215580.923
 -22037928.55044 -17172388.22944  20927967.9964   20927968.9264
  -4721507.82044  -3679086.58944  24686212.9194   24686213.9354
 95  2  8  2 30 30.0000000  0  8G24G 4G 5G 9G 2G12G 7G27
  -9642013.87844  -7513246.86444  23283315.9724   23283317.6604
 -20745892.54144 -16165619.09144  21268821.9534   21268822.3044
  -4582799.06844  -3571004.61344  24456093.7204   24456096.0694
 -16073749.14544 -12524987.81244  22145325.0304   22145325.4364
 -17431533.86444 -13582987.49244  22174604.2524   22174606.1674
 -20668833.115 4 -16105570.176 4  21205927.568    21205925.741
 -21987542.71244 -17133126.53244  20937556.0994   20937556.9004
  -4603513.45144  -3587142.89644  24708666.4854   24708667.9884
 95  2  8  2 31  0.0000000  0  8G24G 4G 5G 9G 2G12G 7G27
  -9747003.91444  -7595057.20544  23263337.1504   23263338.9284
 -20805259.97744 -16211879.40144  21257524.6464   21257525.1324
  -4662905.39544  -3633425.10644  24440849.7404   24440850.6014
 -16144292.63544 -12579956.74344  22131900.9694   22131901.5324
 -17381218.00144 -13543780.33944  22184178.9604   22184180.7674
 -20719123.167 4 -16144757.220 4  21196357.650    21196355.859
 -21936841.95044 -17093619.43544  20947204.1764   20947204.9014
  -4485364.33844  -3495078.68244  24731149.4634   24731150.6264
 95  2  8  2 31 30.0000000  0  8G24G 4G 5G 9G 2G12G 7G27
  -9851704.03544  -7676641.63544  23243413.2584   23243415.0584
 -20863979.47844 -16257634.83144  21246350.6884   21246351.1284
  -4742854.32744  -3695722.88944  24425636.1714   24425637.3544
 -16214280.73544 -12634492.90444  22118582.7454   22118583.3414
 -17330532.88444 -13504285.43644  22193823.9864   22193825.3144
 -20768906.139 4 -16183549.137 4  21186884.245    21186882.454
 -21885772.46644 -17053825.02944  20956922.2504   20956923.2174
  -4367012.15644  -3402856.18144  24753671.1044   24753669.5174
 95  2  8  2 32  0.0000000  0  8G24G 4G 5G 9G 2G12G 7G27
  -9956323.69544  -7758163.37444  23223504.8424   23223507.0564
 -20922250.15444 -16303040.52544  21235262.1514   21235262.6344
  -4822848.21744  -3758055.71544  24410413.6254   24410417.0984
 -16283922.53944 -12688759.22844  22105330.3534   22105330.7054
 -17279683.00844 -13464662.17044  22203500.5594   22203502.0364
 -20818392.317 4 -16222109.788 4  21177467.276    21177465.563
 -21834543.14544 -17013906.07244  20966670.9144   20966671.6074
  -4248680.55344  -3310649.75244  24776188.8944
 95  2  8  2 32 30.0000000  0  8G24G 4G 5G 9G 2G12G 7G27
 -10060826.71744  -7839594.25444  23203618.3744   23203620.8204
 -20980016.23744 -16348053.02944  21224269.6734   21224270.3004
  -4902859.90244  -3820402.37644  24395187.8034   24395186.6814
 -16353180.34144 -12742726.32444  22092150.9964   22092150.5174
 -17228616.43844 -13424870.05344  22213217.9674   22213219.1594
 -20867532.339 4 -16260400.706 4  21168116.218    21168114.504
 -21783095.69344 -16973817.13944  20976461.0124   20976461.9714
  -4130318.49444  -3218419.56644  24798712.3444   24798715.3824
 95  2  8  2 33  0.0000000  0  8G24G 4G 5G 9G 2G12G 7G27
 -10165213.40444  -7920934.44244  23183754.1344   23183757.1894
 -21037264.90044 -16392662.35244  21213375.5154   21213375.6364
  -4982906.65044  -3882776.42244  24379955.5964   24379957.0904
 -16422055.53244 -12796395.28644  22079044.3874   22079044.6904
 -17177320.90144 -13384899.51044  22222979.5784   22222979.9764
 -20916318.725 4 -16298416.068 4  21158832.477    21158830.747
 -21731418.18644 -16933548.94844  20986294.9374   20986295.8074
  -4011915.61844  -3126157.54044  24821243.8534
 95  2  8  2 33 30.0000000  0  8G24G 4G 5G 9G 2G12G 7G27
 -10269658.47944  -8002320.16544  23163879.0664   23163881.1274
 -21094199.87644 -16437027.24444  21202541.2244   21202541.3794
  -5063193.65744  -3945337.67744  24364677.3544   24364679.9164
 -16490734.78644 -12849911.57344  22065975.0124   22065974.9704
 -17125968.84644 -13344884.93044  22232751.3364   22232753.5834
 -20964942.824 4 -16336304.968 4  21149579.598    21149577.856
 -21679709.32544 -16893256.32444  20996134.8374   20996135.7554
  -3893646.15844  -3033999.54344  24843749.6274
 95  2  8  2 34  0.0000000  0  8G24G 4G 5G 9G 2G12G 7G27
 -10373947.40044  -8083584.19944  23144033.3184   23144033.9734
 -21150604.27744 -16480978.69644  21191807.7804   21191807.9734
  -5143508.40444  -4007920.53644  24349393.7234   24349395.8224
 -16558995.33244 -12903101.59144  22052985.6764   22052985.9984
 -17074334.01944 -13304650.03444  22242576.9134   22242577.5014
 -21013182.060 4 -16373893.976 4  21140399.977    21140398.238
 -21627737.58444 -16852758.85744  21006024.5974   21006025.3884
  -3775292.07344  -2941775.60344  24866271.6354
 95  2  8  2 34 30.0000000  0  8G24G 4G 5G 9G 2G12G 7G27
 -10478194.33544  -8164815.50444  23124196.0604   23124196.6974
 -21206598.98944 -16524610.91544  21181152.2944   21181152.5134
  -5223962.40144  -4070611.89544  24334084.0114   24334085.5434
 -16626960.36444 -12956061.34544  22040052.3934   22040052.3964
 -17022541.23244 -13264292.01244  22252433.0294   22252434.0754
 -21061149.353 4 -16411271.083 4  21131272.125    21131270.380
 -21575613.85044 -16812142.95944  21015943.4684   21015944.0494
  -3656959.86144  -2849568.67444  24888789.6104
 95  2  8  2 35  0.0000000  0  8G24G 4G 5G 9G 2G12G 7G27
 -10582345.11644  -8245971.90544  23104376.7304   23104379.4734
 -21262157.22744 -16567903.02544  21170579.9264   21170580.1974
  -5304502.38944  -4133370.24344  24318757.6254   24318759.1784
 -16694584.19244 -13008755.21944  22027183.8614   22027184.0564
 -16970548.79044 -13223778.44344  22262326.9124   22262328.0924
 -21108805.741 4 -16448405.926 4  21122203.434    21122201.664
 -21523303.24844 -16771381.44544  21025897.9284   21025898.5374
  -3538604.65444                  24911311.7284
 95  2  8  2 35 30.0000000  0  8G24G 4G 5G 9G 2G12G 7G27
 -10686387.71444  -8327043.99844  23084577.8584   23084579.8394
 -21317291.18844 -16610864.52944  21160088.2424   21160088.4324
  -5385116.61444  -4196186.46344  24303417.3634   24303420.2744
 -16761878.72344 -13061192.50444  22014377.9894   22014378.3574
 -16918369.95344 -13183119.61644  22272256.3624   22272257.3234
 -21156159.428 4 -16485304.897 4  21113192.318    21113190.573
 -21470821.55644 -16730486.61544  21035884.8984   21035885.6834
  -3420233.09744                  24933837.2004
 95  2  8  2 36  0.0000000  0  8G24G 4G 5G 9G 2G12G 7G27
 -10790136.38244  -8407887.05644  23064835.0134   23064836.9254
 -21371811.46944 -16653347.84444  21149713.4554   21149713.7914
  -5465620.19044  -4258916.44744  24288097.7294   24288100.1154
 -16828659.23944 -13113229.25644  22001670.3704   22001670.1044
 -16865832.16144 -13142181.07344  22282253.5964   22282254.8314
 -21203027.410 4 -16521825.397 4  21104273.614    21104271.916
 -21417980.61944 -16689311.85844  21045940.0284   21045940.9954
  -3301678.99344                  24956397.1264
 95  2  8  2 36 30.0000000  0  8G24G 4G 5G 9G 2G12G 7G27
 -10893317.09244  -8488287.54744  23045200.5204   23045203.1804
 -21425441.69144 -16695137.61144  21139507.8084   21139507.7904
  -5545736.84944  -4321344.97744  24272852.2134   24272853.6084
 -16894639.43344 -13164642.38444  21989114.7074   21989114.5964
 -16812655.05144 -13100744.38744  22292372.8994   22292373.4324
 -21249133.698 4 -16557752.368 4  21095499.903    21095498.136
 -21364524.89444 -16647658.04144  21056112.3434   21056113.0994
  -3182676.22744                  24979042.8264
 95  2  8  2 37  0.0000000  0  8G24G 4G 5G 9G 2G12G 7G27
 -10996272.66144  -8568512.61644  23025608.6344   23025610.8424
 -21478520.42444 -16736497.63644  21129407.2694   21129407.4174
  -5625817.71044  -4383745.61544  24257613.1694   24257614.4354
 -16960151.56744 -13215690.78444  21976648.0944   21976648.4024
 -16759187.55644 -13059081.39644  22302547.6934   22302548.8884
 -21294822.650 4 -16593354.142 4  21086805.537    21086803.790
 -21310805.18044 -16605798.51844  21066334.8874   21066335.2494
  -3063599.13544                  25001702.3824
 95  2  8  2 37 30.0000000  0  8G24G 4G 5G 9G 2G12G 7G27
 -11099266.00244  -8648767.11144  23006009.5634   23006010.9164
 -21531286.64244 -16777614.14944  21119366.1844   21119366.2174
  -5706115.64644  -4446315.36744  24242332.9784   24242334.0514
 -17025446.09644 -13266569.62444  21964222.9134   21964223.4234
 -16705687.04244 -13017392.71744  22312728.1424   22312729.4344
 -21340346.375 4 -16628827.171 4  21078142.719    21078140.907
 -21257079.58744 -16563934.41944  21076558.5334   21076559.5454
  -2944727.84244                  25024322.5994
 95  2  8  2 38  0.0000000  0  8G24G 4G 5G 9G 2G12G 7G27
 -11202289.61044  -8729045.20244  22986404.7184   22986406.0864
 -21583722.79144 -16818473.46844  21109387.8704   21109388.2764
  -5786615.89644  -4509042.78644  24227014.4774   24227011.3724
 -17090494.06444 -13317256.34244  21951844.5564   21951844.6654
 -16652134.69144 -12975663.63144  22322919.0274   22322919.5574
 -21385684.678 4 -16664155.714 4  21069515.090    21069513.321
 -21203341.95344 -16522060.93544  21086784.5184   21086785.3914
  -2826050.92744                  25046906.1124
 95  2  8  2 38 30.0000000  0  8G24G 4G 5G 9G 2G12G 7G27
 -11305289.85344  -8809305.09244  22966804.3474   22966805.4894
 -21635787.96344 -16859043.71444  21099480.1474   21099480.5114
  -5867281.62244  -4571899.14444  24211663.8104   24211665.0584
 -17155263.52744 -13367726.04444  21939519.5074   21939519.5124
 -16598483.49344 -12933857.51344  22333128.5914   22333129.8404
 -21430790.070 4 -16699302.771 4  21060931.837    21060930.057
 -21149556.49744 -16480150.18744  21097019.5034   21097020.5794
  -2707515.07644                  25069462.9684
 95  2  8  2 39  0.0000000  0  8G24G 4G 5G 9G 2G12G 7G27
 -11408016.31644  -8889351.61544  22947256.1884   22947258.2174
 -21687246.76844 -16899141.46044  21089687.6614   21089687.9704
  -5947894.10744  -4634713.98444  24196323.9934   24196324.5754
 -17219543.65844 -13417814.44744  21927287.2714   21927287.2354
 -16544503.38444 -12891795.39244  22343400.5074   22343401.2264
 -21475432.216 4 -16734088.855 4  21052436.688    21052434.924
 -21095491.00544 -16438021.22644  21107307.8914   21107308.5024
  -2588876.40244                  25092039.0024
 95  2  8  2 39 30.0000000  0  8G24G 4G 5G 9G 2G12G 7G27
 -11510498.13544  -8969207.53144  22927754.4634   22927756.3784
 -21738135.28344 -16938794.83544  21080004.1214   21080004.2864
  -6028491.87544  -4697517.42544  24180986.7484   24180986.6494
 -17283369.63744 -13467548.96744  21915141.5274   21915142.1394
 -16490214.57844 -12849493.30744  22353731.8324   22353732.9124
 -21519640.330 4 -16768536.733 4  21044024.226    21044022.367
 -21041186.36144 -16395705.93244  21117641.6364   21117642.2404
  -2470141.61744                  25114633.7314
 95  2  8  2 40  0.0000000  0  8G24G 4G 5G 9G 2G12G 7G27
 -11612550.37744  -9048728.70744  22908334.7284   22908336.8884
 -21788273.78444 -16977863.78144  21070463.0224   21070463.1894
  -6108897.64944  -4760171.16344  24165685.7464   24165686.1664
 -17346567.04544 -13516793.69144  21903115.4814   21903115.9054
 -16435435.40044 -12806807.93844  22364155.8364   22364156.0914
 -21563226.953 4 -16802500.330 4  21035729.933    21035728.099
 -20986465.22844 -16353066.07544  21128054.7564   21128055.5474
  -2351111.02144                  25137284.2464
 95  2  8  2 40 30.0000000  0  8G24G 4G 5G 9G 2G12G 7G27
 -11714459.87844  -9128138.64144  22888941.8514   22888943.2814
 -21837927.51744 -17016554.98444  21061014.2034   21061014.4414
  -6189387.85044  -4822890.79044  24150369.1554   24150369.7874
 -17409425.44244 -13565774.25244  21891153.9864   21891154.5564
 -16380458.72444 -12763969.00344  22374617.0464   22374618.7934
 -21606474.318 4 -16836199.571 4  21027500.194    21027498.384
 -20931595.76944 -16310310.64944  21138495.9614   21138496.6784
  -2232074.77144                  25159936.0874
 95  2  8  2 41  0.0000000  0  8G24G 4G 5G 9G 2G12G 7G27
 -11816360.75244  -9207541.89744  22869550.5314   22869552.8764
 -21887214.33144 -17054960.27844  21051635.2444   21051635.6704
  -6270060.88644  -4885752.86644  24135017.5024   24135018.4864
 -17472048.38844 -13614571.34144  21879237.2504   21879237.8164
 -16325409.87244 -12721073.85544  22385092.7194   22385093.2254
 -21649501.686 4 -16869727.387 4  21019312.335    21019310.563
 -20876692.11944 -16267528.58544  21148943.8294   21148944.8774
  -2113182.17844                  25182560.6664
 95  2  8  2 41 30.0000000  0  8G24G 4G 5G 9G 2G12G 7G27
 -11918197.97444  -9286895.52744  22850171.7524   22850173.6984
 -21936059.52044 -17093021.44844  21042340.2374   21042340.7794
  -6350825.17744  -4948686.00844  24119648.3024   24119647.8404
 -17534342.47944 -13663112.18944  21867383.0664   21867382.7654
 -16270214.70344 -12678064.62444  22395595.8824   22395597.0544
 -21692229.429 4 -16903021.730 4  21011181.526    21011179.802
 -20821671.04144 -16224655.01744  21159414.1104   21159415.3434
  -1994381.14344                  25205167.8084
 95  2  8  2 42  0.0000000  0  8G24G 4G 5G 9G 2G12G 7G27
 -12019990.99444  -9366214.71844  22830801.2634   22830802.7154
 -21984485.61944 -17130756.05644  21033125.0314   21033125.4094
  -6431694.79444  -5011701.23544  24104259.6044   24104261.0554
 -17596335.41444 -13711418.35644  21855586.1954   21855586.7404
 -16214910.42844 -12634970.38544  22406120.1144   22406121.4874
 -21734683.631 4 -16936102.925 4  21003102.771    21003101.024
 -20766551.05844 -16181704.38344  21169903.0904   21169903.9154
  -1875720.83044                  25227747.8874
 95  2  8  2 42 30.0000000  0  8G24G 4G 5G 9G 2G12G 7G27
 -12121419.52244  -9445249.89344  22811499.8834   22811501.0954
 -22032196.05644 -17167933.00144  21024045.9834   21024046.3814
  -6512370.71544  -5074565.54844  24088907.2204   24088907.0864
 -17657704.75544 -13759238.61844  21843908.0624   21843908.4934
 -16159190.38544 -12591552.18644  22416723.7434   22416724.9594
 -21776567.352 4 -16968739.585 4  20995132.541    20995130.809
 -20711034.01044 -16138444.34044  21180467.5914   21180468.2544
  -1756919.09144                  25250355.1374
 95  2  8  2 43  0.0000000  0  8G24G 4G 5G 9G 2G12G 7G27
 -12222525.20544  -9524033.49544  22792259.8444   22792261.2384
 -22079258.23244 -17204604.81344  21015090.3274   21015090.7634
  -6592927.34144  -5137336.88744  24073577.7964   24073578.0244
 -17718481.25944 -13806596.92244  21832342.6764   21832342.9704
 -16103086.13644 -12547834.61444  22427399.6164   22427400.8274
 -21817928.672 4 -17000969.183 4  20987261.743    20987259.990
 -20655183.53144 -16094924.48644  21191095.5244   21191096.4414
  -1638024.48444                  25272980.1584
 95  2  8  2 43 30.0000000  0  7G24G 4G 5G 9G 2G12G 7
 -12323411.71144  -9602646.30744  22773061.8704   22773064.3574
 -22125794.03744 -17240866.46044  21006234.8504   21006235.1674
  -6673500.09344  -5200120.81044  24058245.3604   24058247.4204
 -17778773.95244 -13853578.23144  21820869.2834   21820869.7444
 -16046711.05744 -12503906.04344  22438127.0994   22438128.9474
 -21858882.682 4 -17032881.393 4  20979468.487    20979466.681
 -20599122.36544 -16051240.45844  21201763.5494   21201764.0774
 95  2  8  2 44  0.0000000  0  7G24G 4G 5G 9G 2G12G 7
 -12424136.33344  -9681132.98844  22753894.5554   22753895.9354
 -22171888.74844 -17276784.40244  20997463.4414   20997463.7474
  -6754183.71644  -5262991.11144  24042891.7534   24042891.9274
 -17838673.74644 -13900253.39144  21809470.8574   21809471.3574
 -15990157.67644 -12459838.51344  22448889.4344   22448890.1774
 -21899514.616 4 -17064542.638 4  20971736.513    20971734.713
 -20542955.00944 -16007473.68744  21212451.8524   21212452.3884
 95  2  8  2 44 30.0000000  0  8G24G 5G 9G 4G 2G12G 7G26
 -12524748.47644  -9759532.02444  22734748.9154   22734751.3054
  -6835025.10144  -5325984.35144  24027508.2624   24027510.2794
 -17898219.56444 -13946652.72144  21798139.6834   21798140.0074
 -22217583.31044 -17312390.54144  20988767.9804   20988768.4714
 -15933468.24544 -12415664.90844  22459677.2244   22459676.6804
 -21939864.932 4 -17095984.443 4  20964058.083    20964056.292
 -20486723.99344 -15963657.31244  21223152.3064   21223153.1344
        -0.87554         0.07354  24288284.8014   24288286.2294
 95  2  8  2 45  0.0000000  0  8G24G 5G 4G 9G 2G12G 7G26
 -12625108.33044  -9837734.47444  22715651.0764   22715651.8004
  -6915859.44744  -5388972.12144  24012125.7304   24012126.4204
 -22262712.04044 -17347555.77144  20980180.3634   20980180.7144
 -17957282.07544 -13992675.45544  21786900.4174   21786900.8534
 -15876495.60744 -12371270.61044  22470518.5474   22470519.3474
 -21979773.125 4 -17127081.734 4  20956463.841    20956462.023
 -20430269.65544 -15919666.91744  21233895.3204   21233896.2054
     70594.28244     55008.68644  24301718.2884   24301717.4544
 95  2  8  2 45 30.0000000  0  8G24G 5G 4G 9G 2G12G 7G26
 -12725230.00344  -9915751.32944  22696598.4154   22696599.6264
  -6996686.07244  -5451953.82644  23996744.8754   23996745.4604
 -22307278.04344 -17382282.51244  20971699.5884   20971700.0784
 -18015906.15944 -14038356.55244  21775744.3874   21775745.0004
 -15819276.16644 -12326684.06244  22481406.5834   22481409.2334
 -22019260.081 4 -17157850.788 4  20948949.828    20948947.894
 -20373614.42944 -15875519.98444  21244676.4374   21244677.3094
    141327.68944    110125.61344  24315178.6274   24315178.7014
 95  2  8  2 46  0.0000000  0  8G24G 5G 9G 4G 2G12G 7G26
 -12825228.17244  -9993671.93544  22677569.3544   22677572.3244
  -7077610.92144  -5515012.10544  23981345.3754   23981346.2824
 -18074205.27844 -14083784.43144  21764650.4554   21764651.1844
 -22351377.48544 -17416645.69744  20963307.6764   20963308.4494
 -15761918.15744 -12281989.55844  22492321.8084   22492323.9904
 -22058434.786 4 -17188376.530 4  20941495.343    20941493.182
 -20316875.99944 -15831308.22144  21255473.3014   21255474.4624
    212103.46744    165275.57644  24328646.9594   24328648.3494
 95  2  8  2 46 30.0000000  0  8G24G 5G 9G 4G 2G12G 7G26
 -12925092.35644 -10071488.14844  22658565.7664   22658567.5394
  -7158605.44644  -5578124.68244  23965932.6954   23965934.1984
 -18132143.32544 -14128930.96044  21753625.2294   21753625.8474
 -22394984.02844 -17450624.80944  20955009.6284   20955010.1564
 -15704381.28944 -12237155.67944  22503270.9944   22503273.2784
 -22097267.103 4 -17218635.477 4  20934105.817    20934103.678
 -20260021.07844 -15787005.68444  21266292.4244   21266293.9114
    282930.97944    220465.84544  24342124.9794   24342126.5334
 95  2  8  2 47  0.0000000  0  8G24G 5G 9G 4G 2G12G 7G26
 -13024963.82044 -10149310.03744  22639560.8924   22639563.7134
  -7239821.40244  -5641409.80444  23950477.5604   23950479.3954
 -18189866.57244 -14173910.10544  21742641.0414   21742641.7274
 -22438241.29644 -17484331.75744  20946778.2034   20946778.8184
 -15646802.70044 -12192289.27044  22514227.8414   22514229.9314
 -22135908.512 4 -17248745.664 4  20926752.596    20926750.433
 -20203207.93344 -15742735.70044  21277103.5174   21277104.9224
    353638.44144    275562.56444  24355579.9614   24355580.0014
 95  2  8  2 47 30.0000000  0  8G24G 5G 4G 9G 2G12G 7G26
 -13124029.92744 -10226504.36644  22620709.2704   22620711.7664
  -7320468.34444  -5704251.53744  23935130.9474   23935132.7124
 -22480346.65244 -17517141.11244  20938765.7654   20938766.4074
 -18246548.38144 -14218077.74144  21731854.8674   21731855.6774
 -15588374.83044 -12146761.05644  22525345.9374   22525347.7044
 -22173552.388 4 -17278078.554 4  20919589.212    20919587.030
 -20145649.65144 -15697885.09144  21288056.5614   21288057.9864
    425017.56744    331182.63844  24369163.1014   24369166.2254
 95  2  8  2 48  0.0000000  0  8G24G 5G 4G 9G 2G12G 7G26
 -13222875.31744 -10303526.71844  22601899.4064   22601901.4024
  -7401134.27844  -5767108.06944  23919780.7834   23919782.1674
 -22521898.10244 -17549518.85144  20930858.8094   20930859.4934
 -18302757.13944 -14261876.76744  21721158.8124   21721159.6814
 -15529677.01844 -12101022.47744  22536515.3774   22536516.6824
 -22210776.856 4 -17307084.633 4  20912505.602    20912503.485
 -20087929.56044 -15652908.39844  21299040.2734   21299041.7594
    496469.52644    386859.51144  24382760.0194   24382761.6654
 95  2  8  2 48 30.0000000  0  8G24G 5G 4G 9G 2G12G 7G26
 -13321574.61644 -10380435.22544  22583117.7694   22583119.9434
  -7481890.93344  -5830035.30144  23904413.1774   23904415.3154
 -22562981.65944 -17581532.00344  20923040.7314   20923041.4774
 -18358578.17244 -14305373.66944  21710536.3134   21710537.0584
 -15470790.48944 -12055136.89444  22547721.7004   22547723.3144
 -22247660.466 4 -17335825.105 4  20905486.871    20905484.756
 -20030118.38044 -15607860.72444  21310041.4364   21310042.7644
    567899.75544    442519.39444  24396352.7094   24396352.2424
 95  2  8  2 49  0.0000000  0  8G24G 5G 4G 9G 2G12G 7G26
 -13420067.27544 -10457182.73444  22564375.1674   22564377.4364
  -7562686.18844  -5892992.62844  23889038.2334   23889040.0014
 -22603543.30944 -17613138.46744  20915322.2264   20915322.8264
 -18413961.02844 -14348529.13344  21699997.1784   21699997.9724
 -15411673.89044 -12009072.04044  22558971.7024   22558973.8634
 -22284151.108 4 -17364259.371 4  20898542.952    20898540.841
 -19972163.99844 -15562701.46544  21321069.8184   21321071.1344
    639350.17544    498195.04744  24409949.1094   24409949.9394
 95  2  8  2 49 30.0000000  0  8G24G 5G 4G 9G 2G12G 7G26
 -13518459.55044 -10533852.01144  22545651.7744   22545653.6504
  -7643615.10144  -5956054.04744  23873638.0034   23873639.7754
 -22643697.37044 -17644427.33144  20907681.1444   20907681.7154
 -18469002.76344 -14391418.78944  21689523.2004   21689523.8024
 -15352442.31544 -11962917.58444  22570243.1054   22570244.5964
 -22320344.771 4 -17392462.225 4  20891655.538    20891653.429
 -19914177.98644 -15517517.56044  21332104.2834   21332105.5424
    710720.96944    553808.63844  24423530.3794   24423532.2024
 95  2  8  2 50  0.0000000  0  8G24G 5G 4G 9G 2G12G 7G26
 -13616591.01644 -10610318.06644  22526977.8054   22526979.9154
  -7724503.26644  -6019083.76044  23858245.6424   23858247.7974
 -22683284.68144 -17675274.57044  20900147.9094   20900148.5044
 -18523535.41544 -14433911.75944  21679145.8144   21679146.4334
 -15292940.87844 -11916552.84944  22581565.1254   22581566.7284
 -22356079.372 4 -17420307.366 4  20884855.468    20884853.323
 -19855979.49344 -15472168.08344  21343179.0114   21343180.2914
    782176.59844    609488.34944  24437127.9424   24437130.6914
 95  2  8  2 50 30.0000000  0  8G24G 5G 4G 9G 2G12G 7G26
 -13714485.73344 -10686599.64144  22508348.8504   22508351.2254
  -7805380.34544  -6082104.81244  23842855.1184   23842857.1484
 -22722324.84944 -17705695.46644  20892718.8154   20892719.5644
 -18577584.87744 -14476028.21444  21668860.5954   21668861.3474
 -15233198.58944 -11870000.42644  22592933.2184   22592935.5934
 -22391380.259 4 -17447814.549 4  20878137.918    20878135.761
 -19797602.32844 -15426679.39044  21354287.8824   21354289.4704
    853688.08044    665211.57144  24450736.5624   24450737.6474
 95  2  8  2 51  0.0000000  0  8G24G 4G 5G 9G 2G12G 7G26
 -13812163.98644 -10762712.53544  22489761.4754   22489763.9564
 -22760825.23044 -17735695.74944  20885392.4354   20885393.1664
  -7886268.28244  -6145134.33044  23827462.7884   23827464.2384
 -18631168.55244 -14517781.72244  21658663.9614   21658664.8374
 -15173241.65744 -11823280.73944  22604343.1144   22604344.9874
 -22426261.929 4 -17474995.071 4  20871500.178    20871498.007
 -19739078.74344 -15381076.59144  21365424.4684   21365425.8254
    925245.15644    720970.35744  24464353.3014   24464354.2714
 95  2  8  2 51 30.0000000  0  8G24G 4G 5G 9G 2G12G 7G26
 -13909619.48744 -10838651.86844  22471216.3034   22471218.2194
 -22798784.44244 -17765274.33944  20878168.9884   20878169.7654
  -7967164.74244  -6208170.49544  23812068.5154   23812071.1774
 -18684287.31544 -14559172.95944  21648555.7874   21648556.5874
 -15113067.68844 -11776391.94144  22615794.2134   22615795.6884
 -22460715.387 4 -17501841.920 4  20864943.904    20864941.725
 -19680403.84344 -15335355.88944  21376589.9874   21376591.5104
    996873.50944    776784.63744  24477983.9194   24477985.2764
 95  2  8  2 52  0.0000000  0  8G24G 4G 5G 9G 2G12G 7G26
 -14006825.73244 -10914396.96544  22452718.4414   22452721.4904
 -22836171.35144 -17794406.98244  20871054.5224   20871055.2624
  -8048063.93644  -6271208.80244  23796673.7954   23796675.3714
 -18736930.76744 -14600193.82144  21638537.9374   21638538.5734
 -15052648.80244 -11729312.31144  22627291.5994   22627293.6464
 -22494721.565 4 -17528340.239 4  20858472.747    20858470.559
 -19621543.35444 -15289490.57244  21387790.8444   21387791.8734
   1068588.68844    832666.58944  24491630.9714   24491633.2014
 95  2  8  2 52 30.0000000  0  8G24G 4G 5G 9G 2G12G 7G26
 -14103718.28144 -10989897.63244  22434280.5424   22434282.9194
 -22872910.25044 -17823034.67944  20864063.3074   20864064.1884
  -8128903.15744  -6334200.38844  23781290.6444   23781293.0644
 -18789063.01944 -14640816.35244  21628617.5004   21628618.5964
 -14991911.50244 -11681984.56844  22638849.3674   22638851.9184
 -22528218.786 4 -17554441.970 4  20852098.453    20852096.228
 -19562445.27844 -15243440.12444  21399036.6164   21399037.9914
   1140448.22544    888661.00344  24505305.4234   24505308.1304
 95  2  8  2 53  0.0000000  0  8G24G 4G 5G 9G 2G12G 7G26
 -14200476.28544 -11065293.45544  22415868.0954   22415870.7544
 -22909183.54744 -17851299.57144  20857160.6294   20857161.5954
  -8209866.37244  -6397288.55244  23765883.9564   23765886.4364
 -18840863.13844 -14681180.07444  21618760.4344   21618761.1794
 -14931026.44844 -11634541.69644  22650435.1574   22650437.4814
 -22561387.862 4 -17580288.004 4  20845786.576    20845784.355
 -19503276.50844 -15197334.58844  21410295.9894   21410297.3444
   1212274.67844    944629.67944  24518973.2744   24518974.6644
 95  2  8  2 53 30.0000000  0  8G24G 4G 5G 9G 2G12G 7G26
 -14296924.16444 -11140447.63044  22397514.6034   22397517.4964
 -22944841.65544 -17879085.09944  20850375.1534   20850375.9704
  -8290792.37944  -6460347.75844  23750484.1664   23750485.6624
 -18892155.85444 -14721148.41744  21608999.7394   21609000.8644
 -14869815.30544 -11586844.72744  22662083.2864   22662086.4644
 -22594065.983 4 -17605751.475 4  20839568.131    20839565.939
 -19443855.00244 -15151032.11944  21421603.5684   21421604.7794
   1284218.01844   1000689.38544  24532663.6564   24532664.5604
 95  2  8  2 54  0.0000000  0  8G24G 4G 5G 9G 2G12G 7G26
 -14393127.61544 -11215411.33344  22379207.5434   22379209.9094
 -22979945.44644 -17906438.68944  20843695.1804   20843695.9814
  -8371749.68144  -6523431.32944  23735078.4894   23735079.9764
 -18943010.94044 -14760775.75544  21599322.2944   21599323.1894
 -14808344.57444 -11538945.48844  22673780.9724   22673783.5684
 -22626325.139 4 -17630888.480 4  20833429.408    20833427.228
 -19384256.76444 -15104591.93444  21432944.8884   21432946.2024
   1356175.07244   1056759.78044  24546356.4564   24546360.0094
 95  2  8  2 54 30.0000000  0  8G24G 4G 5G 9G 2G12G 7G26
 -14489076.07744 -11290176.35544  22360949.1514   22360951.2114
 -23014499.00544 -17933363.53044  20837119.8684   20837120.4404
  -8452721.17044  -6586525.95944  23719670.1304   23719671.4574
 -18993410.90944 -14800048.45644  21589731.5454   21589732.1714
 -14746620.17744 -11490848.57044  22685526.9374   22685528.0824
 -22658159.654 4 -17655694.595 4  20827371.510    20827369.321
 -19324492.59844 -15058022.45544  21444317.6034   21444318.8984
   1428146.38344   1112841.35644  24560052.1024   24560056.0534
 95  2  8  2 55  0.0000000  0  8G24G 4G 5G 9G 2G12G 7G26
 -14584860.38844 -11364813.45944  22342722.0464   22342724.5824
 -23048621.47244 -17959952.45444  20830626.5604   20830627.0924
  -8533815.10844  -6649715.99644  23704238.5004   23704239.4944
 -19043430.89344 -14839025.06044  21580213.0504   21580213.7504
 -14684750.34444 -11442638.32544  22697300.5904   22697301.6004
 -22689665.310 4 -17680244.459 4  20821376.189    20821373.959
 -19264677.52344 -15011413.30744  21455700.0104   21455701.4184
   1500022.84844   1168848.99044  24573729.8444   24573730.5674
 95  2  8  2 55 30.0000000  0  8G24G 4G 5G 9G 2G12G 7G26
 -14680264.42844 -11439154.24644  22324567.2544   22324569.1404
 -23082089.40844 -17986031.35344  20824257.7784   20824258.3474
  -8614800.66944  -6712821.60144  23688827.3414   23688829.1224
 -19092838.02644 -14877524.12344  21570811.1874   21570811.7464
 -14622531.68444 -11394156.23444  22709140.4074   22709142.1344
 -22720622.111 4 -17704366.641 4  20815485.314    20815483.093
 -19204619.06844 -14964614.51444  21467128.6714   21467130.1584
   1572010.29844   1224943.09844  24587428.7864   24587431.5354
 95  2  8  2 56  0.0000000  0  8G24G 4G 5G 9G 2G12G 7G26
 -14775387.84344 -11513276.37344  22306465.8434   22306468.6194
 -23114971.30844 -18011653.60344  20818000.6114   20818001.2334
  -8695761.68244  -6775908.06544  23673421.0364   23673422.1874
 -19141710.39744 -14915606.48844  21561510.9924   21561511.9234
 -14560063.46644 -11345479.70944  22721027.3914   22721028.6894
 -22751110.980 4 -17728124.202 4  20809683.465    20809681.259
 -19144431.13544 -14917714.83144  21478582.1264   21478583.6144
   1644024.73244   1281058.23544  24601132.5564   24601135.8894
 95  2  8  2 56 30.0000000  0  8G24G 4G 5G 9G 2G12G 7G26
 -14870313.10944 -11587244.09244  22288402.0814   22288404.1834
 -23147343.90244 -18036878.99044  20811840.3054   20811840.8594
  -8776764.02144  -6839026.74344  23658006.6734   23658007.4344
 -19190105.98344 -14953317.33544  21552301.6904   21552302.6374
 -14497424.88644 -11296670.46044  22732946.9414   22732950.0834
 -22781199.562 4 -17751569.852 4  20803957.806    20803955.583
 -19084185.22244 -14870769.96144  21490046.5724   21490047.6464
   1716010.80544   1337151.25344  24614831.0844   24614834.1844
 95  2  8  2 57  0.0000000  0  8G24G 4G 5G 9G 2G12G 7G26
 -14965116.56744 -11661116.89844  22270361.7714   22270364.0324
 -23179264.58344 -18061752.23744  20805765.9624   20805766.4584
  -8857872.64444  -6902228.22944  23642572.1714   23642574.3104
 -19238091.22544 -14990708.43344  21543170.3464   21543171.1194
 -14434676.30844 -11247775.51144  22744887.4874   22744889.2184
 -22810950.677 4 -17774752.539 4  20798296.339    20798294.134
 -19023934.46844 -14823821.32444  21501511.8044   21501512.9394
   1787914.14044   1393179.81644  24628513.8014   24628513.3014
 95  2  8  2 57 30.0000000  0  8G24G 4G 5G 9G 2G12G 7G26
 -15059618.56444 -11734754.79844  22252378.5944   22252380.7934
 -23210536.54944 -18086119.99644  20799815.0094   20799815.5514
  -8938905.10244  -6965370.36544  23627152.1274   23627153.1014
 -19285503.76344 -15027653.26744  21534148.0824   21534148.8654
 -14371643.94344 -11198659.40044  22756882.4034   22756884.1484
 -22840186.764 4 -17797533.908 4  20792732.910    20792730.694
 -18963477.21944 -14776711.78144  21513016.4904   21513017.7424
   1859916.75344   1449285.76644  24642215.7154   24642217.8314
 95  2  8  2 58  0.0000000  0  8G24G 4G 5G 9G 2G12G 7G26
 -15153819.88744 -11808158.41344  22234452.6844   22234455.0434
 -23241184.80744 -18110001.74544  20793982.8654   20793983.3724
  -9019889.82344  -7028475.31044  23611741.4404   23611742.9564
 -19332389.32344 -15064187.47044  21525226.1414   21525226.9224
 -14308337.68544 -11149329.86844  22768929.4194   22768930.9544
 -22868926.755 4 -17819928.708 4  20787263.885    20787261.650
 -18902813.16644 -14729441.09344  21524560.6854   21524562.1484
   1932007.76444   1505460.55844  24655934.2154   24655937.0374
 95  2  8  2 58 30.0000000  0  8G24G 4G 5G 9G 2G12G 7G26
 -15247664.31644 -11881283.92944  22216594.6964   22216597.1794
 -23271191.98544 -18133383.95144  20788272.7084   20788273.3444
  -9100796.51644  -7091519.45844  23596345.1594   23596345.8384
 -19378734.93844 -15100300.93544  21516406.8074   21516407.4204
 -14244722.86644 -11099759.89144  22781035.0754   22781035.7914
 -22897148.722 4 -17841919.852 4  20781893.423    20781891.196
 -18841898.74644 -14681975.30744  21536152.1054   21536153.4144
   2004216.28844   1561726.94644  24669674.7534   24669676.9864
 95  2  8  2 59  0.0000000  0  8G24G 4G 5G 9G 2G12G 7G26
 -15341274.72444 -11954227.08644  22198781.1324   22198783.8694
 -23300704.94744 -18156381.05444  20782656.5124   20782657.0494
  -9181784.92444  -7154627.26344  23580933.7764   23580935.0824
 -19424698.04444 -15136116.34244  21507660.3114   21507660.8844
 -14180923.17644 -11050045.85344  22793175.6394   22793177.4254
 -22925005.058 4 -17863626.091 4  20776592.532    20776590.287
 -18780892.04644 -14634437.62444  21547761.3594   21547762.6874
   2076378.64244   1617957.34144  24683406.7974   24683410.1774
 95  2  8  2 59 30.0000000  0  8G24G 4G 5G 9G 2G12G 7G26
 -15434487.13244 -12026860.12044  22181043.3834   22181046.0284
 -23329577.37344 -18178879.03744  20777162.2084   20777162.8554
  -9262717.34644  -7217691.46444  23565532.7644   23565533.5524
 -19470125.48944 -15171514.35244  21499015.7814   21499016.4844
 -14116784.98044 -11000068.05244  22805380.4104   22805381.4924
 -22952347.050 4 -17884931.539 4  20771389.512    20771387.281
 -18719665.87044 -14586728.91644  21559412.3334   21559413.8164
   2148617.18944   1674247.08344  24697153.3224   24697154.3124
 95  2  8  3  0  0.0000000  0  8G24G 4G 5G 9G 2G12G 7G26
 -15527321.96344 -12099198.93844  22163377.5334   22163379.0944
 -23357823.35844 -18200888.88744  20771787.2084   20771788.0114
  -9343604.36144  -7280720.28144  23550140.4724   23550142.1714
 -19515005.28644 -15206485.62244  21490475.4544   21490476.2584
 -14052306.05344 -10949824.74744  22817650.2464   22817651.7364
 -22979181.595 4 -17905841.577 4  20766283.084    20766280.852
 -18658262.06744 -14538881.79644  21571097.2564   21571098.4904
   2220909.27744   1730578.61244  24710910.2484   24710913.4034
 95  2  8  3  0 30.0000000  0  8G24G 4G 5G 9G 2G12G 7G26
 -15619855.25844 -12171302.78544  22145769.0844   22145771.2844
 -23385490.46144 -18222447.65844  20766522.3454   20766523.0024
  -9424514.79244  -7343767.34444  23534743.8454   23534745.0974
 -19559380.37244 -15241063.61044  21482031.0884   21482031.9474
 -13987553.07644 -10899367.91144  22829972.3664   22829975.2874
 -23005565.125 4 -17926400.173 4  20761262.474    20761260.224
 -18596759.29944 -14490957.56244  21582800.6954   21582802.2124
   2293175.87144   1786890.23644  24724661.8184   24724664.5934
 95  2  8  3  1  0.0000000  0  8G24G 4G 5G 9G 2G12G 7G26
 -15712172.45144 -12243238.24844  22128201.5704   22128203.8974
 -23412631.78544 -18243596.73244  20761357.5304   20761358.0924
  -9505514.07744  -7406883.62344  23519329.8764   23519331.8104
 -19603300.26344 -15275286.90744  21473673.3904   21473673.9984
 -13922590.88744 -10848748.03644  22842334.5524   22842336.3464
 -23031546.166 4 -17946645.142 4  20756318.427    20756316.218
 -18535230.85444 -14443013.32444  21594509.2444   21594510.3454
   2365347.03544   1843127.46244  24738395.7734   24738397.0344
 95  2  8  3  1 30.0000000  0  8G24G 4G 5G 9G 2G12G 7G26
 -15804379.56544 -12315087.93244  22110655.1874   22110657.4004
 -23439323.42644 -18264395.40344  20756278.4184   20756278.9104
  -9586686.90244  -7470135.15744  23503883.2254   23503884.6144
 -19646853.39744 -15309224.41344  21465385.6124   21465386.3324
 -13857538.96644 -10798058.23544  22854713.6564   22854716.1214
 -23057204.163 4 -17966638.388 4  20751435.874    20751433.679
 -18473758.01244 -14395112.40944  21606207.0004   21606208.5254
   2437339.53044   1899225.49844  24752095.4274   24752099.1884
 95  2  8  3  2  0.0000000  0  8G24G 4G 5G 9G 2G12G 7G26
 -15896332.80344 -12386739.78844  22093157.0434   22093159.2444
 -23465419.67544 -18284730.13544  20751312.4034   20751312.9804
  -9667876.31044  -7533399.59744  23488433.4154   23488435.0114
 -19689904.17744 -15342770.47744  21457193.1534   21457193.8534
 -13792261.29244 -10747192.54344  22867135.5574   22867137.9974
 -23082393.027 4 -17986266.075 4  20746642.587    20746640.398
 -18412179.03544 -14347128.79144  21617925.1844   21617926.3864
   2509308.83044   1955305.47044  24765790.9424   24765792.9364
 95  2  8  3  2 30.0000000  0  8G24G 4G 5G 9G 2G12G 7G26
 -15987844.06244 -12458047.24544  22075742.9974   22075745.0544
 -23490746.60044 -18304465.39344  20746492.8164   20746493.3244
  -9748892.43644  -7596529.03944  23473016.5774   23473018.0434
 -19732286.69044 -15375795.81444  21449128.1844   21449128.8964
 -13726588.21644 -10696018.75444  22879632.7584   22879634.8954
 -23106933.555 4 -18005388.564 4  20741972.694    20741970.490
 -18350296.60544 -14298908.71744  21629700.9184   21629702.2434
   2581449.50344   2011518.98644  24779518.8294   24779521.3304
 95  2  8  3  3  0.0000000  0  8G24G 4G 5G 9G 2G12G 7G26
 -16079028.17344 -12529099.78844  22058391.2014   22058393.5394
 -23515445.21144 -18323711.05544  20741792.8724   20741793.4364
  -9829836.14044  -7659602.02344  23457613.3334   23457615.1384
 -19774124.81344 -15408396.95344  21441166.5404   21441167.4274
 -13660638.38944 -10644629.31044  22892182.3844   22892185.2614
 -23130950.595 4 -18024103.142 4  20737402.412    20737400.189
 -18288226.20144 -14250542.16744  21641512.6204   21641514.0534
   2653642.91044   2067773.55844  24793256.7524   24793257.3504
 95  2  8  3  3 30.0000000  0  8G24G 4G 5G 9G 2G12G 7G26
 -16169936.45044 -12599937.38244  22041092.0884   22041094.1604
 -23539606.19944 -18342537.78944  20737195.1114   20737195.6684
  -9910762.63544  -7722661.61244  23442213.5724   23442215.6864
 -19815491.07944 -15440630.40544  21433294.8364   21433295.5674
 -13594479.21044 -10593076.74144  22904772.0634   22904774.8044
 -23154522.322 4 -18042470.722 4  20732916.855    20732914.674
 -18226032.48544 -14202079.53244  21653347.5584   21653348.8874
   2725814.78444   2124011.37844  24806990.3124   24806992.3164
 95  2  8  3  4  0.0000000  0  8G24G 4G 5G 9G 2G12G 7G26
 -16260703.03744 -12670664.58444  22023819.5764   22023821.4674
 -23563390.62544 -18361071.10144  20732669.1074   20732669.7294
  -9991803.28944  -7785810.16044  23426792.0884   23426792.2254
 -19856516.87744 -15472598.56044  21425487.9984   21425488.7144
 -13528238.46044 -10541460.57444  22917377.2654   22917378.8094
 -23177791.259 4 -18060602.364 4  20728488.928    20728486.730
 -18163863.34544 -14153636.05244  21665178.0414   21665179.2704
   2797826.28344   2180124.27044  24820693.9134   24820697.1284
 95  2  8  3  4 30.0000000  0  8G24G 4G 5G 9G 2G12G 7G26
 -16351180.39944 -12741166.41544  22006602.5554   22006604.5604
 -23586654.14344 -18379198.50844  20728242.2074   20728242.6504
 -10072814.90644  -7848936.07444  23411376.2204   23411377.5734
 -19897056.00444 -15504187.49444  21417773.7854   21417774.5074
 -13461762.86144 -10489661.44244  22930027.0694   22930029.1574
 -23200605.966 4 -18078380.059 4  20724147.446    20724145.250
 -18101580.63144 -14105104.07044  21677029.9894   21677031.5434
   2869823.21444   2236225.75444  24834394.7264   24834397.8564
 95  2  8  3  5  0.0000000  0  8G24G 4G 5G 9G 2G12G 7G26
 -16441229.30344 -12811334.37944  21989466.7814   21989468.7864
 -23609277.46744 -18396827.06544  20723937.0014   20723937.6814
 -10153669.66744  -7911939.76344  23395989.8964   23395990.7034
 -19936971.97944 -15535290.85444  21410177.8984   21410178.6274
 -13394921.36644 -10437577.17644  22942746.7864   22942749.5814
 -23222832.972 4 -18095699.807 4  20719917.789    20719915.598
 -18039064.74044 -14056390.39544  21688926.5034   21688927.4424
   2941919.34344   2292404.52444  24848114.1434   24848118.4584
 95  2  8  3  5 30.0000000  0  8G24G 4G 5G 9G 2G12G 7G26
 -16530863.32544 -12881179.06444  21972409.9324   21972411.8394
 -23631270.75844 -18413964.68544  20719751.9054   20719752.4914
 -10234403.75644  -7974849.42844  23380626.7154   23380628.4094
 -19976281.87744 -15565921.94544  21402697.5084   21402698.0614
 -13327734.04544 -10385223.40444  22955532.2374   22955533.9184
 -23244485.932 4 -18112572.247 4  20715797.384    20715795.149
 -17976330.60044 -14007506.65444  21700864.3644   21700865.5244
   3014107.16244   2348654.74544  24861850.7434   24861852.9064
 95  2  8  3  6  0.0000000  0  8G24G 4G 5G 9G 2G12G 7G26
 -16620117.26544 -12950727.57144  21955425.3934   21955428.0054
 -23652639.71744 -18430615.81544  20715685.5234   20715685.9784
 -10315070.70544  -8037706.75644  23365276.1844   23365278.1184
 -20015023.36944 -15596110.12144  21395325.2494   21395325.9934
 -13260237.26944 -10332628.51944  22968376.5124   22968378.8194
 -23265594.538 4 -18129020.515 4  20711780.546    20711778.298
 -17913405.28144 -13958473.93944  21712838.6524   21712840.0484
   3086362.26744   2404957.43244  24875600.2234   24875603.5024
 95  2  8  3  6 30.0000000  0  8G24G 4G 5G 9G 2G12G 7G26
 -16708859.24444 -13019877.16644  21938538.1794   21938540.4604
 -23673244.39044 -18446671.40244  20711764.5694   20711765.0714
 -10395554.44144  -8100421.34744  23349960.8084   23349961.6704
 -20053078.59344 -15625763.54844  21388083.3624   21388084.0724
 -13192310.23544 -10279698.38644  22981302.5314   22981304.8754
 -23286038.176 4 -18144950.626 4  20707890.244    20707888.008
 -17850168.40144 -13909198.44744  21724872.2404   21724873.7624
   3158797.08844   2461400.16644  24889384.3964   24889389.4164
 95  2  8  3  7  0.0000000  0  8G24G 4G 5G 9G 2G12G 7G26
 -16797605.42544 -13089030.02344  21921650.5374   21921652.7104
 -23693601.35244 -18462533.92044  20707890.7284   20707891.0514
 -10476391.41244  -8163411.17344  23334578.1604   23334579.4174
 -20090965.37144 -15655285.71544  21380873.8154   21380874.4334
 -13124485.78644 -10226848.20044  22994209.1504   22994210.3944
 -23306346.402 4 -18160775.222 4  20704025.725    20704023.449
 -17787148.32044 -13860091.89544  21736864.4604   21736865.8624
   3230879.15144   2517567.98944  24903101.2134   24903105.1764
 95  2  8  3  7 30.0000000  0  8G24G 4G 5G 9G 2G12G 7G26
 -16886039.14844 -13157939.40844  21904822.0034   21904824.0794
 -23713360.89044 -18477930.97444  20704130.6114   20704131.1874
 -10557273.33844  -8226436.03044  23319186.5674   23319188.1884
 -20128367.61144 -15684430.32244  21373756.4584   21373757.1014
 -13056442.04944 -10173827.12544  23007157.3094   23007159.1724
 -23326198.850 4 -18176244.665 4  20700247.935    20700245.670
 -17724017.98144 -13810899.43044  21748877.8264   21748879.0764
   3302919.85344   2573703.59344  24916810.2714   24916812.4744
 95  2  8  3  8  0.0000000  0  8G24G 4G 5G 9G 2G12G 7G26
 -16974235.20644 -13226663.60044  21888038.8564   21888040.6374
 -23732583.12144 -18492909.32944  20700472.7604   20700473.2704
 -10638257.59744  -8289540.62944  23303775.8574   23303777.2494
 -20165353.40044 -15713250.42144  21366718.5324   21366719.1184
 -12988240.41844 -10120683.03844  23020135.6154   23020138.7784
 -23345662.051 4 -18191410.799 4  20696544.196    20696542.009
 -17660862.25344 -13761687.17444  21760896.0044   21760897.0154
   3374819.58044   2629729.35244  24930492.2914   24930495.0764
 95  2  8  3  8 30.0000000  0  8G24G 4G 5G 9G 2G12G 7G26
 -17062128.15544 -13295151.59544  21871313.5524   21871315.3504
 -23751225.76344 -18507436.05444  20696925.0714   20696925.8134
 -10719267.97944  -8352665.59044  23288359.9584   23288361.3394
 -20201851.15944 -15741690.23844  21359773.0884   21359773.7094
 -12919809.72244 -10067360.44944  23033157.6904   23033159.5744
 -23364668.766 4 -18206221.229 4  20692927.320    20692925.090
 -17597628.09344 -13712413.81244  21772929.0654   21772930.6104
   3446616.46144   2685674.93144  24944154.5694   24944158.1684
 95  2  8  3  9  0.0000000  0  8G24G 4G 5G 9G 2G12G 7G26
 -17149352.63544 -13363118.70944  21854715.2574   21854716.9814
 -23768939.21244 -18521238.73244  20693554.4004   20693554.7744
 -10799936.48844  -8415524.15844  23273009.3324   23273010.8394
 -20237484.19644 -15769456.24344  21352992.2014   21352992.6054
 -12850777.43244 -10013569.09044  23046293.9284   23046294.2374
 -23382844.650 4 -18220384.258 4  20689468.259    20689466.349
 -17533940.30944 -13662786.97144  21785048.5314   21785049.3214
   3518669.86844   2741820.46744  24957865.8624   24957867.8174
 95  2  8  3  9 30.0000000  0  8G24G 4G 5G 9G 2G12G 7G26
 -17236384.51044 -13430935.75044  21838153.6274   21838155.8344
 -23786197.79344 -18534686.96944  20690270.2144   20690270.7774
 -10880714.99644  -8478468.43344  23257637.7934   23257640.0794
 -20272709.04644 -15796904.18344  21346289.1074   21346289.7234
 -12781613.99044  -9959675.50844  23059455.3424   23059457.2614
 -23400652.878 4 -18234260.802 4  20686079.818    20686077.574
 -17470263.96744 -13613169.04644  21797165.6554   21797166.7804
   3590503.21044   2797794.51844  24971535.2654   24971534.8174
 95  2  8  3 10  0.0000000  0  8G24G 4G 5G 9G 2G12G 7G26
 -17323427.54544 -13498761.47644  21821589.9274   21821591.8904
 -23803235.90344 -18547963.41244  20687027.8854   20687028.5664
 -10961807.10444  -8541657.07544  23242206.4254   23242208.0044
 -20307729.88644 -15824193.15244  21339625.0384   21339625.7484
 -12712544.66844  -9905855.26944  23072598.9904   23072600.4564
 -23418307.155 4 -18248017.384 4  20682720.307    20682718.085
 -17406817.77144 -13563730.45444  21809239.1904   21809240.6024
   3661527.34444                  24985122.6024
 95  2  8  3 10 30.0000000  0  8G24G 4G 5G 9G 2G12G 7G26
 -17409882.01444 -13566128.57944  21805138.1344   21805139.7754
 -23819466.89344 -18560610.92944  20683939.2434   20683939.8824
 -11042622.87044  -8604630.37944  23226827.5664   23226829.3014
 -20341950.76644 -15850858.77844  21333113.0114   21333113.8534
 -12643004.74044  -9851668.33544  23085832.0864   23085833.8714
 -23435221.295 4 -18261197.238 4  20679501.691    20679499.416
 -17343009.16944 -13514009.47544  21821381.3944   21821382.8814
   3732388.07044                  24998749.7164
 95  2  8  3 11  0.0000000  0  7G24G 5G 9G 2G 7G 4G12
 -17495862.71244 -13633126.51244  21788776.5044   21788778.6034
 -11123265.33844  -8667468.66844  23211482.0564   23211483.9454
 -20375481.41744 -15876986.56244  21326732.2604   21326733.1504
 -12573123.90644  -9797215.74244  23099129.8794   23099131.0204
 -17278955.35844 -13464097.42144  21833570.3914   21833572.1474
 -23834981.00544 -18572699.84144  20680987.1074   20680987.7064
 -23451506.651 4 -18273887.129 4  20676402.693    20676400.445
 95  2  8  3 11 30.0000000  0  7G24G 4G 5G 9G 2G12G 7
 -17581549.72044 -13699895.59844  21772470.8394   21772472.6454
 -23849937.48444 -18584354.23544  20678140.9104   20678141.4714
 -11203906.76244  -8730306.12344  23196136.4604   23196137.8704
 -20408507.32444 -15902721.04044  21320447.5694   21320448.2344
 -12503092.59544  -9742645.89044  23112456.4884   23112458.4694
 -23467342.040 4 -18286226.397 4  20673389.301    20673387.045
 -17214843.67244 -13414140.26644  21845770.4514   21845771.5324
 95  2  8  3 12  0.0000000  0  8G24G 4G 5G 9G 2G12G 7G26
 -17666892.28744 -13766396.28044  21756230.5794   21756232.5724
 -23864283.77944 -18595533.15944  20675410.9824   20675411.4094
 -11284496.40044  -8793103.23244  23180800.5534   23180801.8074
 -20441003.62044 -15928042.83344  21314263.8544   21314264.3744
 -12432843.70944  -9687906.50944  23125824.4194   23125826.4114
 -23482674.365 4 -18298173.667 4  20670471.560    20670469.405
 -17150632.91944 -13364105.91844  21857989.3004   21857990.4404
         0.12054         0.71254  25039664.8514   25039668.2674
 95  2  8  3 12 30.0000000  0  8G24G 4G 5G 9G 2G12G 7G26
 -17751527.02744 -13832345.41644  21740125.1454   21740126.5324
 -23877636.64544 -18605937.98144  20672869.9764   20672869.9324
 -11364659.33344  -8855567.82644  23165546.0474   23165547.2344
 -20472605.82644 -15952667.93544  21308250.2184   21308250.6364
 -12361980.33244  -9632688.31844  23139309.1404   23139310.0094
 -23497127.647 4 -18309435.967 4  20667721.008    20667719.044
 -17085951.67544 -13313704.95244  21870297.7784   21870298.3014
     71976.06144     56085.35744  25053361.5734   25053364.5254
 95  2  8  3 13  0.0000000  0  8G24G 4G 5G 9G 2G12G 7G26
 -17835957.41544 -13898135.31144  21724058.5494   21724060.2974
 -23890501.12444 -18615962.24544  20670421.9694   20670422.3724
 -11444904.46244  -8918096.48644  23150275.8784   23150277.1144
 -20503821.44444 -15976991.79844  21302309.9884   21302310.7524
 -12290977.92644  -9577361.81244  23152820.2414   23152823.3964
 -23511199.317 4 -18320400.911 4  20665043.573    20665041.299
 -17021293.03744 -13263321.60344  21882601.9464   21882603.8024
    143766.56144    112026.01944  25067022.6174   25067021.4614
 95  2  8  3 13 30.0000000  0  8G24G 4G 5G 9G 2G12G 7G26
 -17920316.14444 -13963869.37244  21708005.7384   21708008.1384
 -23903030.30844 -18625725.23844  20668037.6534   20668038.2064
 -11525390.53644  -8980812.89544  23134959.9124   23134960.8294
 -20534793.30944 -16001125.72644  21296416.1594   21296416.9284
 -12219958.25044  -9522021.84744  23166334.8214   23166337.8504
 -23525030.957 4 -18331178.817 4  20662411.475    20662409.206
 -16956791.92444 -13213061.00244  21894876.2784   21894877.5104
    215211.60144    167697.52644  25080618.3044   25080619.5804
 95  2  8  3 14  0.0000000  0  8G24G 4G 5G 9G 2G12G 7G26
 -18004635.21544 -14029572.53144  21691960.2644   21691962.3964
 -23915273.15344 -18635265.11144  20665708.0164   20665708.5524
 -11606162.57944  -9043752.13844  23119589.6074   23119590.5004
 -20565548.83544 -16025091.07844  21290563.7174   21290564.6124
 -12148948.20344  -9466689.38844  23179848.0054   23179849.7184
 -23538663.626 4 -18341801.682 4  20659817.278    20659815.039
 -16892486.42744 -13162952.82844  21907113.1324   21907114.0994
    286257.66244    223057.99544  25094138.0304   25094142.9924
 95  2  8  3 14 30.0000000  0  8G24G 4G 5G 9G 2G12G 7G26
 -18088617.83444 -14095013.51944  21675978.8934   21675981.4194
 -23926937.45444 -18644354.17044  20663488.2934   20663488.8264
 -11686941.67144  -9106696.88144  23104217.7144   23104219.5294
 -20595762.72044 -16048634.37144  21284814.2114   21284815.0434
 -12077674.63844  -9411151.58944  23193410.8734   23193412.0544
 -23551805.386 4 -18352042.020 4  20657316.484    20657314.263
 -16828071.82544 -13112759.64044  21919370.7554   21919372.3404
    357183.87444    278325.16944  25107634.7384   25107637.9594
 95  2  8  3 15  0.0000000  0  8G24G 4G 5G 9G 2G12G 7G26
 -18171951.29144 -14159948.66844  21660121.0344   21660123.1984
 -23937725.21644 -18652760.21144  20661435.4144   20661435.9644
 -11767432.97044  -9169417.35144  23088900.8884   23088902.7884
 -20625129.87044 -16071517.86644  21279225.7054   21279226.6374
 -12005857.96444  -9355190.56344  23207077.2284   23207080.3194
 -23564154.712 4 -18361664.876 4  20654966.503    20654964.232
 -16763257.54644 -13062255.01444  21931704.4034   21931705.6894
    428307.54944    333746.22744  25121169.5284   25121171.0824
 95  2  8  3 15 30.0000000  0  8G24G 4G 5G 9G 2G12G 7G26
 -18254912.47744 -14224593.73944  21644334.1464   21644335.9694
 -23947925.29044 -18660708.31444  20659494.4014   20659494.8814
 -11847916.62244  -9232131.88144  23073585.1404   23073586.3384
 -20653927.64544 -16093957.69944  21273745.7694   21273746.6484
 -11933799.45844  -9299041.10944  23220789.7034   23220791.5954
 -23575993.976 4 -18370890.283 4  20652713.562    20652711.313
 -16698340.28944 -13011670.14244  21944057.9204   21944059.7874
    499353.47444    389106.69544  25134689.0364   25134692.2424
 95  2  8  3 16  0.0000000  0  8G24G 4G 5G 9G 2G12G 7G26
 -18337649.64444 -14289064.24544  21628589.6284   21628591.7504
 -23957676.37344 -18668306.55344  20657638.9284   20657639.4364
 -11928519.73544  -9294939.49544  23058246.9714   23058247.6634
 -20682297.24644 -16116063.88644  21268347.3164   21268348.1374
 -11861654.98944  -9242824.65444  23234518.1794   23234520.7724
 -23587463.823 4 -18379827.832 4  20650530.947    20650528.697
 -16633476.55644 -12961126.98444  21956401.0504   21956401.8894
    570180.56244    444296.63844  25148167.1174   25148169.2704
 95  2  8  3 16 30.0000000  0  8G24G 4G 5G 9G 2G12G 7G26
 -18419845.91444 -14353113.27344  21612948.2424   21612950.3324
 -23966664.24344 -18675310.08244  20655928.5544   20655929.0794
 -12008927.14244  -9357594.60444  23042945.8924   23042948.5994
 -20709943.36144 -16137606.31644  21263086.3664   21263087.1534
 -11789128.10344  -9186310.19744  23248319.4744   23248319.3724
 -23598251.749 4 -18388234.011 4  20648478.074    20648475.798
 -16568361.46244 -12910387.95444  21968792.1694   21968793.3564
    641098.34844    499557.22844  25161662.0284
 95  2  8  3 17  0.0000000  0  8G24G 4G 5G 9G 2G12G 7G26
 -18501596.21044 -14416814.79244  21597391.6624   21597393.8674
 -23975002.29144 -18681807.25344  20654341.9264   20654342.4034
 -12089229.07744  -9420167.52744  23027664.8374   23027665.8474
 -20736991.10144 -16158682.48544  21257939.1344   21257939.7714
 -11716315.77844  -9129573.32644  23262175.3294   23262177.3474
 -23608462.034 4 -18396190.082 4  20646535.107    20646532.873
 -16503109.61744 -12859542.36744  21981209.1324   21981210.2534
    712011.70344                  25175156.4454
 95  2  8  3 17 30.0000000  0  8G24G 4G 5G 9G 2G12G 7G26
 -18583070.79844 -14480301.47644  21581887.5274   21581889.8804
 -23982866.88744 -18687935.50244  20652845.3144   20652845.7144
 -12169586.98844  -9482784.07244  23012373.3084   23012375.6624
 -20763602.76944 -16179418.85444  21252875.2474   21252875.9504
 -11643374.80144  -9072736.20344  23276055.5154   23276055.8764
 -23618261.905 4 -18403826.350 4  20644670.265    20644668.007
 -16437874.93944 -12808710.15644  21993622.7674   21993624.0624
    782750.95844    609935.78544  25188617.8044   25188621.4214
 95  2  8  3 18  0.0000000  0  8G24G 4G 5G 9G 2G12G 7G26
 -18664098.17544 -14543439.68144  21566468.6594   21566471.0904
 -23990088.44344 -18693562.68144  20651471.0004   20651471.5614
 -12249823.05444  -9545305.66844  22997104.9354   22997105.6564
 -20789607.50844 -16199682.29344  21247926.7944   21247927.6984
 -11570119.52644  -9015654.18244  23289995.3644   23289998.3964
 -23627478.868 4 -18411008.402 4  20642916.343    20642914.090
 -16372482.30744 -12757754.86344  22006066.5894   22006068.6274
    853481.75344    665050.79244  25202077.6784
 95  2  8  3 18 30.0000000  0  8G24G 4G 5G 9G 2G12G 7G26
 -18744640.84744 -14606200.19044  21551141.7844   21551143.5514
 -23996647.34044 -18698673.50244  20650222.8644   20650223.4244
 -12329919.68744  -9607718.59644  22981863.0404   22981864.2884
 -20814982.38244 -16219454.93144  21243098.0844   21243098.9994
 -11496522.13644  -8958305.61544  23304000.5204   23304002.3284
 -23636086.327 4 -18417715.517 4  20641278.399    20641276.125
 -16306890.23444 -12706644.16644  22018548.4584   22018549.5194
    924238.16544                  25215542.0544
 95  2  8  3 19  0.0000000  0  8G24G 4G 5G 9G 2G12G 7G26
 -18824622.92644 -14668523.87644  21535921.6814   21535923.7394
 -24002454.67244 -18703198.68844  20649117.7534   20649118.3474
 -12409774.60344  -9669943.23044  22966667.0424   22966668.3464
 -20839619.64944 -16238652.80444  21238409.8144   21238410.5924
 -11422480.30244  -8900610.70844  23318090.3034   23318091.6924
 -23643990.594 4 -18423874.689 4  20639774.289    20639771.963
 -16241008.76144 -12655307.95844  22031085.1364   22031086.6514
    995110.93844    775411.12744  25229028.3934   25229028.9854
 95  2  8  3 19 30.0000000  0  8G24G 4G 5G 9G 2G12G 7G26
 -18904377.01944 -14730669.91144  21520744.9274   21520747.1594
 -24007820.24844 -18707379.64944  20648096.6714   20648097.2204
 -12489706.40544  -9732227.74744  22951456.6954   22951457.5294
 -20863834.42244 -16257521.46844  21233801.8384   21233802.7564
 -11348314.93844  -8842819.56544  23332203.4864   23332204.8044
 -23651513.952 4 -18429737.051 4  20638342.635    20638340.313
 -16175176.10244 -12604009.78744  22043612.8284   22043614.0554
   1065758.78944    830461.42244  25242472.2484
 95  2  8  3 20  0.0000000  0  8G24G 4G 5G 9G 2G12G 7G26
 -18984104.36244 -14792795.10444  21505573.4244   21505575.4294
 -24012925.86644 -18711358.04844  20647125.0584   20647125.6714
 -12569908.75944  -9794723.06944  22936194.6804   22936196.2014
 -20887837.65544 -16276225.29344  21229234.1914   21229234.8974
 -11274230.05744  -8785091.08944  23346301.6434   23346303.7364
 -23658853.140 4 -18435455.905 4  20636946.019    20636943.728
 -16109597.26344 -12552909.40244  22056092.0444   22056092.8354
   1135966.56644    885168.72144  25255832.2524   25255832.5174
 95  2  8  3 20 30.0000000  0  8G24G 4G 5G 9G 2G12G 7G26
 -19063453.33044 -14854625.45744  21490473.8284   21490475.8914
 -24017397.89844 -18714842.74444  20646274.1584   20646274.7784
 -12650027.40044  -9857153.16844  22920948.5144   22920949.2024
 -20911278.47544 -16294490.87644  21224773.5644   21224774.5464
 -11199884.48944  -8727159.52044  23360448.9874   23360452.4604
 -23665651.018 4 -18440752.959 4  20635652.451    20635650.139
 -16043909.18644 -12501723.89744  22068592.0884   22068593.2144
   1206081.70444                  25269175.2184
 95  2  8  3 21  0.0000000  0  8G24G 4G 5G 9G 2G12G 7G26
 -19142353.17844 -14916105.84644  21475459.5494   21475461.4714
 -24021154.91444 -18717770.28344  20645559.2734   20645559.8274
 -12729996.10744  -9919466.42944  22905730.9884   22905732.0924
 -20934084.31144 -16312261.66344  21220433.7284   21220434.6094
 -11125205.07744  -8668967.79744  23374660.0784   23374663.2524
 -23671838.197 4 -18445574.142 4  20634475.063    20634472.762
 -15978056.36544 -12450410.01044  22081123.5354   22081125.2054
   1276158.81444    994409.44344  25282510.3594
 95  2  8  3 21 30.0000000  0  8G24G 4G 5G 9G 2G12G 7G26
 -19220726.16344 -14977175.68844  21460545.5874   21460547.5614
 -24024138.39444 -18720095.06644  20644991.5204   20644992.1214
 -12809781.09444  -9981636.52744  22890548.4194   22890550.1784
 -20956211.91344 -16329503.95644  21216222.9454   21216223.5344
 -11050146.81244  -8610480.87844  23388943.3804   23388944.6144
 -23677357.017 4 -18449874.526 4  20633424.860    20633422.549
 -15911976.29044 -12398919.05244  22093697.9644   22093699.5094
   1346247.90944   1049024.32644  25295847.7094
 95  2  8  3 22  0.0000000  0  8G24G 4G 5G 9G 2G12G 7G26
 -19298773.60344 -15037991.86544  21445693.6544   21445695.6034
 -24026566.80744 -18721987.33144  20644529.2794   20644529.8384
 -12889609.84544 -10043840.74444  22875357.5274   22875358.4844
 -20977871.97544 -16346381.93344  21212101.2304   21212102.0424
 -10974931.54244  -8551871.60344  23403256.1544   23403256.1434
 -23682418.060 4 -18453818.199 4  20632461.795    20632459.490
 -15845855.68744 -12347396.51044  22106280.3254   22106281.5324
   1416137.63244   1103483.80844  25309147.3334
 95  2  8  3 22 30.0000000  0  8G24G 4G 5G 9G 2G12G 7G26
 -19376532.40644 -15098583.12944  21430896.7594   21430898.9944
 -24028503.57644 -18723496.49744  20644160.7004   20644161.3174
 -12969541.76544 -10106125.35344  22860146.9844   22860148.6404
 -20999102.15544 -16362924.93844  21208061.2964   21208062.1694
 -10899619.17344  -8493186.66144  23417587.5824   23417589.0624
 -23687074.792 4 -18457446.829 4  20631575.668    20631573.356
 -15779750.49244 -12295885.97544  22118859.8904   22118861.3284
   1485780.32044   1157750.86044  25322399.6844
 95  2  8  3 23  0.0000000  0  8G24G 4G 5G 9G 2G12G 7G26
 -19453958.96944 -15158915.50644  21416162.9104   21416164.8724
 -24029934.09844 -18724611.18444  20643888.5134   20643889.1104
 -13049538.63644 -10168460.56844  22844924.0714   22844925.2484
 -21019853.05144 -16379094.47644  21204112.4364   21204113.3774
 -10824168.41644  -8434393.87544  23431945.5114   23431947.2554
 -23691293.244 4 -18460733.941 4  20630772.939    20630770.637
 -15713641.18244 -12244372.23144  22131439.9594   22131441.3454
   1555211.03144   1211852.71544  25335612.0264
 95  2  8  3 23 30.0000000  0  8G24G 4G 5G 9G 2G12G 7G26
 -19530876.69344 -15218851.38144  21401525.8534   21401527.7034
 -24030691.17144 -18725201.10844  20643744.4994   20643745.0424
 -13129408.03044 -10230696.45444  22829725.4794   22829726.8124
 -21039934.13444 -16394742.08244  21200291.2724   21200292.3094
 -10748405.15944  -8375357.62344  23446362.8034   23446362.6774
 -23694887.927 4 -18463534.997 4  20630088.899    20630086.606
 -15647332.61744 -12192703.22444  22144058.0804   22144059.5104
   1624615.48044   1265934.07844  25348819.1354
 95  2  8  3 24  0.0000000  0  8G24G 4G 5G 9G 2G12G 7G26
 -19607300.61544 -15278402.47944  21386983.0144   21386985.1344
 -24030789.81244 -18725277.96544  20643725.6944   20643726.2394
 -13209145.29844 -10292829.37544  22814551.9374   22814553.6474
 -21059347.32244 -16409869.25144  21196597.1804   21196597.9714
 -10672337.75544  -8316084.32744  23460837.8294   23460839.0954
 -23697872.204 4 -18465860.414 4  20629521.024    20629518.696
 -15580840.83744 -12140891.45344  22156711.0584   22156712.1054
   1693992.41044                  25362021.0024
 95  2  8  3 24 30.0000000  0  8G24G 4G 5G 9G 2G12G 7G26
 -19683172.17844 -15337523.17144  21372545.0784   21372546.7844
 -24030176.74844 -18724800.24644  20643842.3944   20643842.9244
 -13288682.54344 -10354806.44444  22799416.5014   22799417.8694
 -21078039.38044 -16424434.49844  21193039.9864   21193040.7934
 -10595901.66244  -8256523.76844  23475383.2244   23475386.2264
 -23700189.073 4 -18467665.770 4  20629080.145    20629077.820
 -15514134.65444 -12088912.61844  22169404.7274   22169406.0294
   1763409.31844   1374085.04544  25375230.8844
 95  2  8  3 25  0.0000000  0  8G24G 4G 5G 9G 2G12G 7G26
 -19758501.65844 -15396221.45644  21358210.3534   21358212.2024
 -24028852.37244 -18723768.26044  20644094.4754   20644094.9304
 -13368017.56944 -10416625.92844  22784319.4844   22784320.4064
 -21096014.97644 -16438441.46644  21189619.4514   21189620.2554
 -10519078.81244  -8196661.82244  23490002.2554   23490004.1684
 -23701831.691 4 -18468945.736 4  20628767.540    20628765.248
 -15447211.13144 -12036764.42344  22182140.0204   22182141.7044
   1832871.41244   1428211.37544  25388449.1864
 95  2  8  3 25 30.0000000  0  8G24G 4G 5G 9G 2G12G 7G26
 -19833456.23144 -15454627.60344  21343946.9384   21343948.9394
 -24026980.71244 -18722309.81844  20644450.6194   20644451.1504
 -13447329.69144 -10478427.57944  22769226.8834   22769228.9474
 -21113461.65144 -16452036.28544  21186299.4124   21186300.0964
 -10442034.99044  -8136627.70844  23504663.2444   23504664.0274
 -23702968.445 4 -18469831.524 4  20628551.223    20628548.908
 -15380245.07444 -11984583.08344  22194883.1684   22194884.3194
   1902216.55444                  25401644.7424
 95  2  8  3 26  0.0000000  0  8G24G 4G 5G 9G 2G12G 7G26
 -19908311.48544 -15512956.36044  21329702.4244   21329704.4234
 -24024836.34744 -18720638.87944  20644858.6574   20644859.1544
 -13526902.90844 -10540432.67444  22754084.5394   22754086.5044
 -21130666.12544 -16465442.37544  21183025.6584   21183026.5404
 -10365046.47144  -8076636.67244  23519313.8104   23519315.8974
 -23703881.425 4 -18470542.942 4  20628377.506    20628375.209
 -15313531.94344 -11932598.83444  22207578.2484   22207579.6384
   1971150.49644   1535961.35144  25414762.4514
 95  2  8  3 26 30.0000000  0  8G24G 4G 5G 9G 2G12G 7G26
 -19982929.09344 -15571099.94244  21315503.2794   21315505.0394
 -24022288.73544 -18718653.72244  20645343.4724   20645343.8994
 -13606599.82444 -10602534.15544  22738918.8354   22738919.9904
 -21147489.50644 -16478551.51244  21179824.3114   21179825.1174
 -10287972.77644  -8016579.25044  23533980.4194   23533982.9124
 -23704429.673 4 -18470970.152 4  20628273.194    20628270.891
 -15246937.60044 -11880707.14544  22220250.8324   22220252.0894
   2039792.60144                  25427825.0174
 95  2  8  3 27  0.0000000  0  8G24G 4G 5G 9G 2G12G 7G26
 -20056968.62244 -15628793.06944  21301414.0084   21301415.8964
 -24018994.56344 -18716086.82844  20645970.2924   20645970.7854
 -13686081.90244 -10664468.23844  22723793.8854   22723795.6964
 -21163587.08344 -16491095.08744  21176761.0054   21176761.7624
 -10210472.00444  -7956189.06644  23548728.3254   23548729.7914
 -23704274.490 4 -18470849.235 4  20628302.716    20628300.385
 -15180115.85744 -11828638.25944  22232966.5424   22232967.8584
   2108461.33244                  25440891.9574
 95  2  8  3 27 30.0000000  0  8G24G 4G 5G 9G 2G12G 7G26
 -20130428.42844 -15686034.46344  21287434.9994   21287436.7664
 -24014955.83544 -18712939.76344  20646738.7424   20646739.2324
 -13765341.95144 -10726229.30844  22708711.1134   22708712.3414
 -21178964.85144 -16503077.77544  21173834.7304   21173835.6254
 -10132570.32244  -7895486.48244  23563552.6294   23563554.6794
 -23703425.603 4 -18470187.770 4  20628464.256    20628461.943
 -15113081.04744 -11776403.34644  22245722.8634   22245724.0894
   2177129.07844                  25453958.9944
 95  2  8  3 28  0.0000000  0  8G24G 4G 5G 9G 2G12G 7G26
 -20203304.48644 -15742820.99144  21273567.1254   21273568.6104
 -24010157.57344 -18709200.85144  20647651.8184   20647651.9434
 -13844351.26044 -10787794.99044  22693676.2344   22693676.6234
 -21193609.59844 -16514489.27444  21171047.9514   21171048.3434
 -10054266.81844  -7834470.81744  23578453.3464   23578454.3524
 -23701873.379 4 -18468978.249 4  20628759.287    20628757.355
 -15045816.37944 -11723989.32544  22258522.8534   22258524.2334
   2245795.35444                  25467025.6964
 95  2  8  3 28 30.0000000  0  8G24G 4G 5G 9G 2G12G 7G26
 -20275806.66644 -15799316.18544  21259770.3984   21259772.4714
 -24004812.09444 -18705035.53844  20648669.0964   20648669.6024
 -13923317.62244 -10849327.21644  22678649.2214   22678650.7514
 -21207739.88144 -16525499.89644  21168358.8974   21168359.7224
  -9975766.19344  -7773301.50244  23593391.2994   23593392.9264
 -23699828.028 4 -18467384.477 4  20629148.867    20629146.599
 -14978536.86644 -11671563.73644  22271325.7814   22271327.4724
   2314265.75344                  25480055.1974
 95  2  8  3 29  0.0000000  0  8G24G 4G 5G 9G 2G12G 7G26
 -20348399.06944 -15855881.68844  21245956.5624   21245958.6874
 -23999358.91144 -18700786.29844  20649706.8184   20649707.3824
 -14002697.11144 -10911181.36544  22663543.8464   22663545.3234
 -21221811.23344 -16536464.59344  21165681.2864   21165682.0744
  -9897530.92344  -7712338.97744  23608279.0864   23608283.0954
 -23697746.074 4 -18465762.180 4  20629545.070    20629542.778
 -14911694.12044 -11619478.48444  22284045.6774   22284046.9514
   2382087.96744                  25492961.4134
 95  2  8  3 29 30.0000000  0  8G24G 4G 5G 9G 2G12G 7G26
 -20420339.62544 -15911939.25144  21232266.7624   21232268.9594
 -23993052.53644 -18695872.23744  20650906.9114   20650907.4004
 -14081732.12944 -10972767.08244  22648504.0974   22648504.7514
 -21235071.80144 -16546797.51344  21163157.9344   21163158.8774
  -9818825.35344  -7651010.00444  23623256.2804   23623258.5704
 -23694872.075 4 -18463522.707 4  20630091.987    20630089.668
 -14844527.77544 -11567141.07444  22296826.6644   22296828.7094
   2450032.84144                  25505890.9344
 95  2  8  3 30  0.0000000  0  8G24G 4G 5G 9G 2G12G 7G26
 -20491823.56444 -15967641.00944  21218663.7994   21218665.7844
 -23986103.99244 -18690457.78044  20652229.1674   20652229.5954
 -14160633.07044 -11034248.33244  22633489.7294   22633490.9174
 -21247706.70744 -16556642.90344  21160753.5054   21160754.1684
  -9739829.81144  -7589455.02844  23638288.5054   23638293.1044
 -23691400.925 4 -18460817.921 4  20630752.503    20630750.221
 -14777224.45744 -11514696.93644  22309634.1694   22309635.1604
   2517916.75144                  25518808.8864
 95  2  8  3 30 30.0000000  0  8G24G 4G 5G 9G 2G12G 7G26
 -20562762.85344 -16022918.36744  21205164.5794   21205166.4944
 -23978440.36444 -18684486.11744  20653687.3964   20653687.8794
 -14239321.97144 -11095564.35344  22618515.8134   22618517.2984
 -21259623.03844 -16565928.36644  21158485.8424   21158486.6924
  -9660457.28644  -7527606.35244  23653392.7494   23653396.6994
 -23687250.400 4 -18457583.753 4  20631542.334    20631540.031
 -14709701.43044 -11462081.59544  22322483.5184   22322484.7584
   2585813.32744                  25531729.2794
 95  2  8  3 31  0.0000000  0  7G24G 5G 9G 2G 7G 4G12
 -20633372.27644 -16077938.68444  21191727.9904   21191729.9724
 -14318006.82244 -11156877.21344  22603542.4974   22603543.4644
 -21271013.55944 -16574804.10844  21156318.4584   21156319.2514
  -9580924.45144  -7465632.73444  23668527.0114   23668530.7774
 -14642154.57244 -11409447.69044  22335337.4094   22335339.0144
 -23970274.26744 -18678122.92144  20655241.3664   20655241.8334
 -23682628.127 4 -18453981.989 4  20632421.946    20632419.631
 95  2  8  3 31 30.0000000  0  7G24G 5G 9G 2G 7G 4G12
 -20703602.10444 -16132663.21344  21178363.5684   21178365.4494
 -14396660.71544 -11218165.96344  22588575.2054   22588575.9154
 -21281863.30644 -16583258.46544  21154253.7694   21154254.5574
  -9501190.27144  -7403502.22544  23683700.0394   23683703.2344
 -14574564.59344 -11356780.17444  22348199.0884   22348201.0594
 -23961590.47144 -18671356.32144  20656893.9254   20656894.4844
 -23677504.478 4 -18449989.541 4  20633396.971    20633394.619
 95  2  8  3 32  0.0000000  0  7G24G 5G 9G 2G 7G 4G12
 -20773390.22044 -16187043.55344  21165083.4534   21165085.5144
 -14475241.83444 -11279398.00044  22573621.6954   22573622.2074
 -21292134.33644 -16591261.87844  21152299.2774   21152300.0984
  -9421195.28144  -7341168.50844  23698922.8504   23698926.0384
 -14506896.18644 -11304051.55344  22361076.0914   22361077.2614
 -23952331.12044 -18664141.23844  20658655.9304   20658656.4444
 -23671832.450 4 -18445569.784 4  20634476.294    20634473.968
 95  2  8  3 32 30.0000000  0  7G24G 5G 9G 2G 7G 4G12
 -20842809.86144 -16241136.77044  21151873.2524   21151875.1824
 -14553815.93044 -11340624.56844  22558669.5504   22558670.7344
 -21301904.84944 -16598875.27544  21150440.0274   21150440.9314
  -9341024.78744  -7278698.04344  23714178.5544   23714179.2334
 -14439232.82444 -11251326.85744  22373951.9374   22373953.4954
 -23942541.66044 -18656513.08444  20660518.7394   20660519.1994
 -23665679.914 4 -18440775.607 4  20635647.085    20635644.776
 95  2  8  3 33  0.0000000  0  7G24G 5G 9G 2G 7G 4G12
 -20911814.07744 -16294906.27544  21138742.1684   21138743.9304
 -14632353.29444 -11401822.50444  22543724.2774   22543725.4644
 -21311148.60744 -16606078.21644  21148681.0184   21148682.0734
  -9260644.51244  -7216064.05144  23729474.4824   23729477.2784
 -14371543.87844 -11198582.23444  22386832.5514   22386834.4284
 -23932172.09644 -18648432.89944  20662491.9684   20662492.5044
 -23659004.529 4 -18435574.015 4  20636917.398    20636915.037
 95  2  8  3 33 30.0000000  0  7G24G 5G 9G 2G 7G 4G12
 -20980305.87144 -16348276.49544  21125708.6414   21125710.4964
 -14710771.60144 -11462927.67644  22528801.9064   22528803.1114
 -21319800.37844 -16612819.86844  21147034.6694   21147035.4484
  -9179980.96544  -7153209.38144  23744824.4294   23744824.8454
 -14303757.80644 -11145761.93444  22399731.9794   22399733.1424
 -23921137.91644 -18639834.83344  20664591.7824   20664592.2824
 -23651725.083 4 -18429901.726 4  20638302.621    20638300.300
 95  2  8  3 34  0.0000000  0  7G24G 5G 9G 2G 7G 4G12
 -21048344.12144 -16401293.30444  21112761.3134   21112763.1684
 -14789108.53744 -11523969.44344  22513894.7514   22513895.7114
 -21327885.70944 -16619120.13744  21145496.0504   21145497.0794
  -9099084.31544  -7090173.05344  23760218.4334   23760222.8004
 -14235915.44044 -11092897.75044  22412641.8724   22412643.2304
 -23909484.30744 -18630754.09544  20666809.3984   20666809.9674
 -23643886.287 4 -18423793.579 4  20639794.289    20639791.952
 95  2  8  3 34 30.0000000  0  7G24G 5G 9G 2G 7G 4G12
 -21115875.69844 -16453915.30144  21099910.5044   21099912.6084
 -14867303.76144 -11584900.77944  22499014.7364   22499015.4244
 -21335346.61044 -16624933.83644  21144076.2854   21144077.0304
  -9017912.14744  -7026922.00444  23775665.3624   23775667.2074
 -14167963.78644 -11039948.42644  22425572.6974   22425573.8994
 -23897172.95844 -18621160.83244  20669152.1034   20669152.6104
 -23635438.504 4 -18417210.898 4  20641401.858    20641399.530
 95  2  8  3 35  0.0000000  0  7G24G 5G 9G 2G 7G 4G12
 -21182974.93444 -16506200.41044  21087141.9244   21087144.0834
 -14945437.27144 -11645784.03044  22484146.4594   22484147.1604
 -21342266.32144 -16630325.82744  21142759.5844   21142760.2634
  -8936543.46944  -6963517.86444  23791149.2404   23791150.0514
 -14099972.95744 -10986968.56444  22438510.9864   22438513.0134
 -23884312.31344 -18611139.54444  20671599.4464   20671599.9324
 -23626467.778 4 -18410220.728 4  20643108.953    20643106.620
 95  2  8  3 35 30.0000000  0  7G24G 5G 9G 2G 7G 4G12
 -21249783.36044 -16558258.91844  21074428.7234   21074430.6294
 -15023637.60244 -11706719.35244  22469265.3164   22469266.0994
 -21348761.31444 -16635386.87044  21141523.5394   21141524.3534
  -8855114.40344  -6900066.64844  23806644.6024   23806644.0094
 -14032075.50744 -10934061.46744  22451431.4654   22451432.5814
 -23871059.32044 -18600812.53444  20674121.3954   20674121.9404
 -23617116.188 4 -18402933.783 4  20644888.500    20644886.187
 95  2  8  3 36  0.0000000  0  7G24G 5G 9G 2G 7G 4G12
 -21316051.89944 -16609896.73344  21061818.2344   21061820.1724
 -15101649.35244 -11767507.72944  22454420.3174   22454421.2074
 -21354567.77844 -16639911.39644  21140418.5934   21140419.5394
  -8773367.42944  -6836367.78144  23822200.4724   23822202.0104
 -13964020.81844 -10881031.85344  22464381.7074   22464383.5274
 -23857170.35644 -18589989.95944  20676764.3354   20676764.9614
 -23607132.121 4 -18395153.997 4  20646788.431    20646786.065
 95  2  8  3 36 30.0000000  0  7G24G 5G 9G 2G 7G 4G12
 -21381636.58344 -16661001.67244  21049337.7694   21049340.0104
 -15179341.36044 -11828046.94544  22439635.9364   22439636.9754
 -21359557.16244 -16643799.24044  21139469.1354   21139469.9804
  -8691179.93344  -6772325.58644  23837840.4554   23837843.8594
 -13895671.55444 -10827772.68644  22477388.0404   22477389.5514
 -23842512.61744 -18578568.34044  20679553.5964   20679554.1094
 -23596381.487 4 -18386776.888 4  20648834.200    20648831.832
 95  2  8  3 37  0.0000000  0  7G24G 5G 9G 2G 7G 4G12
 -21446799.54044 -16711777.99644  21036937.6404   21036939.7594
 -15256975.41844 -11888541.00944  22424862.7124   22424864.2254
 -21363997.26844 -16647259.07044  21138624.3114   21138625.1774
  -8608816.75444  -6708146.48944  23853513.3984   23853516.5434
 -13827297.01944 -10774493.83344  22490399.3454   22490401.1924
 -23827350.66244 -18566753.82444  20682438.7914   20682439.2924
 -23585127.426 4 -18378007.497 4  20650975.781    20650973.435
 95  2  8  3 37 30.0000000  0  7G24G 5G 9G 2G 7G 4G12
 -21511685.55244 -16762338.52144  21024590.2554   21024592.2304
 -15334686.26644 -11949094.91244  22410074.8774   22410076.3944
 -21368031.55444 -16650402.68344  21137856.5034   21137857.3864
  -8526419.08144  -6643940.51644  23869193.3594   23869192.3514
 -13759049.71644 -10721314.13544  22503386.3004   22503387.6144
 -23811816.60744 -18554649.36444  20685394.8304   20685395.3884
 -23573507.195 4 -18368952.778 4  20653187.061    20653184.721
 95  2  8  3 38  0.0000000  0  7G24G 5G 9G 2G 7G 4G12
 -21576256.37544 -16812653.43944  21012302.9174   21012304.8134
 -15412437.96944 -12009680.65044  22395279.1814   22395280.4514
 -21371639.66344 -16653214.20844  21137170.0284   21137171.1174
  -8443943.28844  -6579673.71044  23884888.0954   23884891.2414
 -13690884.35644 -10668198.27144  22516357.7464   22516359.8154
 -23795847.44744 -18542205.85944  20688433.6994   20688434.2774
 -23561470.265 4 -18359573.361 4  20655477.618    20655475.271
 95  2  8  3 38 30.0000000  0  7G24G 5G 9G 2G 7G 4G12
 -21640333.88444 -16862583.95644  21000109.4014   21000111.3954
 -15490059.58044 -12070165.01644  22380508.1354   22380508.9674
 -21374653.56644 -16655562.71344  21136596.5784   21136597.6194
  -8361210.73144  -6515206.77844  23900631.4754   23900633.1664
 -13622616.42444 -10615002.48644  22529348.6734   22529350.1764
 -23779257.74944 -18529278.81644  20691590.6324   20691591.2234
 -23548837.302 4 -18349729.502 4  20657881.565    20657879.235
 95  2  8  3 39  0.0000000  0  7G 9G 5G 2G 7G24G 4G12
 -21376731.24044 -16657181.68844  21136201.0904   21136201.5864
 -15567210.56944 -12130282.66544  22365826.8494   22365828.4344
  -8277860.44744  -6450258.57444  23916492.2814   23916493.6404
 -13553901.27044 -10561458.21244  22542424.9064   22542425.6004
 -21703579.61544 -16911866.33444  20988074.0624   20988075.5894
 -23761700.10544 -18515597.53344  20694931.7574   20694931.5964
 -23535264.555 4 -18339153.343 4  20660464.026    20660462.049
 95  2  8  3 39 30.0000000  0  7G 9G 5G 2G 7G24G 4G12
 -21378328.26844 -16658426.14144  21135897.1444   21135898.1144
 -15644369.37244 -12190406.40244  22351143.9664   22351145.2914
  -8194341.80444  -6385179.12644  23932385.5254   23932389.8384
 -13485194.47444 -10507920.45844  22555499.2214   22555500.0224
 -21766456.85544 -16960861.57544  20976108.9724   20976110.7884
 -23743628.82544 -18501516.01344  20698370.6244   20698371.0694
 -23521214.554 4 -18328205.300 4  20663138.025    20663135.668
 95  2  8  3 40  0.0000000  0  7G 9G 5G 2G 7G24G 4G12
 -21379868.64844 -16659626.44944  21135604.0264   21135604.6654
 -15721960.11844 -12250866.72444  22336379.0074   22336380.2474
  -8111080.48844  -6320300.23644  23948229.6754   23948230.5234
 -13416914.07244 -10454714.95344  22568492.8624   22568494.7854
 -21829378.38644 -17009891.33044  20964135.3644   20964137.2764
 -23725469.79444 -18487366.11944  20701826.1134   20701826.6544
 -23507116.851 4 -18317220.085 4  20665820.746    20665818.391
 95  2  8  3 40 30.0000000  0  7G 9G 5G 2G 7G24G 4G12
 -21380721.40544 -16660290.94544  21135441.7674   21135442.6474
 -15799347.69844 -12311168.72844  22321652.6704   22321653.8994
  -8027470.77144  -6255149.86644  23964139.9054   23964140.9424
 -13348447.51144 -10401364.38944  22581521.4764   22581523.1414
 -21891713.83144 -17058464.39344  20952273.3604   20952275.1794
 -23706627.75944 -18472684.01244  20705411.5904   20705412.0774
 -23492361.595 4 -18305722.492 4  20668628.608    20668626.223
 95  2  8  3 41  0.0000000  0  7G 9G 5G 2G 7G24G 4G12
 -21380867.44644 -16660404.75644  21135414.1214   21135415.0014
 -15876521.04544 -12371303.79944  22306967.1784   22306968.1144
  -7943508.37244  -6189724.64044  23980117.3824   23980119.6304
 -13279798.80744 -10347871.90744  22594584.9774   22594586.0164
 -21953451.23444 -17106571.44844  20940525.0484   20940526.9494
 -23687099.25444 -18457466.99544  20709127.8864   20709128.2274
 -23476938.562 4 -18293704.552 4  20671563.535    20671561.131
 95  2  8  3 41 30.0000000  0  7G 9G 5G 2G 7G24G 4G12
 -21380360.39944 -16660009.66644  21135510.5134   21135511.3124
 -15953527.76144 -12431309.02844  22292313.2164   22292314.0044
  -7859269.05744  -6124083.65744  23996147.8584   23996150.7304
 -13211036.66744 -10294291.02344  22607670.0344   22607671.1944
 -22014645.54944 -17154255.32144  20928880.1514   20928882.0924
 -23666937.92644 -18441756.86844  20712964.4344   20712964.8774
 -23460898.818 4 -18281206.060 4  20674615.772    20674613.426
 95  2  8  3 42  0.0000000  0  7G 5G 9G 2G 7G24G 4G12
 -16030319.17344 -12491146.48944  22277700.2234   22277701.2944
 -21379162.73844 -16659076.43344  21135738.3824   21135739.3554
  -7774736.03144  -6058213.76444  24012233.9274   24012236.6494
 -13142127.72144 -10240595.76144  22620782.8674   22620784.0934
 -22075270.35144 -17201495.41544  20917343.6884   20917345.5104
 -23646114.78344 -18425531.03944  20716926.9894   20716927.4154
 -23444206.604 4 -18268199.150 4  20677792.233    20677789.857
 95  2  8  3 42 30.0000000  0  7G 9G 5G 2G 7G24G 4G12
 -21377386.83744 -16657692.62844  21136076.4484   21136077.1244
 -16107019.99444 -12550913.35744  22263104.5664   22263105.6574
  -7690017.66644  -5992199.50044  24028355.0544   24028357.0064
 -13073191.72844 -10186879.39844  22633901.0064   22633902.4234
 -22135453.50744 -17248391.37144  20905891.2494   20905893.2124
 -23624733.12944 -18408870.00744  20720995.7634   20720996.3024
 -23426970.082 4 -18254768.103 4  20681072.260    20681069.873
 95  2  8  3 43  0.0000000  0  7G 9G 5G 2G 7G24G 4G12
 -21374980.55044 -16655817.61244  21136534.4354   21136535.2884
 -16183574.72144 -12610566.38944  22248536.6914   22248537.7654
  -7605034.06944  -5925978.56044  24044527.1114   24044529.9524
 -13004174.98144 -10133100.11744  22647034.7114   22647036.1104
 -22195145.01144 -17294904.22344  20894532.3404   20894534.1934
 -23602712.79244 -18391711.30244  20725185.9204   20725186.4864
 -23409124.159 4 -18240862.198 4  20684468.238    20684465.836
 95  2  8  3 43 30.0000000  0  7G 9G 5G 2G 7G24G 4G12
 -21371993.75644 -16653490.25444  21137102.6804   21137103.7244
 -16260013.41344 -12670128.99944  22233990.8864   22233991.9864
  -7519831.92844  -5859587.31044  24060740.6834   24060743.3004
 -12935120.95944 -10079291.80044  22660175.1004   22660176.0524
 -22254393.88944 -17341072.16744  20883257.5854   20883259.4154
 -23580100.63244 -18374091.43344  20729488.9194   20729489.4264
 -23390716.226 4 -18226518.363 4  20687971.160    20687968.741
 95  2  8  3 44  0.0000000  0  7G 9G 5G 2G 7G24G 4G12
 -21368650.98444 -16650885.51044  21137738.6824   21137739.4454
 -16336549.74544 -12729767.69744  22219426.4984   22219427.2614
  -7434617.34144  -5793186.36044  24076956.3214   24076958.3934
 -12866243.32844 -10025620.92044  22673282.0844   22673283.2154
 -22313411.23544 -17387059.70144  20872026.9314   20872028.6744
 -23557127.71444 -18356190.45644  20733860.4874   20733860.9294
 -23371968.085 4 -18211909.430 4  20691538.637    20691536.404
 95  2  8  3 44 30.0000000  0  7G 9G 5G 2G 7G24G 4G12
 -21364325.31244 -16647514.86844  21138561.9574   21138562.7514
 -16412532.10844 -12788974.73044  22204967.5504   22204968.1704
  -7348740.60644  -5726269.44644  24093298.3804   24093301.6764
 -12796911.40544  -9971596.06044  22686475.5474   22686477.0614
 -22371536.03644 -17432351.74144  20860966.1934   20860967.7284
 -23533159.02444 -18337513.55044  20738421.6034   20738421.9254
 -23352238.117 4 -18196535.436 4  20695293.084    20695290.912
 95  2  8  3 45  0.0000000  0  7G 9G 5G 2G 7G24G 4G12
 -21359794.83344 -16643984.63744  21139424.1234   21139425.1594
 -16488722.29844 -12848343.70344  22190469.0314   22190469.9834
  -7262998.00644  -5659457.07144  24109614.5544   24109615.9384
 -12727911.46444  -9917829.88744  22699605.6304   22699607.7994
 -22429540.84444 -17477550.28544  20849928.1074   20849929.9494
 -23508996.65844 -18318685.73044  20743019.4974   20743019.9174
 -23332311.499 4 -18181008.212 4  20699085.210    20699082.787
 95  2  8  3 45 30.0000000  0  7G 9G 5G 2G 7G24G 4G12
 -21354954.58344 -16640213.02944  21140345.2644   21140346.0614
 -16565019.07844 -12907795.73644  22175950.2214   22175951.3234
  -7177304.01144  -5592682.55744  24125921.6364   24125923.2984
 -12659134.82844  -9864237.70944  22712693.3864   22712694.7794
 -22487314.97544 -17522569.07644  20838934.1104   20838935.8374
 -23484548.15344 -18299634.94544  20747671.9004   20747672.3764
 -23312089.450 4 -18165250.782 4  20702933.360    20702930.932
 95  2  8  3 46  0.0000000  0  7G 9G 5G 2G 7G24G 4G12
 -21349452.24144 -16635925.50344  21141392.2864   21141393.2294
 -16641075.12244 -12967060.17844  22161477.2234   22161478.4874
  -7091298.06844  -5525664.96344  24142288.0044   24142291.1944
 -12590213.70044  -9810532.94044  22725808.7454   22725810.1424
 -22544493.05144 -17567123.41044  20828053.5294   20828055.4184
 -23459458.56644 -18280084.61544  20752446.2664   20752446.7454
 -23291215.577 4 -18148985.437 4  20706905.538    20706903.141
 95  2  8  3 46 30.0000000  0  7G 9G 5G 2G 7G24G 4G12
 -21343214.63244 -16631065.04544  21142579.2994   21142580.1364
 -16716824.22944 -13026085.45044  22147062.6794   22147063.8374
  -7004919.94344  -5458357.33344  24158725.1634   24158728.3174
 -12521076.95244  -9756660.15844  22738964.9654   22738966.1384
 -22601008.53844 -17611161.44344  20817298.9584   20817300.8004
 -23433648.22144 -18259972.65444  20757357.8344   20757358.2894
 -23269619.058 4 -18132156.993 4  20711015.249    20711012.847
 95  2  8  3 47  0.0000000  0  7G 9G 5G 2G 7G24G 4G12
 -21336342.25944 -16625709.96144  21143887.0534   21143887.9734
 -16792388.06644 -13084966.35944  22132683.3284   22132684.5184
  -6918276.06444  -5390842.63744  24175213.0324   24175216.3254
 -12451828.98444  -9702700.71644  22752142.3374   22752144.0684
 -22656980.57544 -17654776.00844  20806647.8434   20806649.8384
 -23407228.55344 -18239385.89644  20762385.2474   20762385.7354
 -23247410.462 4 -18114851.604 4  20715241.408    20715238.993
 95  2  8  3 47 30.0000000  0  7G 5G 9G 2G 7G24G 4G12
 -16867751.67044 -13143691.24044  22118342.1584   22118343.0934
 -21328823.90344 -16619851.51644  21145317.6034   21145318.6214
  -6831336.51344  -5323097.54644  24191757.1484   24191758.9824
 -12382444.95344  -9648635.24244  22765345.7224   22765347.4434
 -22712377.63644 -17697942.53744  20796106.0474   20796107.8114
 -23380181.30044 -18218310.11344  20767532.1464   20767532.5824
 -23224563.725 4 -18097048.963 4  20719589.001    20719586.582
 95  2  8  3 48  0.0000000  0  7G 9G 5G 2G 7G24G 4G12
 -21320739.80944 -16613552.23544  21146856.1094   21146857.0644
 -16942995.09944 -13202322.47544  22104023.7974   22104024.6384
  -6744171.79344  -5255177.00244  24208344.1774   24208346.1054
 -12312998.87944  -9594521.43344  22778560.9774   22778562.7314
 -22767280.33444 -17740723.84944  20785658.6624   20785660.4904
 -23352593.46944 -18196813.10244  20772781.9904   20772782.5014
 -23201151.491 4 -18078805.676 4  20724044.199    20724041.757
 95  2  8  3 48 30.0000000  0  7G 5G 9G 7G 2G24G 4G12
 -17018187.44044 -13260913.91344  22089715.1254   22089716.2784
 -21312152.70044 -16606860.99344  21148490.1824   21148491.0464
 -12243573.71744  -9540423.91144  22791772.1434   22791774.1154
  -6656847.37344  -5187132.01344  24224961.2934   24224964.0714
 -22821766.37044 -17783180.48844  20775290.2124   20775292.0624
 -23324537.32444 -18174951.16944  20778120.9104   20778121.5044
 -23177244.677 4 -18060177.001 4  20728593.534    20728591.076
 95  2  8  3 49  0.0000000  0  7G 5G 9G 7G 2G24G 4G12
 -17093313.88544 -13319453.99944  22075419.0164   22075420.2074
 -21303045.00844 -16599764.10344  21150223.2784   21150224.1504
 -12174154.88244  -9486331.33044  22804982.1354   22804983.6624
  -6569342.11244  -5118946.13344  24241613.0654   24241615.3474
 -22875809.85844 -17825292.28644  20765006.0924   20765008.0644
 -23296005.10944 -18152718.27344  20783550.4324   20783550.8744
 -23152825.606 4 -18041149.167 4  20733240.330    20733237.883
 95  2  8  3 49 30.0000000  0  7G 5G 9G 7G 2G24G 4G12
 -17168375.69944 -13377943.71544  22061135.2764   22061136.4774
 -21293413.40444 -16592258.96944  21152056.0374   21152056.9934
 -12104728.89944  -9432233.16844  22818193.5254   22818195.4744
  -6481666.22044  -5050627.27344  24258297.3034   24258300.1134
 -22929410.35644 -17867058.89744  20754806.1754   20754808.0044
 -23266984.82044 -18130105.06044  20789072.8974   20789073.2594
 -23127892.406 4 -18021720.711 4  20737984.972    20737982.521
 95  2  8  3 50  0.0000000  0  7G 5G 9G 7G 2G24G 4G12
 -17243281.27144 -13436311.68944  22046881.1914   22046882.2464
 -21283152.57844 -16584263.53144  21154008.7934   21154009.8724
 -12035204.58444  -9378058.37144  22831423.5454   22831425.1644
  -6393727.84044  -4982103.88244  24275031.3564   24275035.2224
 -22982482.27244 -17908413.62944  20744706.9924   20744708.7134
 -23237358.96744 -18107019.97744  20794710.4784   20794710.9384
 -23102357.191 4 -18001823.152 4  20742844.191    20742841.744
 95  2  8  3 50 30.0000000  0  7G 5G 9G 7G 2G24G 4G12
 -17318095.75144 -13494608.68244  22032644.4344   22032645.5684
 -21272323.90544 -16575825.61744  21156069.4074   21156070.3204
 -11965658.66144  -9323866.75944  22844657.6004   22844658.4464
  -6305598.88144  -4913431.98544  24291801.7664   24291803.3354
 -23035074.54544 -17949394.60844  20734698.9824   20734700.7094
 -23207186.31844 -18083508.82044  20800452.1584   20800452.6864
 -23076288.857 4 -17981510.175 4  20747804.823    20747802.397
 95  2  8  3 51  0.0000000  0  8G 5G 9G 7G 2G20G24G 4G12
 -17392792.28144 -13552813.76444  22018430.2464   22018431.4404
 -21260922.48644 -16566941.40444  21158239.1024   21158240.0924
 -11896071.79444  -9269643.22944  22857899.4104   22857900.7554
  -6217278.29644  -4844610.77244  24308608.6834   24308610.8474
        -0.09754                  25189200.0854
 -23087160.40344 -17989980.98444  20724787.3604   20724789.2844
 -23176449.52544 -18059558.07344  20806301.2424   20806301.7584
 -23049675.667 4 -17960772.637 4  20752869.143    20752866.732
 95  2  8  3 51 30.0000000  0  8G 5G 9G 7G 2G20G24G 4G12
 -17467282.65644 -13610858.20944  22004255.0494   22004256.0304
 -21248877.50944 -16557555.71744  21160531.1074   21160532.0844
 -11826358.34644  -9215321.07544  22871165.6684   22871167.5704
  -6128687.09244  -4775578.67744  24325466.9574   24325471.7404
    -96823.67544                  25170775.0894
 -23138665.96544 -18030115.17644  20714986.0894   20714988.0224
 -23145067.52844 -18035104.56844  20812272.9824   20812273.4974
 -23022442.164 4 -17939551.734 4  20758051.527    20758049.075
 95  2  8  3 52  0.0000000  0  8G 5G 9G 7G 2G20G24G 4G12
 -17541511.48844 -13668698.84944  21990129.8724   21990130.9774
 -21236148.47144 -16547636.99844  21162953.4244   21162954.2834
 -11756484.71844  -9160874.10544  22884462.1164   22884463.7814
  -6039771.52344  -4706293.85844  24342387.0004   24342390.9034
   -193593.09144                  25152360.4474
 -23189539.42044 -18069756.81944  20705305.1544   20705307.0534
 -23113011.75244 -18010126.03844  20818372.9824   20818373.4294
 -22994542.004 4 -17917811.361 4  20763360.797    20763358.312
 95  2  8  3 52 30.0000000  0  8G 5G 9G 7G 2G20G24G 4G12
 -17615754.94744 -13726550.89444  21976001.7624   21976002.3294
 -21223026.96544 -16537412.45644  21165450.3624   21165451.2314
 -11686730.22444  -9106519.95444  22897736.0754   22897737.3634
  -5950814.80344  -4636976.92144  24359315.0194   24359318.2324
   -290585.81144   -226430.98444  25133903.2514
 -23240068.48644 -18109130.10844  20695689.7424   20695691.4754
 -23080595.05144 -17984866.27444  20824541.6194   20824541.9544
 -22966257.096 4 -17895771.184 4  20768743.250    20768740.784
 95  2  8  3 53  0.0000000  0  8G 5G 9G 7G 2G20G24G 4G12
 -17689851.32344 -13784288.32444  21961901.6894   21961902.5134
 -21209359.09744 -16526762.17644  21168051.1914   21168052.0584
 -11616936.05544  -9052134.88144  22911017.2594   22911018.5654
  -5861662.06744  -4567507.29844  24376280.0254   24376280.6764
   -387639.22044                  25115434.5134
 -23290121.86444 -18148132.72944  20686164.9294   20686166.7934
 -23047668.77844 -17959209.43644  20830807.2644   20830807.7054
 -22937433.197 4 -17873311.014 4  20774228.260    20774225.765
 95  2  8  3 53 30.0000000  0  8G 5G 9G 7G 2G20G24G 4G12
 -17763600.85444 -13841755.48644  21947867.6044   21947868.2484
 -21194929.92344 -16515518.67844  21170796.9914   21170798.0054
 -11546902.37044  -8997563.19844  22924344.2734   22924345.2724
  -5772107.31844  -4497724.40944  24393321.8064   24393325.1094
   -484537.26044                  25096995.3284
 -23339502.46844 -18186611.11044  20676768.1194   20676770.0214
 -23014039.11344 -17933004.50144  20837206.7654   20837207.1264
 -22907860.650 4 -17850267.483 4  20779855.752    20779853.219
 95  2  8  3 54  0.0000000  0  8G 5G 9G 7G 2G20G24G 4G12
 -17837426.00744 -13899281.57444  21933819.2434   21933820.1004
 -21180154.19144 -16504005.13444  21173608.7164   21173609.7864
 -11477064.83144  -8943144.35644  22937633.8474   22937635.4734
  -5682575.82144  -4427959.59644  24410359.1494   24410360.1044
   -581704.51844                  25078505.0874
 -23388633.41344 -18224894.95644  20667418.8054   20667420.7594
 -22980126.89644 -17906579.39544  20843660.0684   20843660.6074
 -22877960.096 4 -17826968.362 4  20785545.644    20785543.124
 95  2  8  3 54 30.0000000  0  8G 5G 9G 7G 2G20G24G 4G12
 -17911139.12344 -13956720.36244  21919792.0484   21919793.1124
 -21164842.34844 -16492073.84244  21176522.4834   21176523.5574
 -11407245.48644  -8888739.67144  22950920.1504   22950922.8764
  -5592887.47844  -4358072.56544  24427426.4104   24427429.7444
   -678963.36344                  25059997.2354
 -23437328.74744 -18262839.36044  20658152.4054   20658154.1414
 -22945729.72744 -17879776.40944  20850205.6654   20850206.1664
 -22847547.983 4 -17803270.624 4  20791332.881    20791330.376
 95  2  8  3 55  0.0000000  0  8G 5G 9G 7G 2G20G24G 4G12
 -17984776.63244 -14014100.23644  21905779.2644   21905780.1464
 -21149032.24144 -16479754.29144  21179530.9394   21179531.8814
 -11337483.27744  -8834379.52544  22964195.3054   22964197.4014
  -5503084.32344  -4288096.13144  24444515.3024   24444516.5024
   -776352.66444                  25041464.8904
 -23485609.86244 -18300460.99944  20648964.8674   20648966.6864
 -22910864.04044 -17852608.34044  20856840.3764   20856840.7924
 -22816658.539 4 -17779200.940 4  20797210.947    20797208.461
 95  2  8  3 55 30.0000000  0  8G 5G 9G 7G 2G20G24G 4G12
 -18058205.85144 -14071317.80744  21891806.2524   21891807.1404
 -21132591.65044 -16466943.45444  21182659.5374   21182660.5964
 -11267649.16044  -8779963.32844  22977484.4094   22977485.1404
  -5413032.62644  -4217926.03744  24461651.6484   24461654.7224
   -873746.25344                  25022931.3944
 -23533324.75944 -18337641.43044  20639884.9994   20639886.7244
 -22875387.39644 -17824964.20144  20863591.4874   20863591.9034
 -22785154.469 4 -17754652.326 4  20803205.982    20803203.497
 95  2  8  3 56  0.0000000  0  8G 5G 9G 7G 2G20G24G 4G12
 -18131410.05544 -14128360.04144  21877875.8814   21877876.6504
 -21115509.71744 -16453632.87044  21185910.1874   21185911.1844
 -11197723.64644  -8725475.92144  22990790.6954   22990792.2914
  -5322708.88444  -4147543.89144  24478839.5934   24478844.9044
   -971127.02844   -756722.55544  25004400.3594
 -23580442.22244 -18374356.32744  20630918.8464   20630920.6834
 -22839281.92144 -17796830.06344  20870461.9944   20870462.4524
 -22753019.226 4 -17729611.889 4  20809321.132    20809318.661
 95  2  8  3 56 30.0000000  0  8G 5G 9G 7G 2G20G24G 4G12
 -18204407.24944 -14185240.97144  21863984.9774   21863985.9964
 -21097807.27344 -16439838.77144  21189278.8114   21189279.8144
 -11127715.70244  -8670924.29744  23004112.8004   23004115.1734
  -5232131.92544  -4076964.46544  24496075.7934   24496081.0304
  -1068510.15844                  24985868.6904
 -23626973.07544 -18410614.12444  20622064.3044   20622066.0704
 -22802578.85544 -17768230.27344  20877446.4194   20877446.7644
 -22720270.403 4 -17704093.338 4  20815553.043    20815550.553
 95  2  8  3 57  0.0000000  0  8G 5G 9G 7G 2G20G24G 4G12
 -18277265.25544 -14242013.43844  21850120.5174   21850121.6434
 -21079556.01744 -16425617.02844  21192752.0194   21192753.0084
 -11057692.00144  -8616360.37944  23017438.1214   23017439.9304
  -5141369.17644  -4006240.26644  24513347.5114   24513351.0704
  -1165966.26144   -908545.25444  24967323.6284
 -23672988.92344 -18446470.61744  20613307.7284   20613309.6524
 -22765372.45144 -17739238.26944  20884526.5084   20884527.0434
 -22686978.363 4 -17678151.503 4  20821888.340    20821885.843
 95  2  8  3 57 30.0000000  0  8G 5G 9G 7G 2G20G24G 4G12
 -18350039.60344 -14298720.72444  21836272.0684   21836273.2084
 -21060801.19344 -16411002.89544  21196320.9264   21196321.9484
 -10987704.01744  -8561824.29744  23030756.2804   23030757.9014
  -5050468.40544  -3935408.52744  24530645.4874   24530649.0454
  -1263546.38544   -984581.69844  24948754.6334
 -23718548.47944 -18481971.56144  20604638.0194   20604639.8634
 -22727735.38944 -17709910.68744  20891688.5584   20891688.9844
 -22653202.082 4 -17651832.336 4  20828315.773    20828313.273
 95  2  8  3 58  0.0000000  0  8G 5G 9G 7G 2G20G24G 4G12
 -18422631.45444 -14355285.79844  21822458.3444   21822459.3604
 -21041454.84844 -16395927.83844  21200002.3304   21200003.4344
 -10917656.68044  -8507241.95344  23044085.8684   23044086.5844
  -4959342.37444  -3864401.22744  24547986.0344   24547985.4644
  -1361160.93044  -1060644.92744  24930179.2474
 -23763571.78844 -18517054.65144  20596070.2934   20596072.1234
 -22689585.95144 -17680183.85244  20898948.1974   20898948.7094
 -22618856.640 4 -17625069.667 4  20834851.498    20834849.011
 95  2  8  3 58 30.0000000  0  8G 5G 9G 7G 2G24G 4G12G20
 -18495033.68144 -14411703.11944  21808680.6124   21808681.6254
 -21021510.96644 -16380387.16744  21203797.5984   21203798.6924
 -10847548.05644  -8452611.86244  23057427.1714   23057429.3484
  -4867989.62544  -3793217.32944  24565370.0094   24565373.2454
 -23808077.39444 -18551734.33244  20587601.1774   20587603.1264
 -22650916.39444 -17650051.73044  20906306.8404   20906307.3034
 -22583941.718 4 -17597863.246 4  20841495.594    20841493.093
  -1458809.59444                  24911596.9604
 95  2  8  3 59  0.0000000  0  8G 5G 9G 7G 2G24G 4G12G20
 -18567204.35344 -14467940.00244  21794947.0994   21794947.9624
 -21000946.96744 -16364363.28344  21207710.7814   21207711.7934
 -10777343.12544  -8397906.73144  23070786.6824   23070788.4944
  -4776381.50844  -3721834.37544  24582802.2984   24582802.2154
 -23852042.60144 -18585992.92644  20579234.8324   20579236.6854
 -22611683.14244 -17619480.36344  20913772.6544   20913773.1354
 -22548428.264 4 -17570190.437 4  20848253.609    20848251.070
  -1556453.08644  -1212820.48444  24893016.3284
 95  2  8  3 59 30.0000000  0  8G 5G 9G 7G 2G24G 4G12G20
 -18639247.97044 -14524077.88744  21781237.6054   21781238.3634
 -20979886.81844 -16347952.79744  21211718.4054   21211719.2904
 -10707142.45444  -8343204.90744  23084145.4714   23084146.9954
  -4684635.24744  -3650343.78944  24600261.1264   24600263.3214
 -23895569.67344 -18619910.11744  20570951.9564   20570953.6184
 -22571978.73244 -17588541.86144  20921328.1324   20921328.6864
 -22512423.575 4 -17542134.849 4  20855105.048    20855102.549
  -1654189.16044                  24874417.6854
 95  2  8  4  0  0.0000000  0  8G 5G 9G 7G 2G24G 4G12G20
 -18711132.99544 -14580092.18844  21767558.3214   21767559.2704
 -20958330.73144 -16331155.86044  21215820.4314   21215821.5834
 -10636926.51644  -8288491.21044  23097507.1344   23097508.1554
  -4592727.99744  -3578727.80144  24617750.6204   24617751.1674
 -23938637.85944 -18653469.73444  20562756.4164   20562758.1674
 -22531774.56544 -17557213.93744  20928978.6384   20928979.1954
 -22475900.135 4 -17513675.039 4  20862055.235    20862052.759
  -1751980.40044  -1365179.41044  24855808.7944   24855812.1284
 95  2  8  4  0 30.0000000  0  8G 5G 9G 7G 2G24G 4G12G20
 -18782743.01644 -14635892.20544  21753931.2454   21753932.1574
 -20936164.65444 -16313883.60544  21220038.5334   21220039.7454
 -10566573.59344  -8233670.75144  23110894.9834   23110896.8234
  -4500534.14944  -3506888.38944  24635294.3684
 -23981106.47344 -18686562.14944  20554674.8204   20554676.7904
 -22490949.26644 -17525402.01544  20936747.4374   20936747.8894
 -22438735.710 4 -17484715.758 4  20869127.418    20869124.916
  -1849690.48744  -1441317.06444  24837215.0014
 95  2  8  4  1  0.0000000  0  8G 5G 9G 7G 2G24G 4G12G20
 -18854215.19344 -14691584.80744  21740330.5674   21740331.6444
 -20913532.76544 -16296248.38344  21224345.1334   21224346.3384
 -10496218.06744  -8178848.27544  23124282.9534   23124285.8514
  -4408205.10944  -3434943.69744  24652864.0494   24652866.9014
 -24023089.06844 -18719275.84544  20546685.8554   20546687.6094
 -22449643.47544 -17493215.68444  20944607.6444   20944608.0884
 -22401066.082 4 -17455362.816 4  20876295.724    20876293.225
  -1947454.92544  -1517497.14244  24818611.1144   24818611.7614
 95  2  8  4  1 30.0000000  0  8G 5G 9G 7G 2G24G 4G12G20
 -18925641.72944 -14747241.84244  21726738.6244   21726739.6814
 -20890501.10744 -16278301.65244  21228727.9364   21228729.0024
 -10425944.42144  -8124089.60544  23137655.5754   23137657.1164
  -4315807.62044                  24670446.5894
 -24064653.45744 -18751663.66644  20538776.3334   20538778.1984
 -22407938.52644 -17460718.32144  20952543.8364   20952544.4104
 -22362966.206 4 -17425674.614 4  20883545.904    20883543.367
  -2045362.84444  -1593789.01044  24799979.5994
 95  2  8  4  2  0.0000000  0  8G 5G 9G 7G24G 4G 2G12G20
 -18996936.65344 -14802796.32444  21713171.5564   21713172.5194
 -20866954.68244 -16259953.80544  21233208.7114   21233209.6874
 -10355670.49644  -8069330.70044  23151028.3684   23151031.1004
 -24105709.71044 -18783655.53744  20530963.5684   20530965.5544
 -22365756.46144 -17427849.17644  20960570.8504   20960571.4334
  -4223247.02244                  24688060.4004
 -22324348.941 4 -17395583.251 4  20890894.525    20890892.007
  -2143339.03944  -1670134.03644  24781335.2074   24781333.4934
 95  2  8  4  2 30.0000000  0  8G 5G 9G 7G24G 4G 2G12G20
 -19067979.90644 -14858154.69644  21699652.4354   21699653.3774
 -20842745.68344 -16241089.66144  21237815.5764   21237816.7954
 -10285273.77844  -8014476.14944  23164424.3584   23164425.9814
 -24146134.46044 -18815155.33144  20523270.9894   20523272.9884
 -22322975.78044 -17394513.58044  20968711.6054   20968712.2504
  -4130407.50544  -3218478.09844  24705726.9604
 -22285094.683 4 -17364995.529 4  20898364.357    20898361.843
  -2241279.67144  -1746451.39944  24762697.7134
 95  2  8  4  3  0.0000000  0  8G 5G 9G 7G24G 4G 2G12G20
 -19138777.02844 -14913321.28244  21686180.2164   21686181.3494
 -20817862.57644 -16221700.24444  21242550.6984   21242551.6904
 -10214766.76944  -7959535.60944  23177841.3474   23177842.8174
 -24185954.80644 -18846184.15944  20515693.4164   20515695.2444
 -22279614.67744 -17360725.70644  20976963.1154   20976963.6244
  -4037293.09744                  24723446.1974
 -22245210.184 4 -17333916.713 4  20905954.132    20905951.646
  -2339194.19144  -1822748.41444  24744065.4134
 95  2  8  4  3 30.0000000  0  8G 4G24G 5G 9G 2G12G 7G20
 -22235976.48744 -17326721.92144  20985267.2304   20985267.7194
 -24225469.40444 -18876974.74444  20508174.0584   20508176.0704
 -19209611.36444 -14968516.85944  21672700.9074   21672701.9274
 -20792595.21144 -16202011.40144  21247358.8594   21247359.9224
  -3944181.27644  -3073366.79144  24741164.9104
 -22204988.344 4 -17302575.032 4  20913608.138    20913605.625
 -10144446.67544  -7904740.74444  23191222.8474   23191224.7804
  -2437364.23644  -1899244.53644  24725384.2374
 95  2  8  4  4  0.0000000  0  8G 4G24G 5G 9G 2G12G 7G20
 -22191817.80844 -17292312.55944  20993670.2354   20993670.7274
 -24264433.51644 -18907336.37744  20500759.4404   20500761.2854
 -19280212.02444 -15023530.35944  21659265.9994   21659267.1184
 -20766701.03544 -16181834.13544  21252286.4534   21252287.3674
  -3850840.08644  -3000633.34244  24758927.2164
 -22164180.234 4 -17270776.519 4  20921373.669    20921371.150
 -10074060.45644  -7849894.34644  23204616.8974   23204617.5174
  -2535518.13344  -1975728.06544  24706706.1664
 95  2  8  4  4 30.0000000  0  8G 4G24G 5G 9G 2G12G 7G20
 -22147133.11044 -17257493.31344  21002173.4904   21002173.9614
 -24302846.73244 -18937268.74144  20493449.6204   20493451.5884
 -19350566.42244 -15078351.96244  21645878.0464   21645879.1114
 -20740187.90044 -16161174.56344  21257331.8994   21257333.0024
  -3757264.81644                  24776734.0934
 -22122776.115 4 -17238513.583 4  20929252.643    20929250.090
 -10003597.05044  -7794987.83344  23218025.6104   23218026.3414
  -2633631.54344  -2052180.03444  24688036.0884   24688039.2384
 95  2  8  4  5  0.0000000  0  7G 4G 5G 7G24G 2G12G20
 -22101977.57944 -17222307.18544  21010766.2814   21010766.7344
 -19420719.12744 -15133016.40244  21632528.4174   21632529.4894
  -9933114.59044  -7740066.40644  23231438.1714   23231439.2214
 -24340757.12144 -18966809.29244  20486235.4644   20486237.5524
  -3663511.49344                  24794574.4274
 -22080828.847 4 -17205827.413 4  20937234.921    20937232.399
  -2731754.80844  -2128639.68744  24669363.5034   24669365.3984
 95  2  8  4  5 30.0000000  0  7G 4G 5G 7G24G 2G12G20
 -22056374.57044 -17186772.37144  21019444.2614   21019444.8204
 -19490706.37644 -15187551.91544  21619210.2884   21619211.3364
  -9862651.31044  -7685159.99044  23244846.7944   23244849.1274
 -24378194.02444 -18995980.89344  20479111.4894   20479113.2354
  -3569642.10544                  24812437.0854
 -22038380.311 4 -17172750.644 4  20945312.600    20945310.117
  -2829935.35044  -2205143.95344  24650680.3974   24650681.4434
 95  2  8  4  6  0.0000000  0  8G 4G 5G 7G24G 6G 2G12G20
 -22010198.73944 -17150791.20244  21028231.1554   21028231.6744
 -19560417.64244 -15241872.37944  21605944.5464   21605945.5374
  -9792090.65044  -7630177.67244  23258274.2034   23258275.5554
 -24415032.33944 -19024686.06044  20472101.3474   20472103.2364
        -0.89954        -0.01654  25470017.1674
  -3475539.02644                  24830344.7544
 -21995313.759 4 -17139192.304 4  20953507.888    20953505.385
  -2928069.18744  -2281611.80244  24632006.0224   24632012.0154
 95  2  8  4  6 30.0000000  0  8G 4G 5G 7G24G 6G 2G12G20
 -21963597.82944 -17114478.80444  21037099.1604   21037099.6394
 -19630020.25144 -15296108.17844  21592699.6584   21592700.6364
  -9721596.44444  -7575247.11444  23271688.5764   23271689.7544
 -24451418.29844 -19053038.74544  20465177.3434   20465178.9894
    -75145.39744                  25455717.4814
  -3381352.38444                  24848267.5584
 -21951788.993 4 -17105276.914 4  20961790.416    20961787.896
  -3026331.05944  -2358179.46144  24613307.1154   24613309.5344
 95  2  8  4  7  0.0000000  0  8G 4G 5G 7G24G 6G 2G12G20
 -21916546.78444 -17077815.65244  21046052.7424   21046053.1894
 -19699502.46844 -15350250.16244  21579477.8344   21579478.8254
  -9651156.35144  -7520358.76544  23285092.7794   23285093.5424
 -24487336.51044 -19081026.95044  20458342.2944   20458344.1834
   -150280.61744                  25441419.7844
  -3287072.08844                  24866208.4174
 -21907797.763 4 -17070998.046 4  20970161.672    20970159.162
  -3124717.59344  -2434844.24444  24594584.7324   24594584.9644
 95  2  8  4  7 30.0000000  0  8G 4G 5G 7G24G 6G 2G12G20
 -21868910.78444 -17040696.69144  21055117.5064   21055118.0314
 -19768727.98844 -15404192.12544  21566304.5574   21566305.6774
  -9580634.19344  -7465406.42944  23298512.9574   23298513.8844
 -24522649.94044 -19108543.89744  20451622.4244   20451624.1914
   -225294.08244   -175553.80344  25427145.6014
  -3192549.66144                  24884195.7984
 -21863205.225 4 -17036250.625 4  20978647.373    20978644.834
  -3223082.18044  -2511491.95044  24575866.8804   24575868.8174
 95  2  8  4  8  0.0000000  0  8G24G 4G 5G 6G 2G12G 7G20
 -24557498.04144 -19135698.25344  20444991.1044   20444992.8174
 -21820845.99644 -17003243.60944  21064263.7784   21064264.4494
 -19837825.77244 -15458034.55144  21553155.7294   21553156.7574
   -300327.05444   -234020.99644  25412867.1594   25412866.5784
  -3097898.11744                  24902207.2884
 -21818148.515 4 -17001141.513 4  20987221.384    20987218.875
  -9510164.60044  -7410495.05644  23311922.8634   23311925.5774
  -3321552.49744  -2588221.99844  24557128.2444   24557131.0764
 95  2  8  4  8 30.0000000  0  8G 4G24G 5G 6G 2G12G 7G20
 -21772250.07744 -16965376.65944  21073511.3304   21073511.8524
 -24591785.54344 -19162415.77644  20438466.3794   20438468.1054
 -19906677.12044 -15511684.95444  21540053.7294   21540054.6424
   -375263.48544                  25398606.7914
  -3003019.94144                  24920262.1734
 -21772519.926 4 -16965586.781 4  20995904.221    20995901.738
  -9439627.22044  -7355530.89444  23325345.5904   23325347.0644
  -3419998.42244  -2664933.07144  24538394.9754
 95  2  8  4  9  0.0000000  0  8G 4G24G 5G 6G 2G12G 7G20
 -21723185.28644 -16927144.35444  21082848.1234   21082848.6534
 -24625552.40244 -19188727.60644  20432040.7894   20432042.4824
 -19975320.03944 -15565172.94544  21526991.3664   21526992.4374
   -450155.66644                  25384355.5904
  -2907949.40844                  24938352.8334
 -21726359.629 4 -16929617.731 4  21004688.249    21004685.757
  -9369059.56444  -7300543.12344  23338774.2804   23338776.3744
  -3518445.97044  -2741645.40444  24519660.8644   24519662.5454
 95  2  8  4  9 30.0000000  0  8G24G 4G 5G 6G 2G12G 7G20
 -24658536.82044 -19214429.73944  20425764.0004   20425765.7264
 -21673418.79044 -16888365.26544  21092318.1414   21092318.7564
 -20043499.41844 -15618299.73044  21514017.2874   21514018.5214
   -524754.56044                  25370159.5284
  -2812435.00844                  24956528.9074
 -21679417.586 4 -16893039.526 4  21013621.029    21013618.489
  -9298217.32644  -7245341.37144  23352255.1654   23352258.0064
  -3616636.18244  -2818157.21144  24500975.9054   24500977.6364
 95  2  8  4 10  0.0000000  0  7G24G 4G 5G 6G12G 7G20
 -24690968.86344 -19239701.45144  20419592.3674   20419594.0994
 -21623188.02944 -16849224.41244  21101876.7644   21101877.5414
 -20111451.15644 -15671249.13444  21501086.5594   21501087.8544
   -599272.56644                  25355979.3604
 -21631926.802 4 -16856033.734 4  21022658.240    21022655.724
  -9227315.31644  -7190093.08644  23365747.3604   23365748.4144
  -3714805.89244  -2894653.05644  24482294.9534   24482294.3274
 95  2  8  4 10 30.0000000  0  7G24G 4G 5G 6G12G 7G20
 -24723007.25144 -19264666.42044  20413495.6834   20413497.4164
 -21572651.95244 -16809845.65544  21111493.3804   21111494.0134
 -20179351.18644 -15724158.24644  21488165.4884   21488166.5724
   -673867.12944   -525091.07544  25341784.6584   25341787.0424
 -21584053.609 4 -16818729.960 4  21031768.208    21031765.700
  -9156511.74744  -7134921.48044  23379220.9514   23379222.4864
  -3813127.43744  -2971267.26444  24463584.5114   24463585.6554
 95  2  8  4 11  0.0000000  0  8G24G 4G 5G 6G16G12G 7G20
 -24754489.73644 -19289198.21644  20407504.8024   20407506.5304
 -21521648.98944 -16770103.08444  21121199.0314   21121199.5944
 -20247042.63944 -15776904.83244  21475284.3444   21475285.4854
   -748384.26544                  25327604.2194
         0.05954         0.70354  25225287.0734
 -21535643.401 4 -16781007.734 4  21040980.384    21040977.865
  -9085663.88044  -7079715.34444  23392702.6654   23392705.6554
  -3911470.31044  -3047898.00344  24444870.6894   24444873.6974
 95  2  8  4 11 30.0000000  0  8G24G 4G 5G 6G16G12G 7G20
 -24785380.96644 -19313269.29544  20401626.3524   20401628.2064
 -21470119.79944 -16729950.46644  21131004.8184   21131005.5714
 -20314468.45344 -15829444.42244  21462453.5864   21462454.5714
   -822762.44744   -641113.53244  25313450.6014
    -87819.01544                  25208575.9364
 -21486649.412 4 -16742830.612 4  21050303.651    21050301.120
  -9014723.66444  -7024437.27144  23406201.9914   23406203.2634
  -4009799.50144  -3124518.02544  24426159.1554   24426158.9724
 95  2  8  4 12  0.0000000  0  8G24G 4G 5G 6G16G12G 7G20
 -24815736.43744 -19336922.89944  20395849.9104   20395851.5384
 -21418095.90844 -16689412.37144  21140904.6834   21140905.2504
 -20381667.20344 -15881807.08044  21449666.0644   21449667.1644
   -897024.62944   -698980.11844  25299318.7174
   -175827.76944                  25191828.5154
 -21437109.973 4 -16704228.464 4  21059730.701    21059728.140
  -8943728.81644  -6969116.62944  23419712.0084   23419714.2644
  -4108152.91444  -3201157.06844  24407443.0014   24407443.4674
 95  2  8  4 12 30.0000000  0  8G24G 4G 5G 6G16G12G 7G20
 -24845703.62144 -19360273.94344  20390147.3014   20390149.0184
 -21365710.92044 -16648592.89744  21150873.1284   21150873.6974
 -20448765.66044 -15934091.59444  21436897.6904   21436898.7324
   -971320.56144   -756873.02444  25285180.9034
   -264155.12644                  25175020.0774
 -21387161.308 4 -16665307.441 4  21069235.607    21069233.088
  -8872842.00244  -6913880.15444  23433201.5404   23433202.6754
  -4206659.68844  -3277915.55644  24388697.7834   24388700.9974
 95  2  8  4 13  0.0000000  0  8G24G 4G 5G 6G16G12G 7G20
 -24875089.91844 -19383172.34544  20384555.2104   20384556.9084
 -21312770.21444 -16607340.40044  21160947.2774   21160947.9204
 -20515557.81044 -15986137.42044  21424187.4834   21424188.5464
  -1045462.24644   -814645.79144  25271072.2924
   -352599.18244                  25158189.7604
 -21336610.553 4 -16625917.257 4  21078855.112    21078852.585
  -8801895.32744  -6858597.04044  23446702.0724   23446704.7644
  -4305112.55044  -3354632.03644  24369962.8754   24369967.0224
 95  2  8  4 13 30.0000000  0  8G24G 4G 5G 6G16G12G 7G20
 -24903983.27244 -19405686.63844  20379057.0914   20379058.7794
 -21259379.76644 -16565737.45544  21171107.2024   21171107.8304
 -20582133.40144 -16038014.50244  21411518.6354   21411519.5634
  -1119544.11644                  25256975.0674
   -441226.90544                  25141324.8044
 -21285551.613 4 -16586131.084 4  21088571.322    21088568.804
  -8730970.39244  -6803330.86244  23460198.6864   23460200.9214
  -4403571.22244  -3431353.04644  24351226.8714   24351228.4674
 95  2  8  4 14  0.0000000  0  8G24G 4G 5G 6G16G12G 7G20
 -24932384.47044 -19427817.43444  20373652.4304   20373654.1094
 -21205561.70844 -16523801.30644  21181348.6224   21181349.1984
 -20648515.48144 -16089740.79744  21398886.4294   21398887.4634
  -1193604.22044   -930081.13244  25242882.0244
   -530029.67944   -413010.35444  25124425.9584
 -21234000.473 4 -16545961.382 4  21098381.196    21098378.691
  -8660082.41144  -6748093.49944  23473688.1614   23473690.4014
  -4502031.50544  -3508075.29944  24332490.3324   24332492.3804
 95  2  8  4 14 30.0000000  0  8G24G 4G 5G 6G16G12G 7G20
 -24960173.00244 -19449470.82144  20368364.4274   20368366.0504
 -21151222.29644 -16481458.90744  21191689.0044   21191689.5754
 -20714602.39144 -16141237.08244  21386310.5844   21386311.5414
  -1267564.15944   -987712.29044  25228807.8744   25228809.4864
   -618887.95744   -482250.59944  25107516.8644
 -21181857.464 4 -16505330.479 4  21108303.698    21108301.148
  -8589123.00744  -6692800.45444  23487191.2634   23487194.4134
  -4600384.92244  -3584714.32144  24313774.1964   24313776.3264
 95  2  8  4 15  0.0000000  0  8G24G 4G 5G 6G16G12G 7G20
 -24987343.73744 -19470642.81244  20363193.9814   20363195.7914
 -21096373.79544 -16438719.81244  21202126.2704   21202126.5534
 -20780397.59844 -16192506.06944  21373790.1514   21373791.1634
  -1341416.82644                  25214753.9334
   -707804.37144   -551536.16344  25090596.7724   25090598.5514
 -21129123.988 4 -16464239.474 4  21118338.567    21118335.999
  -8518062.98144  -6637429.02444  23500713.5054   23500713.8074
  -4698631.55744  -3661270.14144  24295078.6064   24295080.8404
 95  2  8  4 15 30.0000000  0  8G24G 4G 5G 6G16G12G 7G20
 -25014172.19644 -19491548.09544  20358088.6364   20358090.3804
 -21041288.71644 -16395796.37044  21212608.5414   21212608.9474
 -20846171.03244 -16243758.09044  21361273.9784   21361274.8924
  -1415426.06144  -1102929.39244  25200670.7724   25200675.1504
   -797036.27844   -621067.55644  25073616.3034
 -21076064.964 4 -16422894.797 4  21128435.391    21128432.802
  -8447138.73144  -6582163.37644  23514210.2044   23514211.7194
  -4797052.26344  -3737961.59644  24276349.7084   24276352.5894
 95  2  8  4 16  0.0000000  0  8G24G 4G 5G 6G16G12G 7G20
 -25040460.96244 -19512032.83844  20353086.0604   20353087.7604
 -20985766.30244 -16352532.15344  21223174.1194   21223174.9624
 -20911713.87544 -16294830.42944  21348801.5414   21348802.6284
  -1489374.01744  -1160551.17244  25186598.9964
   -886388.71844   -690692.79844  25056613.1294   25056617.4754
 -21022473.394 4 -16381135.148 4  21138633.539    21138630.981
  -8376144.33144  -6526843.06644  23527719.8234   23527719.8974
  -4895462.01944  -3814644.46044  24257622.7864   24257624.1324
 95  2  8  4 16 30.0000000  0  8G24G 4G 5G 6G16G12G 7G20
 -25066345.04544 -19532202.24044  20348160.5994   20348162.2094
 -20929938.26844 -16309029.79344  21233797.9344   21233798.5814
 -20977132.47844 -16345805.96044  21336352.7294   21336353.9964
  -1563360.60744  -1218203.04244  25172519.3964   25172520.9044
   -976008.46844   -760526.42044  25039559.2744
 -20968479.005 4 -16339061.615 4  21148908.357    21148905.792
  -8305194.51844  -6471557.50744  23541221.0844   23541221.1854
  -4994006.57944  -3891432.45344  24238870.5384   24238870.8444
 95  2  8  4 17  0.0000000  0  8G24G 4G 5G 6G16G12G 7G20
 -25091643.86144 -19551915.59444  20343346.3504   20343348.0934
 -20873625.14744 -16265149.43944  21244513.9924   21244514.4634
 -21042233.56244 -16396534.07244  21323964.2914   21323965.4004
  -1637175.61144  -1275721.27544  25158472.8884   25158472.1194
  -1065713.95844   -830426.77144  25022488.9044   25022491.8184
 -20913896.248 4 -16296529.611 4  21159295.122    21159292.552
  -8234111.73144  -6416168.33644  23554747.7284   23554749.1054
  -5092516.32344  -3968193.25044  24220124.8614   24220127.0354
 95  2  8  4 17 30.0000000  0  8G24G 4G 5G 6G16G12G 7G20
 -25116430.92844 -19571230.17944  20338629.4554   20338631.1604
 -20816906.79244 -16220953.31544  21255307.1594   21255307.7084
 -21107092.11444 -16447073.19744  21311622.2984   21311623.2654
  -1710893.60644  -1333163.76844  25144444.8164
  -1155576.78244   -900449.82044  25005388.5264   25005393.1324
 -20858812.427 4 -16253607.170 4  21169777.223    21169774.648
  -8163004.28044  -6360759.93044  23568279.0254   23568279.4434
  -5191073.16644  -4044990.75244  24201369.9594   24201370.9224
 95  2  8  4 18  0.0000000  0  8G24G 4G 5G 6G16G12G 7G20
 -25140577.72144 -19590045.85244  20334034.4844   20334036.0954
 -20759669.72644 -16176353.00344  21266198.8334   21266199.4544
 -21171592.31044 -16497333.08644  21299348.2984   21299349.1314
  -1784412.34444  -1390451.12744  25130454.6954
  -1245490.00444   -970512.06044  24988278.5114   24988279.2514
 -20803118.230 4 -16210209.109 4  21180375.488    21180372.912
  -8091778.52644  -6305259.37844  23581832.7844   23581834.9454
  -5289544.78744  -4121721.89744  24182631.3644   24182630.9004
 95  2  8  4 18 30.0000000  0  8G24G 4G 5G 6G16G12G 7G20
 -25164108.49444 -19608381.50944  20329556.7084   20329558.3244
 -20701928.51544 -16131359.85244  21277186.6634   21277187.1564
 -21235777.92944 -16547347.84944  21287134.1424   21287135.0684
  -1857782.29644  -1447622.54744  25116492.9544   25116494.5334
  -1335478.88844  -1040633.31244  24971154.4234   24971157.5874
 -20746846.929 4 -16166361.357 4  21191083.578    21191080.992
  -8020477.81044  -6249700.37544  23595400.9824   23595401.8074
  -5387943.22644  -4198395.97144  24163906.8204   24163911.0714
 95  2  8  4 19  0.0000000  0  8G24G 4G 5G 6G16G12G 7G20
 -25187339.40444 -19626483.50744  20325136.0524   20325137.7474
 -20643983.10144 -16086207.58044  21288213.4434   21288214.0214
 -21299993.49844 -16597385.95244  21274914.4304   21274915.3424
  -1931345.23844  -1504944.31844  25102494.0024   25102495.5484
  -1425846.41744  -1111049.56644  24953958.0674   24953958.3794
 -20690314.343 4 -16122310.006 4  21201841.384    21201838.809
  -7949439.62544  -6194345.92944  23608919.1534   23608920.8964
  -5486565.47344  -4275244.48744  24145139.4964   24145141.7534
 95  2  8  4 19 30.0000000  0  8G24G 4G 5G 6G16G12G 7G20
 -25209994.07844 -19644136.48844  20320824.9774   20320826.6204
 -20585530.67944 -16040660.23844  21299336.5574   21299337.1664
 -21363959.15244 -16647229.31644  21262742.1564   21262743.3564
  -2004843.67744                  25088508.1934
  -1516311.47644  -1181541.81544  24936743.0054   24936746.2254
 -20633240.285 4 -16077836.731 4  21212702.229    21212699.655
  -7878374.64344  -6138970.63544  23622442.2614   23622443.7924
  -5585102.63044  -4352026.62944  24126388.6254   24126390.1464
 95  2  8  4 20  0.0000000  0  8G24G 4G 5G 6G16G12G 7G20
 -25232059.37744 -19661330.22044  20316626.0974   20316627.7924
 -20526551.41644 -15994702.36844  21310559.7894   21310560.6004
 -21427660.58144 -16696866.78844  21250620.1464   21250621.3034
  -2078264.07944  -1619426.54844  25074536.5204
  -1606863.67744  -1252101.93844  24919511.3374   24919514.5064
 -20575602.794 4 -16032924.414 4  21223670.281    21223667.715
  -7807259.17344  -6083556.01544  23635975.0534   23635978.1154
  -5683532.70744  -4428725.41944  24107657.8884   24107658.1424
 95  2  8  4 20 30.0000000  0  8G24G 4G 5G 6G16G12G 7G20
 -25253575.99444 -19678096.40844  20312531.5714   20312533.3444
 -20467083.27844 -15948363.55944  21321876.2554   21321877.0264
 -21491121.80944 -16746317.09244  21238543.9034   21238545.0514
  -2151626.80544  -1676592.28444  25060575.9644
  -1697537.38744  -1322756.87444  24902256.8744   24902256.4464
 -20517439.329 4 -15987602.250 4  21234738.449    21234735.864
  -7736127.67744  -6028128.88044  23649511.0504   23649513.1624
  -5781903.35844  -4505377.84344  24088938.8774   24088942.0894
 95  2  8  4 21  0.0000000  0  8G24G 4G 5G 6G16G12G 7G20
 -25274624.69144 -19694497.98344  20308526.1694   20308527.7654
 -20407225.31644 -15901720.98944  21333266.8464   21333267.4954
 -21554396.25844 -16795621.85644  21226503.0744   21226504.0374
  -2224994.72244  -1733762.08344  25046614.6654
  -1788412.82844  -1393568.86044  24884963.6904   24884966.0294
 -20458831.999 4 -15941934.216 4  21245891.077    21245888.473
  -7665053.79244  -5972746.65144  23663036.0954   23663037.2354
  -5880312.16544  -4582060.00044  24070211.9114   24070213.2664
 95  2  8  4 21 30.0000000  0  8G24G 4G 5G 6G16G12G 7G20
 -25295068.33944 -19710428.08844  20304635.8784   20304637.5194
 -20346861.63344 -15854684.35444  21344753.6874   21344754.1734
 -21617307.18944 -16844643.35644  21214531.4864   21214532.3664
  -2298207.75544  -1790811.20944  25032682.7134
  -1879353.49944  -1464431.75844  24867658.5984   24867661.2754
 -20399643.525 4 -15895813.342 4  21257154.289    21257151.635
  -7593891.52444  -5917295.52444  23676577.7224   23676578.9824
  -5978623.56244  -4658666.31044  24051504.0514   24051506.5114
 95  2  8  4 22  0.0000000  0  8G24G 4G 5G 6G16G12G 7G20
 -25314916.20744 -19725893.95244  20300858.9814   20300860.6814
 -20286023.70844 -15807278.17744  21356330.7824   21356331.3564
 -21679858.03344 -16893384.26944  21202628.4204   21202629.6174
  -2371267.88744  -1847741.20144  25018779.3964   25018782.0244
  -1970361.16644  -1535346.80444  24850340.1474   24850341.4434
 -20339888.151 4 -15849250.728 4  21268525.352    21268522.728
  -7522653.95244  -5861785.72844  23690133.9004   23690135.6384
  -6076868.56444  -4735220.82644  24032808.5104   24032809.3464
 95  2  8  4 22 30.0000000  0  8G24G 4G 5G 6G16G12G 7G20
 -25334289.09244 -19740989.69944  20297172.4564   20297174.0344
 -20224824.60344 -15759590.56344  21367976.6714   21367977.1564
 -21742158.22744 -16941929.87344  21190773.1424   21190774.1984
  -2444302.07244  -1904651.00144  25004882.0864   25004885.0994
  -2061543.07644  -1606397.64944  24832988.7804   24832992.9204
 -20279689.474 4 -15802342.686 4  21279980.812    21279978.183
  -7451448.19944  -5806300.73344  23703683.7594   23703683.6384
  -6175160.50944  -4811811.94344  24014104.2954   24014106.3624
 95  2  8  4 23  0.0000000  0  8G24G 4G 5G 6G16G12G 7G20
 -25353210.14544 -19755733.37044  20293571.8424   20293573.4764
 -20163285.63044 -15711638.11544  21379687.0554   21379687.5784
 -21804228.60744 -16990296.40044  21178961.5094   21178962.4144
  -2517325.22044  -1961552.13144  24990986.2744   24990986.5464
  -2152900.78944  -1677585.46644  24815604.1254   24815606.4504
 -20219064.229 4 -15755102.252 4  21291517.427    21291514.828
  -7380281.05244  -5750845.80544  23717226.4324   23717227.9034
  -6273500.47644  -4888440.47644  23995390.8984   23995392.2334
 95  2  8  4 23 30.0000000  0  8G24G 4G 5G 6G16G12G 7G20
 -25371470.60944 -19769962.29144  20290096.9544   20290098.5784
 -20101199.87044 -15663259.59944  21391501.5004   21391502.0624
 -21865882.22444 -17038338.17444  21167229.2114   21167230.1164
  -2590140.52044  -2018291.33544  24977129.8224   24977134.1184
  -2244225.10944  -1748747.30344  24798225.4774   24798228.9304
 -20157810.114 4 -15707371.788 4  21303173.697    21303171.119
  -7308942.68844  -5695257.51844  23730801.4284   23730805.7484
  -6371676.25744  -4964941.09744  23976708.8394   23976710.6574
 95  2  8  4 24  0.0000000  0  8G24G 4G 5G 6G16G12G 7G20
 -25389139.24544 -19783730.05144  20286734.7344   20286736.2574
 -20038646.53144 -15614516.73844  21403405.0914   21403405.5864
 -21927219.43844 -17086133.40344  21155557.1344   21155558.1794
  -2662836.00944  -2074937.14944  24963296.2774   24963299.7664
  -2335586.58144  -1819938.03644  24780840.1764   24780840.6264
 -20096008.252 4 -15659214.507 4  21314934.238    21314931.607
  -7237505.43344  -5639592.10044  23744395.5654   23744395.4534
  -6469768.19544  -5041376.34944  23958042.4414   23958044.3674
 95  2  8  4 24 30.0000000  0  8G24G 4G 5G 6G16G12G 7G20
 -25406396.67944 -19797177.39444  20283450.7654   20283452.4004
 -19975813.23644 -15565555.72844  21415361.8864   21415362.4334
 -21988420.14544 -17133822.26244  21143911.0504   21143912.1144
  -2735579.27344  -2131620.20244  24949454.0484   24949457.5904
  -2427164.98444  -1891297.83244  24763413.3274   24763417.2274
 -20033834.468 4 -15610767.419 4  21326765.530    21326762.894
  -7166143.79444  -5583985.61344  23757975.3644   23757978.1504
  -6567943.02944  -5117876.21044  23939360.2834   23939361.0014
 95  2  8  4 25  0.0000000  0  8G 4G24G 5G 6G16G12G 7G20
 -19912615.83444 -15516310.99744  21427387.8114   21427388.6554
 -25423139.05344 -19810223.38944  20280264.7074   20280266.4394
 -22049391.07344 -17181332.07544  21132308.6554   21132309.7094
  -2808256.49144  -2188251.84844  24935623.7634
  -2518861.51044  -1962749.68144  24745964.0724   24745966.5454
 -19971186.428 4 -15561950.780 4  21338687.068    21338684.400
  -7094762.64344  -5528363.97144  23771558.6484   23771560.6134
  -6666112.18744  -5194371.64044  23920679.2374   23920680.9394
 95  2  8  4 25 30.0000000  0  8G 4G24G 5G 6G16G12G 7G20
 -19849002.70344 -15466742.32344  21439493.0074   21439493.7204
 -25439320.01844 -19822831.92344  20277185.6224   20277187.2914
 -22110079.89044 -17228622.05944  21120759.9644   21120760.9364
  -2880828.81544  -2244801.70144  24921813.7254   24921816.9334
  -2610624.46144  -2034253.26644  24728502.2044   24728504.6754
 -19908017.103 4 -15512727.944 4  21350707.830    21350705.165
  -7023320.81644  -5472695.04844  23785153.5574   23785155.4194
  -6764237.45344  -5270832.87944  23902006.5994   23902009.7504
 95  2  8  4 26  0.0000000  0  8G 4G24G 5G 6G16G12G 7G20
 -19785047.63844 -15416907.20644  21451663.2244   21451663.9514
 -25455018.01444 -19835064.11944  20274198.3294   20274199.9244
 -22170541.32244 -17275734.86144  21109254.5444   21109255.6204
  -2953375.40344  -2301331.49344  24908008.5844   24908011.8584
  -2702509.96844  -2105852.35144  24711016.9724   24711020.6504
 -19844394.995 4 -15463152.290 4  21362814.713    21362812.040
  -6951893.42444  -5417037.32544  23798745.9124   23798749.0704
  -6862379.87244  -5347307.45644  23883330.8544   23883334.1964
 95  2  8  4 26 30.0000000  0  8G 4G24G 5G 6G16G12G 7G20
 -19720667.48444 -15366740.84644  21463914.3724   21463914.9834
 -25470166.04044 -19846867.76744  20271315.6994   20271317.3034
 -22230687.41644 -17322601.94344  21097809.1604   21097810.1424
  -3025822.90244  -2357784.10144  24894222.3554
  -2794440.79244  -2177486.75144  24693523.1624   24693524.2054
 -19780243.634 4 -15413164.230 4  21375022.319    21375019.648
  -6880413.61144  -5361338.81544  23812348.2474   23812348.8284
  -6960464.99644  -5423737.42244  23864665.8064   23864667.8914
 95  2  8  4 27  0.0000000  0  8G 4G24G 5G 6G16G12G 7G20
 -19656007.01844 -15316356.06444  21476218.9554   21476219.7124
 -25484911.42144 -19858357.66344  20268509.8194   20268511.4264
 -22290660.03944 -17369333.85344  21086396.7024   21086397.6134
  -3098334.91644  -2414286.99144  24880423.5884   24880429.4424
  -2886553.94444  -2249263.23944  24675994.4944   24675995.7844
 -19715715.570 4 -15362882.636 4  21387301.620    21387298.946
  -6809044.61444  -5305726.63244  23825929.1544   23825932.6254
  -7058639.67944  -5500237.15644  23845983.6404   23845985.4874
 95  2  8  4 27 30.0000000  0  8G 4G24G 5G 6G16G12G 7G20
 -19591003.16344 -15265703.69944  21488588.7904   21488590.0024
 -25499191.36544 -19869484.88344  20265792.3774   20265793.9944
 -22350400.48344 -17415884.84644  21075028.4514   21075029.4764
  -3170876.99944  -2470813.26944  24866619.4764   24866620.2274
  -2978785.33944  -2321131.87144  24658443.4934   24658447.5284
 -19650759.454 4 -15312267.496 4  21399662.370    21399659.714
  -6737736.52644  -5250161.93144  23839498.6264
  -7156833.97544  -5576752.18844  23827298.0464   23827298.1044
 95  2  8  4 28  0.0000000  0  8G 4G24G 5G 6G16G12G 7G20
 -19525448.90144 -15214622.48944  21501063.3694   21501064.0494
 -25512783.40644 -19880076.07544  20263205.8794   20263207.6724
 -22409708.96944 -17462099.24544  21063742.3794   21063743.2364
  -3243230.51044  -2527192.62244  24852850.7874   24852854.0094
  -3070939.91444  -2392940.60444  24640907.1494   24640911.5224
 -19585166.613 4 -15261156.206 4  21412144.278    21412141.608
  -6666284.36644  -5194484.87244  23853095.5564
  -7254821.39644  -5653106.01244  23808651.5424   23808652.8064
 95  2  8  4 28 30.0000000  0  8G 4G24G 5G 6G16G12G 7G20
 -19459468.56144 -15163209.23144  21513618.8844   21513619.5464
 -25525811.33044 -19890227.69544  20260726.8194   20260728.3034
 -22468727.47344 -17508087.68544  21052511.5564   21052512.5874
  -3315498.60944  -2583505.42344  24839098.6574
  -3163159.01844  -2464799.68644  24623358.2924   24623360.8364
 -19519067.977 4 -15209650.785 4  21424722.463    21424719.754
  -6594816.26644  -5138795.49444  23866695.3874
  -7352722.87544  -5729392.88144  23790021.6734   23790022.0084
 95  2  8  4 29  0.0000000  0  8G 4G24G 5G 6G16G12G 7G20
 -19393095.10544 -15111489.65044  21526249.5414   21526250.0394
 -25538302.13844 -19899960.78244  20258349.8424   20258351.2734
 -22527506.02344 -17553889.14544  21041326.4144   21041327.2604
  -3387710.21644  -2639774.20744  24825357.3134   24825356.9274
  -3255480.99444  -2536738.86044  24605789.9414   24605791.5504
 -19452504.140 4 -15157782.874 4  21437388.989    21437386.445
  -6523352.01244                  23880294.6104
  -7450553.91344  -5805624.83644  23771404.9934   23771406.4254
 95  2  8  4 29 30.0000000  0  8G 4G24G 5G 6G16G12G 7G20
 -19325976.62244 -15059189.53444  21539021.6494   21539022.0274
 -25549905.12644 -19909002.06744  20256141.9694   20256143.3144
 -22585699.70744 -17599234.87044  21030252.4944   21030253.1624
  -3459511.92044  -2695723.68644  24811693.9534   24811695.5354
  -3347569.16944  -2608495.89444  24588266.2234   24588269.8684
 -19385130.065 4 -15105283.607 4  21450209.795    21450207.315
  -6451533.21744  -5027146.31844  23893961.3174   23893961.9154
  -7547971.07344  -5881534.28744  23752867.1114   23752869.4184
 95  2  8  4 30  0.0000000  0  8G 4G24G 5G 6G16G12G 7G20
 -19259020.79444 -15007016.15944  21551762.9514   21551763.3874
 -25561525.02444 -19918056.52544  20253930.7614   20253932.3084
 -22644180.64644 -17644804.43044  21019123.9834   21019125.0594
  -3531778.24744  -2752035.06044  24797942.3924   24797943.9414
  -3440319.83444  -2680769.14944  24570616.2284   24570617.9714
 -19317837.347 4 -15052847.737 4  21463015.397    21463012.707
  -6380241.21344  -4971594.09844  23907527.9414   23907525.9244
  -7645869.25344  -5957818.58844  23734237.7834   23734239.4974
 95  2  8  4 30 30.0000000  0  8G 4G24G 5G 6G16G12G 7G20
 -19191858.49244 -14954681.89444  21564543.5924   21564543.9164
 -25572788.65044 -19926833.36844  20251787.3654   20251788.9644
 -22702545.20044 -17690283.29844  21008017.5144   21008018.3454
  -3604134.50644  -2808416.50444  24784173.4204   24784175.4784
  -3533329.28344  -2753244.02144  24552917.2194   24552918.7214
 -19250245.548 4 -15000178.817 4  21475877.710    21475874.996
  -6309077.78244  -4916142.08544  23921069.6314   23921073.9154
  -7743878.01344  -6034189.05644  23715587.2274   23715589.1264
 95  2  8  4 31  0.0000000  0  8G 4G24G 5G 6G16G12G 7G20
 -19124196.99844 -14901958.65144  21577419.0584   21577419.5524
 -25583392.57944 -19935096.16444  20249769.4854   20249770.9094
 -22760465.85144 -17735416.26644  20996995.5844   20996996.7714
  -3676303.65044  -2864652.19744  24770439.7474   24770442.1644
  -3626279.98544  -2825673.17244  24535229.3204   24535232.4924
 -19182054.260 4 -14947042.762 4  21488854.112    21488851.384
  -6237747.05244  -4860559.77744  23934643.4354   23934646.0174
  -7841710.75644  -6110422.36344  23696970.2544   23696973.3404
 95  2  8  4 31 30.0000000  0  8G 4G12G24G 5G 6G16G 7G20
 -19056006.52844 -14848823.21644  21590395.2634   21590395.7554
 -19113212.611 4 -14893399.934 4  21501954.244    21501951.549
 -25593289.40344 -19942807.96944  20247886.1724   20247887.6944
 -22817858.71744 -17780137.97544  20986074.0624   20986075.1014
  -3748245.88244  -2920711.05944  24756749.6504   24756754.9374
  -3719121.95044  -2898017.56344  24517562.1514   24517563.1564
  -6166211.79144  -4804818.12744  23948255.9854   23948259.3814
  -7939335.12444  -6186493.28544  23678393.0174   23678394.3044
 95  2  8  4 32  0.0000000  0  8G 4G12G24G 5G 6G16G 7G20
 -18987450.59844 -14795403.01044  21603440.9784   21603441.4864
 -19043879.412 4 -14839374.079 4  21515147.933    21515145.198
 -25602646.45144 -19950099.16944  20246105.5864   20246107.2134
 -22874882.26044 -17824571.89844  20975222.8284   20975224.0734
  -3820124.28944  -2976720.19144  24743071.6204   24743072.5764
  -3812001.83944  -2970391.47544  24499887.6374   24499889.6944
  -6094636.12744  -4749044.91644  23961876.1844   23961875.7694
  -8036892.88544  -6262512.30944  23659828.3634   23659828.5274
 95  2  8  4 32 30.0000000  0  8G 4G12G24G 5G 6G16G 7G20
 -18918421.67244 -14741614.23544  21616576.7244   21616577.1584
 -18973969.231 4 -14784898.630 4  21528451.404    21528448.660
 -25611358.65844 -19956887.89444  20244447.5224   20244449.1644
 -22931473.96744 -17868669.32744  20964453.7854   20964454.7874
  -3891852.19344  -3032612.03944  24729422.3404   24729425.3854
  -3904824.00944  -3042720.45844  24482224.1204   24482225.2784
  -6022940.61544                  23975520.0164
  -8134295.34544  -6338410.34544  23641293.1714   23641295.5334
 95  2  8  4 33  0.0000000  0  8G 4G12G24G 5G 6G16G 7G20
 -18848956.93944 -14687485.86744  21629795.4864   21629796.1104
 -18903536.025 4 -14730015.624 4  21541854.421    21541851.655
 -25619469.85244 -19963208.29744  20242904.0784   20242905.6514
 -22987681.63144 -17912467.50044  20953757.7874   20953758.7874
  -3963475.22244  -3088422.19344  24715792.7514   24715794.3274
  -3997651.73144  -3115053.73944  24464559.5554   24464560.5024
  -5951185.89444                  23989174.4594
  -8231599.92144  -6414232.09844  23622776.7374   23622777.7694
